<?xml version="1.0" encoding="UTF-8" standalone="no" ?>
<gpx xmlns="http://www.topografix.com/GPX/1/1" xmlns:xsi="http://www.w3.org/2001/XMLSchema-instance" xsi:schemaLocation="http://www.topografix.com/GPX/1/1 http://www.topografix.com/GPX/1/1/gpx.xsd" version="1.1" creator="VisuGPX - https://www.visugpx.com">
  <metadata>
    <name>Circuit du Monorail Panissieres</name>
    <desc><![CDATA[Beau circuit . Les panneaux sur l'histoire du monorail sont très bien faits.]]></desc>
  </metadata>
  <trk>
    <name><![CDATA[ACTIVE LOG]]></name>
    <trkseg>
      <trkpt lat="45.73861" lon="4.2887">
        <ele>357.748</ele>
        <time>2012-12-16T08:34:28Z</time>
      </trkpt>
      <trkpt lat="45.73864" lon="4.28873">
        <ele>358.709</ele>
        <time>2012-12-16T08:35:42Z</time>
      </trkpt>
      <trkpt lat="45.73866" lon="4.28871">
        <ele>360.632</ele>
        <time>2012-12-16T08:36:30Z</time>
      </trkpt>
      <trkpt lat="45.73867" lon="4.28872">
        <ele>359.19</ele>
        <time>2012-12-16T08:36:38Z</time>
      </trkpt>
      <trkpt lat="45.73866" lon="4.28866">
        <ele>359.67</ele>
        <time>2012-12-16T08:36:42Z</time>
      </trkpt>
      <trkpt lat="45.73863" lon="4.2886">
        <ele>361.112</ele>
        <time>2012-12-16T08:36:59Z</time>
      </trkpt>
      <trkpt lat="45.73863" lon="4.2886">
        <ele>359.67</ele>
        <time>2012-12-16T08:37:10Z</time>
      </trkpt>
      <trkpt lat="45.73866" lon="4.28861">
        <ele>360.151</ele>
        <time>2012-12-16T08:37:39Z</time>
      </trkpt>
      <trkpt lat="45.73866" lon="4.2887">
        <ele>360.632</ele>
        <time>2012-12-16T08:37:52Z</time>
      </trkpt>
      <trkpt lat="45.73866" lon="4.2887">
        <ele>360.632</ele>
        <time>2012-12-16T08:38:10Z</time>
      </trkpt>
      <trkpt lat="45.73865" lon="4.28871">
        <ele>361.112</ele>
        <time>2012-12-16T08:39:24Z</time>
      </trkpt>
      <trkpt lat="45.73867" lon="4.28858">
        <ele>361.593</ele>
        <time>2012-12-16T08:39:32Z</time>
      </trkpt>
      <trkpt lat="45.73858" lon="4.28855">
        <ele>361.112</ele>
        <time>2012-12-16T08:39:45Z</time>
      </trkpt>
      <trkpt lat="45.73858" lon="4.28854">
        <ele>361.112</ele>
        <time>2012-12-16T08:39:46Z</time>
      </trkpt>
      <trkpt lat="45.73854" lon="4.28848">
        <ele>360.632</ele>
        <time>2012-12-16T08:39:52Z</time>
      </trkpt>
      <trkpt lat="45.73846" lon="4.28847">
        <ele>361.112</ele>
        <time>2012-12-16T08:39:59Z</time>
      </trkpt>
      <trkpt lat="45.73841" lon="4.2885">
        <ele>361.593</ele>
        <time>2012-12-16T08:40:04Z</time>
      </trkpt>
      <trkpt lat="45.73837" lon="4.28852">
        <ele>362.554</ele>
        <time>2012-12-16T08:40:08Z</time>
      </trkpt>
      <trkpt lat="45.73835" lon="4.28852">
        <ele>362.554</ele>
        <time>2012-12-16T08:40:10Z</time>
      </trkpt>
      <trkpt lat="45.73831" lon="4.28852">
        <ele>363.035</ele>
        <time>2012-12-16T08:40:13Z</time>
      </trkpt>
      <trkpt lat="45.73817" lon="4.28854">
        <ele>363.035</ele>
        <time>2012-12-16T08:40:24Z</time>
      </trkpt>
      <trkpt lat="45.73813" lon="4.28854">
        <ele>363.035</ele>
        <time>2012-12-16T08:40:27Z</time>
      </trkpt>
      <trkpt lat="45.73798" lon="4.28859">
        <ele>364.477</ele>
        <time>2012-12-16T08:40:39Z</time>
      </trkpt>
      <trkpt lat="45.73794" lon="4.28857">
        <ele>364.477</ele>
        <time>2012-12-16T08:40:43Z</time>
      </trkpt>
      <trkpt lat="45.73791" lon="4.28859">
        <ele>364.958</ele>
        <time>2012-12-16T08:40:46Z</time>
      </trkpt>
      <trkpt lat="45.73779" lon="4.28856">
        <ele>367.361</ele>
        <time>2012-12-16T08:40:55Z</time>
      </trkpt>
      <trkpt lat="45.73765" lon="4.28846">
        <ele>370.245</ele>
        <time>2012-12-16T08:41:09Z</time>
      </trkpt>
      <trkpt lat="45.73761" lon="4.28842">
        <ele>370.726</ele>
        <time>2012-12-16T08:41:14Z</time>
      </trkpt>
      <trkpt lat="45.73741" lon="4.28827">
        <ele>369.764</ele>
        <time>2012-12-16T08:41:25Z</time>
      </trkpt>
      <trkpt lat="45.73739" lon="4.28827">
        <ele>369.764</ele>
        <time>2012-12-16T08:41:26Z</time>
      </trkpt>
      <trkpt lat="45.73725" lon="4.28822">
        <ele>369.764</ele>
        <time>2012-12-16T08:41:36Z</time>
      </trkpt>
      <trkpt lat="45.73719" lon="4.28821">
        <ele>370.245</ele>
        <time>2012-12-16T08:41:40Z</time>
      </trkpt>
      <trkpt lat="45.73711" lon="4.28821">
        <ele>370.726</ele>
        <time>2012-12-16T08:41:46Z</time>
      </trkpt>
      <trkpt lat="45.73702" lon="4.2882">
        <ele>371.206</ele>
        <time>2012-12-16T08:41:52Z</time>
      </trkpt>
      <trkpt lat="45.73696" lon="4.28824">
        <ele>367.361</ele>
        <time>2012-12-16T08:41:58Z</time>
      </trkpt>
      <trkpt lat="45.73691" lon="4.28824">
        <ele>365.919</ele>
        <time>2012-12-16T08:42:02Z</time>
      </trkpt>
      <trkpt lat="45.73678" lon="4.28822">
        <ele>363.516</ele>
        <time>2012-12-16T08:42:10Z</time>
      </trkpt>
      <trkpt lat="45.73669" lon="4.28825">
        <ele>362.074</ele>
        <time>2012-12-16T08:42:17Z</time>
      </trkpt>
      <trkpt lat="45.7367" lon="4.28858">
        <ele>363.516</ele>
        <time>2012-12-16T08:42:33Z</time>
      </trkpt>
      <trkpt lat="45.73674" lon="4.28878">
        <ele>365.438</ele>
        <time>2012-12-16T08:42:44Z</time>
      </trkpt>
      <trkpt lat="45.73676" lon="4.28887">
        <ele>365.438</ele>
        <time>2012-12-16T08:42:49Z</time>
      </trkpt>
      <trkpt lat="45.73674" lon="4.28893">
        <ele>366.4</ele>
        <time>2012-12-16T08:43:00Z</time>
      </trkpt>
      <trkpt lat="45.73672" lon="4.28893">
        <ele>366.88</ele>
        <time>2012-12-16T08:43:22Z</time>
      </trkpt>
      <trkpt lat="45.73672" lon="4.28893">
        <ele>366.88</ele>
        <time>2012-12-16T08:43:40Z</time>
      </trkpt>
      <trkpt lat="45.73675" lon="4.28903">
        <ele>367.361</ele>
        <time>2012-12-16T08:43:49Z</time>
      </trkpt>
      <trkpt lat="45.73675" lon="4.28907">
        <ele>367.842</ele>
        <time>2012-12-16T08:43:51Z</time>
      </trkpt>
      <trkpt lat="45.73676" lon="4.28931">
        <ele>368.803</ele>
        <time>2012-12-16T08:44:04Z</time>
      </trkpt>
      <trkpt lat="45.73676" lon="4.28944">
        <ele>370.726</ele>
        <time>2012-12-16T08:44:13Z</time>
      </trkpt>
      <trkpt lat="45.73675" lon="4.28956">
        <ele>372.167</ele>
        <time>2012-12-16T08:44:20Z</time>
      </trkpt>
      <trkpt lat="45.73675" lon="4.28973">
        <ele>374.571</ele>
        <time>2012-12-16T08:44:30Z</time>
      </trkpt>
      <trkpt lat="45.73675" lon="4.28985">
        <ele>376.974</ele>
        <time>2012-12-16T08:44:39Z</time>
      </trkpt>
      <trkpt lat="45.73677" lon="4.28997">
        <ele>377.935</ele>
        <time>2012-12-16T08:44:47Z</time>
      </trkpt>
      <trkpt lat="45.73678" lon="4.29004">
        <ele>378.897</ele>
        <time>2012-12-16T08:44:54Z</time>
      </trkpt>
      <trkpt lat="45.73686" lon="4.29017">
        <ele>377.935</ele>
        <time>2012-12-16T08:45:06Z</time>
      </trkpt>
      <trkpt lat="45.73685" lon="4.29016">
        <ele>377.455</ele>
        <time>2012-12-16T08:45:11Z</time>
      </trkpt>
      <trkpt lat="45.73672" lon="4.28992">
        <ele>378.897</ele>
        <time>2012-12-16T08:45:24Z</time>
      </trkpt>
      <trkpt lat="45.73673" lon="4.28966">
        <ele>376.494</ele>
        <time>2012-12-16T08:45:38Z</time>
      </trkpt>
      <trkpt lat="45.73673" lon="4.2894">
        <ele>374.571</ele>
        <time>2012-12-16T08:45:50Z</time>
      </trkpt>
      <trkpt lat="45.73673" lon="4.28936">
        <ele>374.09</ele>
        <time>2012-12-16T08:45:53Z</time>
      </trkpt>
      <trkpt lat="45.73676" lon="4.28931">
        <ele>372.648</ele>
        <time>2012-12-16T08:45:57Z</time>
      </trkpt>
      <trkpt lat="45.73686" lon="4.28934">
        <ele>371.206</ele>
        <time>2012-12-16T08:46:06Z</time>
      </trkpt>
      <trkpt lat="45.73704" lon="4.28941">
        <ele>368.322</ele>
        <time>2012-12-16T08:46:21Z</time>
      </trkpt>
      <trkpt lat="45.73715" lon="4.28943">
        <ele>366.88</ele>
        <time>2012-12-16T08:46:29Z</time>
      </trkpt>
      <trkpt lat="45.73729" lon="4.28947">
        <ele>363.516</ele>
        <time>2012-12-16T08:46:41Z</time>
      </trkpt>
      <trkpt lat="45.7373" lon="4.28947">
        <ele>363.516</ele>
        <time>2012-12-16T08:46:42Z</time>
      </trkpt>
      <trkpt lat="45.73744" lon="4.28967">
        <ele>361.112</ele>
        <time>2012-12-16T08:46:54Z</time>
      </trkpt>
      <trkpt lat="45.73746" lon="4.28978">
        <ele>360.632</ele>
        <time>2012-12-16T08:47:00Z</time>
      </trkpt>
      <trkpt lat="45.73749" lon="4.29">
        <ele>362.074</ele>
        <time>2012-12-16T08:47:11Z</time>
      </trkpt>
      <trkpt lat="45.73749" lon="4.29025">
        <ele>363.996</ele>
        <time>2012-12-16T08:47:25Z</time>
      </trkpt>
      <trkpt lat="45.73747" lon="4.2905">
        <ele>364.958</ele>
        <time>2012-12-16T08:47:37Z</time>
      </trkpt>
      <trkpt lat="45.73741" lon="4.29072">
        <ele>367.361</ele>
        <time>2012-12-16T08:47:49Z</time>
      </trkpt>
      <trkpt lat="45.73737" lon="4.29091">
        <ele>366.4</ele>
        <time>2012-12-16T08:48:00Z</time>
      </trkpt>
      <trkpt lat="45.73736" lon="4.29096">
        <ele>365.919</ele>
        <time>2012-12-16T08:48:02Z</time>
      </trkpt>
      <trkpt lat="45.73736" lon="4.291">
        <ele>365.919</ele>
        <time>2012-12-16T08:48:04Z</time>
      </trkpt>
      <trkpt lat="45.73737" lon="4.29115">
        <ele>364.958</ele>
        <time>2012-12-16T08:48:11Z</time>
      </trkpt>
      <trkpt lat="45.73736" lon="4.29122">
        <ele>364.477</ele>
        <time>2012-12-16T08:48:14Z</time>
      </trkpt>
      <trkpt lat="45.73739" lon="4.2915">
        <ele>361.112</ele>
        <time>2012-12-16T08:48:27Z</time>
      </trkpt>
      <trkpt lat="45.7374" lon="4.29174">
        <ele>361.112</ele>
        <time>2012-12-16T08:48:38Z</time>
      </trkpt>
      <trkpt lat="45.73736" lon="4.29193">
        <ele>360.151</ele>
        <time>2012-12-16T08:48:48Z</time>
      </trkpt>
      <trkpt lat="45.7373" lon="4.29211">
        <ele>356.306</ele>
        <time>2012-12-16T08:48:58Z</time>
      </trkpt>
      <trkpt lat="45.73718" lon="4.29235">
        <ele>353.422</ele>
        <time>2012-12-16T08:49:11Z</time>
      </trkpt>
      <trkpt lat="45.73713" lon="4.29249">
        <ele>351.499</ele>
        <time>2012-12-16T08:49:20Z</time>
      </trkpt>
      <trkpt lat="45.73712" lon="4.2925">
        <ele>351.499</ele>
        <time>2012-12-16T08:49:21Z</time>
      </trkpt>
      <trkpt lat="45.73704" lon="4.29267">
        <ele>350.057</ele>
        <time>2012-12-16T08:49:32Z</time>
      </trkpt>
      <trkpt lat="45.73699" lon="4.29279">
        <ele>347.654</ele>
        <time>2012-12-16T08:49:40Z</time>
      </trkpt>
      <trkpt lat="45.73697" lon="4.29283">
        <ele>347.173</ele>
        <time>2012-12-16T08:49:42Z</time>
      </trkpt>
      <trkpt lat="45.73693" lon="4.29291">
        <ele>346.693</ele>
        <time>2012-12-16T08:49:46Z</time>
      </trkpt>
      <trkpt lat="45.73686" lon="4.29304">
        <ele>346.693</ele>
        <time>2012-12-16T08:49:54Z</time>
      </trkpt>
      <trkpt lat="45.73681" lon="4.29322">
        <ele>346.693</ele>
        <time>2012-12-16T08:50:04Z</time>
      </trkpt>
      <trkpt lat="45.73678" lon="4.29337">
        <ele>345.251</ele>
        <time>2012-12-16T08:50:13Z</time>
      </trkpt>
      <trkpt lat="45.73672" lon="4.29354">
        <ele>343.809</ele>
        <time>2012-12-16T08:50:22Z</time>
      </trkpt>
      <trkpt lat="45.73671" lon="4.29365">
        <ele>343.328</ele>
        <time>2012-12-16T08:50:27Z</time>
      </trkpt>
      <trkpt lat="45.73665" lon="4.29381">
        <ele>342.367</ele>
        <time>2012-12-16T08:50:36Z</time>
      </trkpt>
      <trkpt lat="45.73668" lon="4.29403">
        <ele>339.483</ele>
        <time>2012-12-16T08:50:48Z</time>
      </trkpt>
      <trkpt lat="45.7367" lon="4.29407">
        <ele>338.521</ele>
        <time>2012-12-16T08:50:51Z</time>
      </trkpt>
      <trkpt lat="45.73671" lon="4.2941">
        <ele>338.521</ele>
        <time>2012-12-16T08:50:53Z</time>
      </trkpt>
      <trkpt lat="45.73679" lon="4.29427">
        <ele>336.599</ele>
        <time>2012-12-16T08:51:02Z</time>
      </trkpt>
      <trkpt lat="45.73687" lon="4.29446">
        <ele>335.157</ele>
        <time>2012-12-16T08:51:11Z</time>
      </trkpt>
      <trkpt lat="45.73696" lon="4.29466">
        <ele>335.157</ele>
        <time>2012-12-16T08:51:21Z</time>
      </trkpt>
      <trkpt lat="45.73697" lon="4.29476">
        <ele>335.637</ele>
        <time>2012-12-16T08:51:26Z</time>
      </trkpt>
      <trkpt lat="45.73697" lon="4.29503">
        <ele>341.886</ele>
        <time>2012-12-16T08:51:37Z</time>
      </trkpt>
      <trkpt lat="45.73696" lon="4.29505">
        <ele>341.886</ele>
        <time>2012-12-16T08:51:38Z</time>
      </trkpt>
      <trkpt lat="45.73698" lon="4.29527">
        <ele>345.251</ele>
        <time>2012-12-16T08:51:50Z</time>
      </trkpt>
      <trkpt lat="45.737" lon="4.29541">
        <ele>347.654</ele>
        <time>2012-12-16T08:52:00Z</time>
      </trkpt>
      <trkpt lat="45.737" lon="4.29543">
        <ele>347.654</ele>
        <time>2012-12-16T08:52:01Z</time>
      </trkpt>
      <trkpt lat="45.73703" lon="4.29564">
        <ele>350.538</ele>
        <time>2012-12-16T08:52:13Z</time>
      </trkpt>
      <trkpt lat="45.73707" lon="4.29589">
        <ele>352.941</ele>
        <time>2012-12-16T08:52:28Z</time>
      </trkpt>
      <trkpt lat="45.73712" lon="4.29606">
        <ele>353.422</ele>
        <time>2012-12-16T08:52:37Z</time>
      </trkpt>
      <trkpt lat="45.73717" lon="4.29622">
        <ele>356.306</ele>
        <time>2012-12-16T08:52:49Z</time>
      </trkpt>
      <trkpt lat="45.73719" lon="4.29627">
        <ele>357.748</ele>
        <time>2012-12-16T08:52:54Z</time>
      </trkpt>
      <trkpt lat="45.73735" lon="4.29623">
        <ele>363.516</ele>
        <time>2012-12-16T08:53:06Z</time>
      </trkpt>
      <trkpt lat="45.73748" lon="4.29622">
        <ele>364.958</ele>
        <time>2012-12-16T08:53:16Z</time>
      </trkpt>
      <trkpt lat="45.73756" lon="4.29625">
        <ele>365.919</ele>
        <time>2012-12-16T08:53:21Z</time>
      </trkpt>
      <trkpt lat="45.73765" lon="4.2965">
        <ele>369.764</ele>
        <time>2012-12-16T08:53:37Z</time>
      </trkpt>
      <trkpt lat="45.73765" lon="4.29651">
        <ele>370.245</ele>
        <time>2012-12-16T08:53:38Z</time>
      </trkpt>
      <trkpt lat="45.73768" lon="4.29661">
        <ele>372.167</ele>
        <time>2012-12-16T08:53:44Z</time>
      </trkpt>
      <trkpt lat="45.7377" lon="4.2967">
        <ele>373.129</ele>
        <time>2012-12-16T08:53:49Z</time>
      </trkpt>
      <trkpt lat="45.7377" lon="4.29679">
        <ele>373.609</ele>
        <time>2012-12-16T08:53:54Z</time>
      </trkpt>
      <trkpt lat="45.73772" lon="4.29699">
        <ele>376.494</ele>
        <time>2012-12-16T08:54:07Z</time>
      </trkpt>
      <trkpt lat="45.73772" lon="4.29702">
        <ele>376.974</ele>
        <time>2012-12-16T08:54:09Z</time>
      </trkpt>
      <trkpt lat="45.7377" lon="4.2972">
        <ele>376.974</ele>
        <time>2012-12-16T08:54:22Z</time>
      </trkpt>
      <trkpt lat="45.73767" lon="4.29726">
        <ele>376.974</ele>
        <time>2012-12-16T08:54:26Z</time>
      </trkpt>
      <trkpt lat="45.73759" lon="4.29737">
        <ele>376.974</ele>
        <time>2012-12-16T08:54:33Z</time>
      </trkpt>
      <trkpt lat="45.73757" lon="4.29742">
        <ele>377.455</ele>
        <time>2012-12-16T08:54:37Z</time>
      </trkpt>
      <trkpt lat="45.73752" lon="4.2976">
        <ele>379.377</ele>
        <time>2012-12-16T08:54:48Z</time>
      </trkpt>
      <trkpt lat="45.73752" lon="4.29765">
        <ele>379.858</ele>
        <time>2012-12-16T08:54:51Z</time>
      </trkpt>
      <trkpt lat="45.73744" lon="4.29784">
        <ele>383.703</ele>
        <time>2012-12-16T08:55:04Z</time>
      </trkpt>
      <trkpt lat="45.7374" lon="4.29791">
        <ele>386.587</ele>
        <time>2012-12-16T08:55:11Z</time>
      </trkpt>
      <trkpt lat="45.73735" lon="4.29804">
        <ele>390.433</ele>
        <time>2012-12-16T08:55:20Z</time>
      </trkpt>
      <trkpt lat="45.73732" lon="4.29808">
        <ele>392.355</ele>
        <time>2012-12-16T08:55:25Z</time>
      </trkpt>
      <trkpt lat="45.73725" lon="4.29823">
        <ele>396.681</ele>
        <time>2012-12-16T08:55:37Z</time>
      </trkpt>
      <trkpt lat="45.73721" lon="4.29838">
        <ele>399.565</ele>
        <time>2012-12-16T08:55:49Z</time>
      </trkpt>
      <trkpt lat="45.73722" lon="4.2984">
        <ele>399.565</ele>
        <time>2012-12-16T08:55:50Z</time>
      </trkpt>
      <trkpt lat="45.73725" lon="4.2985">
        <ele>399.565</ele>
        <time>2012-12-16T08:56:00Z</time>
      </trkpt>
      <trkpt lat="45.7373" lon="4.29857">
        <ele>399.565</ele>
        <time>2012-12-16T08:56:06Z</time>
      </trkpt>
      <trkpt lat="45.73734" lon="4.29859">
        <ele>399.565</ele>
        <time>2012-12-16T08:56:09Z</time>
      </trkpt>
      <trkpt lat="45.73741" lon="4.29865">
        <ele>399.565</ele>
        <time>2012-12-16T08:56:18Z</time>
      </trkpt>
      <trkpt lat="45.73754" lon="4.29875">
        <ele>398.123</ele>
        <time>2012-12-16T08:56:31Z</time>
      </trkpt>
      <trkpt lat="45.73761" lon="4.29884">
        <ele>397.642</ele>
        <time>2012-12-16T08:56:38Z</time>
      </trkpt>
      <trkpt lat="45.73764" lon="4.29886">
        <ele>397.642</ele>
        <time>2012-12-16T08:56:41Z</time>
      </trkpt>
      <trkpt lat="45.73774" lon="4.29896">
        <ele>397.642</ele>
        <time>2012-12-16T08:56:51Z</time>
      </trkpt>
      <trkpt lat="45.73778" lon="4.299">
        <ele>397.642</ele>
        <time>2012-12-16T08:56:55Z</time>
      </trkpt>
      <trkpt lat="45.73783" lon="4.29916">
        <ele>397.162</ele>
        <time>2012-12-16T08:57:05Z</time>
      </trkpt>
      <trkpt lat="45.73785" lon="4.29923">
        <ele>397.162</ele>
        <time>2012-12-16T08:57:09Z</time>
      </trkpt>
      <trkpt lat="45.73788" lon="4.29933">
        <ele>396.201</ele>
        <time>2012-12-16T08:57:16Z</time>
      </trkpt>
      <trkpt lat="45.73793" lon="4.29948">
        <ele>399.084</ele>
        <time>2012-12-16T08:57:26Z</time>
      </trkpt>
      <trkpt lat="45.73794" lon="4.29949">
        <ele>399.565</ele>
        <time>2012-12-16T08:57:27Z</time>
      </trkpt>
      <trkpt lat="45.73796" lon="4.29956">
        <ele>401.007</ele>
        <time>2012-12-16T08:57:31Z</time>
      </trkpt>
      <trkpt lat="45.73803" lon="4.2997">
        <ele>404.372</ele>
        <time>2012-12-16T08:57:41Z</time>
      </trkpt>
      <trkpt lat="45.73807" lon="4.29982">
        <ele>404.372</ele>
        <time>2012-12-16T08:57:50Z</time>
      </trkpt>
      <trkpt lat="45.73807" lon="4.29983">
        <ele>404.372</ele>
        <time>2012-12-16T08:57:51Z</time>
      </trkpt>
      <trkpt lat="45.7381" lon="4.2999">
        <ele>404.852</ele>
        <time>2012-12-16T08:57:56Z</time>
      </trkpt>
      <trkpt lat="45.73813" lon="4.3">
        <ele>405.333</ele>
        <time>2012-12-16T08:58:03Z</time>
      </trkpt>
      <trkpt lat="45.73816" lon="4.30009">
        <ele>405.333</ele>
        <time>2012-12-16T08:58:09Z</time>
      </trkpt>
      <trkpt lat="45.73817" lon="4.30017">
        <ele>405.814</ele>
        <time>2012-12-16T08:58:14Z</time>
      </trkpt>
      <trkpt lat="45.73821" lon="4.30025">
        <ele>406.294</ele>
        <time>2012-12-16T08:58:19Z</time>
      </trkpt>
      <trkpt lat="45.73823" lon="4.30031">
        <ele>406.775</ele>
        <time>2012-12-16T08:58:22Z</time>
      </trkpt>
      <trkpt lat="45.73826" lon="4.30042">
        <ele>406.775</ele>
        <time>2012-12-16T08:58:28Z</time>
      </trkpt>
      <trkpt lat="45.73826" lon="4.30046">
        <ele>406.775</ele>
        <time>2012-12-16T08:58:30Z</time>
      </trkpt>
      <trkpt lat="45.73828" lon="4.30056">
        <ele>407.736</ele>
        <time>2012-12-16T08:58:36Z</time>
      </trkpt>
      <trkpt lat="45.73829" lon="4.30063">
        <ele>408.217</ele>
        <time>2012-12-16T08:58:40Z</time>
      </trkpt>
      <trkpt lat="45.73831" lon="4.30073">
        <ele>409.659</ele>
        <time>2012-12-16T08:58:45Z</time>
      </trkpt>
      <trkpt lat="45.73832" lon="4.30085">
        <ele>412.062</ele>
        <time>2012-12-16T08:58:52Z</time>
      </trkpt>
      <trkpt lat="45.73834" lon="4.3009">
        <ele>413.024</ele>
        <time>2012-12-16T08:58:55Z</time>
      </trkpt>
      <trkpt lat="45.73835" lon="4.30095">
        <ele>415.907</ele>
        <time>2012-12-16T08:58:59Z</time>
      </trkpt>
      <trkpt lat="45.73841" lon="4.30105">
        <ele>419.272</ele>
        <time>2012-12-16T08:59:06Z</time>
      </trkpt>
      <trkpt lat="45.73842" lon="4.30108">
        <ele>420.233</ele>
        <time>2012-12-16T08:59:08Z</time>
      </trkpt>
      <trkpt lat="45.73846" lon="4.30125">
        <ele>424.079</ele>
        <time>2012-12-16T08:59:17Z</time>
      </trkpt>
      <trkpt lat="45.73846" lon="4.30129">
        <ele>424.559</ele>
        <time>2012-12-16T08:59:19Z</time>
      </trkpt>
      <trkpt lat="45.73849" lon="4.30143">
        <ele>426.963</ele>
        <time>2012-12-16T08:59:27Z</time>
      </trkpt>
      <trkpt lat="45.73849" lon="4.30148">
        <ele>427.924</ele>
        <time>2012-12-16T08:59:30Z</time>
      </trkpt>
      <trkpt lat="45.73852" lon="4.30164">
        <ele>429.847</ele>
        <time>2012-12-16T08:59:38Z</time>
      </trkpt>
      <trkpt lat="45.73858" lon="4.30175">
        <ele>432.25</ele>
        <time>2012-12-16T08:59:45Z</time>
      </trkpt>
      <trkpt lat="45.73863" lon="4.30186">
        <ele>435.615</ele>
        <time>2012-12-16T08:59:53Z</time>
      </trkpt>
      <trkpt lat="45.73865" lon="4.30192">
        <ele>436.576</ele>
        <time>2012-12-16T08:59:56Z</time>
      </trkpt>
      <trkpt lat="45.73869" lon="4.30198">
        <ele>438.018</ele>
        <time>2012-12-16T09:00:00Z</time>
      </trkpt>
      <trkpt lat="45.73878" lon="4.30221">
        <ele>440.902</ele>
        <time>2012-12-16T09:00:13Z</time>
      </trkpt>
      <trkpt lat="45.73887" lon="4.30242">
        <ele>442.344</ele>
        <time>2012-12-16T09:00:25Z</time>
      </trkpt>
      <trkpt lat="45.73894" lon="4.30256">
        <ele>443.305</ele>
        <time>2012-12-16T09:00:35Z</time>
      </trkpt>
      <trkpt lat="45.73901" lon="4.30267">
        <ele>443.786</ele>
        <time>2012-12-16T09:00:43Z</time>
      </trkpt>
      <trkpt lat="45.73911" lon="4.3028">
        <ele>443.305</ele>
        <time>2012-12-16T09:00:55Z</time>
      </trkpt>
      <trkpt lat="45.73914" lon="4.30283">
        <ele>443.305</ele>
        <time>2012-12-16T09:00:58Z</time>
      </trkpt>
      <trkpt lat="45.73932" lon="4.30295">
        <ele>446.189</ele>
        <time>2012-12-16T09:01:12Z</time>
      </trkpt>
      <trkpt lat="45.73937" lon="4.30302">
        <ele>447.15</ele>
        <time>2012-12-16T09:01:16Z</time>
      </trkpt>
      <trkpt lat="45.73944" lon="4.30309">
        <ele>448.592</ele>
        <time>2012-12-16T09:01:21Z</time>
      </trkpt>
      <trkpt lat="45.73953" lon="4.30327">
        <ele>449.073</ele>
        <time>2012-12-16T09:01:31Z</time>
      </trkpt>
      <trkpt lat="45.7396" lon="4.30337">
        <ele>449.554</ele>
        <time>2012-12-16T09:01:37Z</time>
      </trkpt>
      <trkpt lat="45.73965" lon="4.30347">
        <ele>450.996</ele>
        <time>2012-12-16T09:01:43Z</time>
      </trkpt>
      <trkpt lat="45.73972" lon="4.30354">
        <ele>451.476</ele>
        <time>2012-12-16T09:01:48Z</time>
      </trkpt>
      <trkpt lat="45.73982" lon="4.30372">
        <ele>455.802</ele>
        <time>2012-12-16T09:01:59Z</time>
      </trkpt>
      <trkpt lat="45.73987" lon="4.30384">
        <ele>457.725</ele>
        <time>2012-12-16T09:02:06Z</time>
      </trkpt>
      <trkpt lat="45.73997" lon="4.30403">
        <ele>460.128</ele>
        <time>2012-12-16T09:02:17Z</time>
      </trkpt>
      <trkpt lat="45.73999" lon="4.3041">
        <ele>460.128</ele>
        <time>2012-12-16T09:02:21Z</time>
      </trkpt>
      <trkpt lat="45.74002" lon="4.30418">
        <ele>460.609</ele>
        <time>2012-12-16T09:02:25Z</time>
      </trkpt>
      <trkpt lat="45.74006" lon="4.30427">
        <ele>461.57</ele>
        <time>2012-12-16T09:02:31Z</time>
      </trkpt>
      <trkpt lat="45.74008" lon="4.30435">
        <ele>462.531</ele>
        <time>2012-12-16T09:02:35Z</time>
      </trkpt>
      <trkpt lat="45.74013" lon="4.30449">
        <ele>465.416</ele>
        <time>2012-12-16T09:02:43Z</time>
      </trkpt>
      <trkpt lat="45.74019" lon="4.30457">
        <ele>467.338</ele>
        <time>2012-12-16T09:02:55Z</time>
      </trkpt>
      <trkpt lat="45.74019" lon="4.30457">
        <ele>467.338</ele>
        <time>2012-12-16T09:02:58Z</time>
      </trkpt>
      <trkpt lat="45.74032" lon="4.30469">
        <ele>468.299</ele>
        <time>2012-12-16T09:03:08Z</time>
      </trkpt>
      <trkpt lat="45.74047" lon="4.30488">
        <ele>470.222</ele>
        <time>2012-12-16T09:03:21Z</time>
      </trkpt>
      <trkpt lat="45.74048" lon="4.30493">
        <ele>470.703</ele>
        <time>2012-12-16T09:03:24Z</time>
      </trkpt>
      <trkpt lat="45.74051" lon="4.30508">
        <ele>470.703</ele>
        <time>2012-12-16T09:03:33Z</time>
      </trkpt>
      <trkpt lat="45.74054" lon="4.30522">
        <ele>469.741</ele>
        <time>2012-12-16T09:03:40Z</time>
      </trkpt>
      <trkpt lat="45.74062" lon="4.30546">
        <ele>470.703</ele>
        <time>2012-12-16T09:03:51Z</time>
      </trkpt>
      <trkpt lat="45.74064" lon="4.30553">
        <ele>471.183</ele>
        <time>2012-12-16T09:03:54Z</time>
      </trkpt>
      <trkpt lat="45.74075" lon="4.30577">
        <ele>473.106</ele>
        <time>2012-12-16T09:04:08Z</time>
      </trkpt>
      <trkpt lat="45.74082" lon="4.30595">
        <ele>475.99</ele>
        <time>2012-12-16T09:04:19Z</time>
      </trkpt>
      <trkpt lat="45.74086" lon="4.30608">
        <ele>478.393</ele>
        <time>2012-12-16T09:04:26Z</time>
      </trkpt>
      <trkpt lat="45.74097" lon="4.30622">
        <ele>479.354</ele>
        <time>2012-12-16T09:04:35Z</time>
      </trkpt>
      <trkpt lat="45.74102" lon="4.30633">
        <ele>480.797</ele>
        <time>2012-12-16T09:04:42Z</time>
      </trkpt>
      <trkpt lat="45.74113" lon="4.30644">
        <ele>481.758</ele>
        <time>2012-12-16T09:04:51Z</time>
      </trkpt>
      <trkpt lat="45.74117" lon="4.3065">
        <ele>481.758</ele>
        <time>2012-12-16T09:04:56Z</time>
      </trkpt>
      <trkpt lat="45.74123" lon="4.30658">
        <ele>481.277</ele>
        <time>2012-12-16T09:05:01Z</time>
      </trkpt>
      <trkpt lat="45.74129" lon="4.30664">
        <ele>481.758</ele>
        <time>2012-12-16T09:05:06Z</time>
      </trkpt>
      <trkpt lat="45.74137" lon="4.30673">
        <ele>484.161</ele>
        <time>2012-12-16T09:05:16Z</time>
      </trkpt>
      <trkpt lat="45.74141" lon="4.30677">
        <ele>484.642</ele>
        <time>2012-12-16T09:05:20Z</time>
      </trkpt>
      <trkpt lat="45.74144" lon="4.30684">
        <ele>486.564</ele>
        <time>2012-12-16T09:05:30Z</time>
      </trkpt>
      <trkpt lat="45.74147" lon="4.30687">
        <ele>486.564</ele>
        <time>2012-12-16T09:05:36Z</time>
      </trkpt>
      <trkpt lat="45.74151" lon="4.30693">
        <ele>487.526</ele>
        <time>2012-12-16T09:05:41Z</time>
      </trkpt>
      <trkpt lat="45.74154" lon="4.30696">
        <ele>487.526</ele>
        <time>2012-12-16T09:05:44Z</time>
      </trkpt>
      <trkpt lat="45.74165" lon="4.30716">
        <ele>487.045</ele>
        <time>2012-12-16T09:05:55Z</time>
      </trkpt>
      <trkpt lat="45.74168" lon="4.30722">
        <ele>487.045</ele>
        <time>2012-12-16T09:05:59Z</time>
      </trkpt>
      <trkpt lat="45.74177" lon="4.30737">
        <ele>488.487</ele>
        <time>2012-12-16T09:06:08Z</time>
      </trkpt>
      <trkpt lat="45.7418" lon="4.30739">
        <ele>488.487</ele>
        <time>2012-12-16T09:06:10Z</time>
      </trkpt>
      <trkpt lat="45.74191" lon="4.30758">
        <ele>491.371</ele>
        <time>2012-12-16T09:06:22Z</time>
      </trkpt>
      <trkpt lat="45.74202" lon="4.30774">
        <ele>492.332</ele>
        <time>2012-12-16T09:06:34Z</time>
      </trkpt>
      <trkpt lat="45.74213" lon="4.30793">
        <ele>491.852</ele>
        <time>2012-12-16T09:06:45Z</time>
      </trkpt>
      <trkpt lat="45.74214" lon="4.30796">
        <ele>491.852</ele>
        <time>2012-12-16T09:06:47Z</time>
      </trkpt>
      <trkpt lat="45.74226" lon="4.30817">
        <ele>491.852</ele>
        <time>2012-12-16T09:06:59Z</time>
      </trkpt>
      <trkpt lat="45.74231" lon="4.30827">
        <ele>491.371</ele>
        <time>2012-12-16T09:07:05Z</time>
      </trkpt>
      <trkpt lat="45.74243" lon="4.30853">
        <ele>492.813</ele>
        <time>2012-12-16T09:07:20Z</time>
      </trkpt>
      <trkpt lat="45.7425" lon="4.3087">
        <ele>494.255</ele>
        <time>2012-12-16T09:07:30Z</time>
      </trkpt>
      <trkpt lat="45.74251" lon="4.30876">
        <ele>495.216</ele>
        <time>2012-12-16T09:07:34Z</time>
      </trkpt>
      <trkpt lat="45.74257" lon="4.30892">
        <ele>496.178</ele>
        <time>2012-12-16T09:07:44Z</time>
      </trkpt>
      <trkpt lat="45.74259" lon="4.30901">
        <ele>496.178</ele>
        <time>2012-12-16T09:07:49Z</time>
      </trkpt>
      <trkpt lat="45.74266" lon="4.30921">
        <ele>495.697</ele>
        <time>2012-12-16T09:08:00Z</time>
      </trkpt>
      <trkpt lat="45.74275" lon="4.30939">
        <ele>497.62</ele>
        <time>2012-12-16T09:08:11Z</time>
      </trkpt>
      <trkpt lat="45.74276" lon="4.30944">
        <ele>497.62</ele>
        <time>2012-12-16T09:08:14Z</time>
      </trkpt>
      <trkpt lat="45.74282" lon="4.30952">
        <ele>497.62</ele>
        <time>2012-12-16T09:08:19Z</time>
      </trkpt>
      <trkpt lat="45.74292" lon="4.30971">
        <ele>500.504</ele>
        <time>2012-12-16T09:08:32Z</time>
      </trkpt>
      <trkpt lat="45.74294" lon="4.30976">
        <ele>501.946</ele>
        <time>2012-12-16T09:08:35Z</time>
      </trkpt>
      <trkpt lat="45.74306" lon="4.30993">
        <ele>503.387</ele>
        <time>2012-12-16T09:08:47Z</time>
      </trkpt>
      <trkpt lat="45.74322" lon="4.31001">
        <ele>502.907</ele>
        <time>2012-12-16T09:08:59Z</time>
      </trkpt>
      <trkpt lat="45.74325" lon="4.31001">
        <ele>503.387</ele>
        <time>2012-12-16T09:09:01Z</time>
      </trkpt>
      <trkpt lat="45.74327" lon="4.31002">
        <ele>503.868</ele>
        <time>2012-12-16T09:09:04Z</time>
      </trkpt>
      <trkpt lat="45.74332" lon="4.31005">
        <ele>504.349</ele>
        <time>2012-12-16T09:09:09Z</time>
      </trkpt>
      <trkpt lat="45.74342" lon="4.31005">
        <ele>505.31</ele>
        <time>2012-12-16T09:09:18Z</time>
      </trkpt>
      <trkpt lat="45.74348" lon="4.31005">
        <ele>505.31</ele>
        <time>2012-12-16T09:09:22Z</time>
      </trkpt>
      <trkpt lat="45.74356" lon="4.31003">
        <ele>505.31</ele>
        <time>2012-12-16T09:09:28Z</time>
      </trkpt>
      <trkpt lat="45.74376" lon="4.31002">
        <ele>506.271</ele>
        <time>2012-12-16T09:09:43Z</time>
      </trkpt>
      <trkpt lat="45.74382" lon="4.31">
        <ele>506.271</ele>
        <time>2012-12-16T09:09:47Z</time>
      </trkpt>
      <trkpt lat="45.74389" lon="4.31001">
        <ele>506.752</ele>
        <time>2012-12-16T09:09:52Z</time>
      </trkpt>
      <trkpt lat="45.74409" lon="4.30998">
        <ele>506.752</ele>
        <time>2012-12-16T09:10:05Z</time>
      </trkpt>
      <trkpt lat="45.74429" lon="4.30995">
        <ele>507.714</ele>
        <time>2012-12-16T09:10:20Z</time>
      </trkpt>
      <trkpt lat="45.74445" lon="4.30998">
        <ele>507.714</ele>
        <time>2012-12-16T09:10:32Z</time>
      </trkpt>
      <trkpt lat="45.74448" lon="4.31">
        <ele>507.714</ele>
        <time>2012-12-16T09:10:35Z</time>
      </trkpt>
      <trkpt lat="45.74467" lon="4.31008">
        <ele>507.714</ele>
        <time>2012-12-16T09:10:49Z</time>
      </trkpt>
      <trkpt lat="45.74469" lon="4.31011">
        <ele>507.714</ele>
        <time>2012-12-16T09:10:53Z</time>
      </trkpt>
      <trkpt lat="45.74488" lon="4.31015">
        <ele>505.791</ele>
        <time>2012-12-16T09:11:06Z</time>
      </trkpt>
      <trkpt lat="45.7449" lon="4.31015">
        <ele>506.271</ele>
        <time>2012-12-16T09:11:08Z</time>
      </trkpt>
      <trkpt lat="45.74494" lon="4.31016">
        <ele>506.752</ele>
        <time>2012-12-16T09:11:11Z</time>
      </trkpt>
      <trkpt lat="45.74498" lon="4.31014">
        <ele>508.194</ele>
        <time>2012-12-16T09:11:22Z</time>
      </trkpt>
      <trkpt lat="45.74498" lon="4.31015">
        <ele>508.675</ele>
        <time>2012-12-16T09:11:24Z</time>
      </trkpt>
      <trkpt lat="45.74499" lon="4.31013">
        <ele>509.155</ele>
        <time>2012-12-16T09:11:26Z</time>
      </trkpt>
      <trkpt lat="45.74508" lon="4.30997">
        <ele>511.078</ele>
        <time>2012-12-16T09:11:36Z</time>
      </trkpt>
      <trkpt lat="45.74515" lon="4.30991">
        <ele>511.078</ele>
        <time>2012-12-16T09:11:44Z</time>
      </trkpt>
      <trkpt lat="45.74528" lon="4.3098">
        <ele>511.559</ele>
        <time>2012-12-16T09:11:56Z</time>
      </trkpt>
      <trkpt lat="45.74532" lon="4.30977">
        <ele>513.001</ele>
        <time>2012-12-16T09:12:00Z</time>
      </trkpt>
      <trkpt lat="45.74544" lon="4.3097">
        <ele>515.404</ele>
        <time>2012-12-16T09:12:11Z</time>
      </trkpt>
      <trkpt lat="45.74547" lon="4.30966">
        <ele>516.365</ele>
        <time>2012-12-16T09:12:15Z</time>
      </trkpt>
      <trkpt lat="45.74548" lon="4.30959">
        <ele>516.846</ele>
        <time>2012-12-16T09:12:19Z</time>
      </trkpt>
      <trkpt lat="45.74547" lon="4.30956">
        <ele>516.846</ele>
        <time>2012-12-16T09:12:21Z</time>
      </trkpt>
      <trkpt lat="45.74549" lon="4.30939">
        <ele>518.769</ele>
        <time>2012-12-16T09:12:31Z</time>
      </trkpt>
      <trkpt lat="45.7455" lon="4.30929">
        <ele>519.73</ele>
        <time>2012-12-16T09:12:43Z</time>
      </trkpt>
      <trkpt lat="45.74552" lon="4.30921">
        <ele>520.211</ele>
        <time>2012-12-16T09:12:51Z</time>
      </trkpt>
      <trkpt lat="45.74558" lon="4.30902">
        <ele>521.172</ele>
        <time>2012-12-16T09:13:03Z</time>
      </trkpt>
      <trkpt lat="45.74559" lon="4.30891">
        <ele>522.614</ele>
        <time>2012-12-16T09:13:13Z</time>
      </trkpt>
      <trkpt lat="45.74563" lon="4.30883">
        <ele>523.095</ele>
        <time>2012-12-16T09:13:26Z</time>
      </trkpt>
      <trkpt lat="45.74563" lon="4.30885">
        <ele>523.095</ele>
        <time>2012-12-16T09:14:08Z</time>
      </trkpt>
      <trkpt lat="45.74562" lon="4.30884">
        <ele>523.575</ele>
        <time>2012-12-16T09:14:21Z</time>
      </trkpt>
      <trkpt lat="45.74562" lon="4.30886">
        <ele>524.056</ele>
        <time>2012-12-16T09:14:55Z</time>
      </trkpt>
      <trkpt lat="45.74562" lon="4.30886">
        <ele>524.056</ele>
        <time>2012-12-16T09:15:04Z</time>
      </trkpt>
      <trkpt lat="45.74557" lon="4.30901">
        <ele>526.459</ele>
        <time>2012-12-16T09:15:14Z</time>
      </trkpt>
      <trkpt lat="45.74555" lon="4.30917">
        <ele>529.343</ele>
        <time>2012-12-16T09:15:27Z</time>
      </trkpt>
      <trkpt lat="45.74554" lon="4.30921">
        <ele>529.824</ele>
        <time>2012-12-16T09:15:31Z</time>
      </trkpt>
      <trkpt lat="45.7455" lon="4.30923">
        <ele>529.343</ele>
        <time>2012-12-16T09:15:34Z</time>
      </trkpt>
      <trkpt lat="45.74545" lon="4.30939">
        <ele>530.304</ele>
        <time>2012-12-16T09:15:44Z</time>
      </trkpt>
      <trkpt lat="45.74547" lon="4.30944">
        <ele>530.304</ele>
        <time>2012-12-16T09:15:48Z</time>
      </trkpt>
      <trkpt lat="45.74547" lon="4.30948">
        <ele>530.304</ele>
        <time>2012-12-16T09:15:51Z</time>
      </trkpt>
      <trkpt lat="45.74557" lon="4.3095">
        <ele>529.343</ele>
        <time>2012-12-16T09:15:58Z</time>
      </trkpt>
      <trkpt lat="45.74569" lon="4.30953">
        <ele>527.901</ele>
        <time>2012-12-16T09:16:08Z</time>
      </trkpt>
      <trkpt lat="45.74576" lon="4.30961">
        <ele>526.94</ele>
        <time>2012-12-16T09:16:15Z</time>
      </trkpt>
      <trkpt lat="45.74579" lon="4.30964">
        <ele>526.459</ele>
        <time>2012-12-16T09:16:17Z</time>
      </trkpt>
      <trkpt lat="45.74584" lon="4.30975">
        <ele>525.978</ele>
        <time>2012-12-16T09:16:24Z</time>
      </trkpt>
      <trkpt lat="45.74593" lon="4.30988">
        <ele>524.056</ele>
        <time>2012-12-16T09:16:34Z</time>
      </trkpt>
      <trkpt lat="45.74593" lon="4.3099">
        <ele>523.575</ele>
        <time>2012-12-16T09:16:37Z</time>
      </trkpt>
      <trkpt lat="45.7459" lon="4.30994">
        <ele>523.095</ele>
        <time>2012-12-16T09:16:41Z</time>
      </trkpt>
      <trkpt lat="45.74584" lon="4.30998">
        <ele>523.095</ele>
        <time>2012-12-16T09:16:45Z</time>
      </trkpt>
      <trkpt lat="45.74565" lon="4.31011">
        <ele>524.056</ele>
        <time>2012-12-16T09:16:58Z</time>
      </trkpt>
      <trkpt lat="45.74556" lon="4.31026">
        <ele>527.42</ele>
        <time>2012-12-16T09:17:08Z</time>
      </trkpt>
      <trkpt lat="45.74551" lon="4.31048">
        <ele>528.382</ele>
        <time>2012-12-16T09:17:19Z</time>
      </trkpt>
      <trkpt lat="45.74551" lon="4.31049">
        <ele>528.382</ele>
        <time>2012-12-16T09:17:20Z</time>
      </trkpt>
      <trkpt lat="45.74552" lon="4.31062">
        <ele>528.382</ele>
        <time>2012-12-16T09:17:29Z</time>
      </trkpt>
      <trkpt lat="45.7455" lon="4.31069">
        <ele>526.94</ele>
        <time>2012-12-16T09:17:34Z</time>
      </trkpt>
      <trkpt lat="45.74543" lon="4.31082">
        <ele>526.94</ele>
        <time>2012-12-16T09:17:41Z</time>
      </trkpt>
      <trkpt lat="45.74539" lon="4.31106">
        <ele>525.978</ele>
        <time>2012-12-16T09:17:54Z</time>
      </trkpt>
      <trkpt lat="45.74538" lon="4.31114">
        <ele>525.017</ele>
        <time>2012-12-16T09:17:58Z</time>
      </trkpt>
      <trkpt lat="45.74539" lon="4.31121">
        <ele>523.575</ele>
        <time>2012-12-16T09:18:02Z</time>
      </trkpt>
      <trkpt lat="45.74539" lon="4.31132">
        <ele>521.653</ele>
        <time>2012-12-16T09:18:08Z</time>
      </trkpt>
      <trkpt lat="45.74538" lon="4.31141">
        <ele>521.172</ele>
        <time>2012-12-16T09:18:13Z</time>
      </trkpt>
      <trkpt lat="45.74535" lon="4.31167">
        <ele>520.691</ele>
        <time>2012-12-16T09:18:27Z</time>
      </trkpt>
      <trkpt lat="45.74535" lon="4.31174">
        <ele>520.691</ele>
        <time>2012-12-16T09:18:30Z</time>
      </trkpt>
      <trkpt lat="45.74534" lon="4.31179">
        <ele>520.691</ele>
        <time>2012-12-16T09:18:33Z</time>
      </trkpt>
      <trkpt lat="45.74532" lon="4.31205">
        <ele>520.211</ele>
        <time>2012-12-16T09:18:46Z</time>
      </trkpt>
      <trkpt lat="45.74531" lon="4.31211">
        <ele>520.211</ele>
        <time>2012-12-16T09:18:49Z</time>
      </trkpt>
      <trkpt lat="45.74529" lon="4.31232">
        <ele>519.249</ele>
        <time>2012-12-16T09:18:58Z</time>
      </trkpt>
      <trkpt lat="45.74527" lon="4.3124">
        <ele>517.807</ele>
        <time>2012-12-16T09:19:02Z</time>
      </trkpt>
      <trkpt lat="45.74531" lon="4.31249">
        <ele>516.846</ele>
        <time>2012-12-16T09:19:07Z</time>
      </trkpt>
      <trkpt lat="45.74535" lon="4.31251">
        <ele>517.327</ele>
        <time>2012-12-16T09:19:10Z</time>
      </trkpt>
      <trkpt lat="45.74548" lon="4.31259">
        <ele>516.846</ele>
        <time>2012-12-16T09:19:19Z</time>
      </trkpt>
      <trkpt lat="45.74571" lon="4.31276">
        <ele>518.769</ele>
        <time>2012-12-16T09:19:36Z</time>
      </trkpt>
      <trkpt lat="45.74573" lon="4.31277">
        <ele>518.288</ele>
        <time>2012-12-16T09:19:37Z</time>
      </trkpt>
      <trkpt lat="45.74589" lon="4.31284">
        <ele>516.846</ele>
        <time>2012-12-16T09:19:49Z</time>
      </trkpt>
      <trkpt lat="45.74595" lon="4.31286">
        <ele>515.404</ele>
        <time>2012-12-16T09:19:53Z</time>
      </trkpt>
      <trkpt lat="45.74609" lon="4.31289">
        <ele>513.962</ele>
        <time>2012-12-16T09:20:01Z</time>
      </trkpt>
      <trkpt lat="45.74612" lon="4.31293">
        <ele>513.481</ele>
        <time>2012-12-16T09:20:05Z</time>
      </trkpt>
      <trkpt lat="45.74632" lon="4.31296">
        <ele>510.117</ele>
        <time>2012-12-16T09:20:17Z</time>
      </trkpt>
      <trkpt lat="45.74648" lon="4.313">
        <ele>507.714</ele>
        <time>2012-12-16T09:20:28Z</time>
      </trkpt>
      <trkpt lat="45.74661" lon="4.31304">
        <ele>505.31</ele>
        <time>2012-12-16T09:20:38Z</time>
      </trkpt>
      <trkpt lat="45.74672" lon="4.31311">
        <ele>503.868</ele>
        <time>2012-12-16T09:20:46Z</time>
      </trkpt>
      <trkpt lat="45.74691" lon="4.31319">
        <ele>503.387</ele>
        <time>2012-12-16T09:21:00Z</time>
      </trkpt>
      <trkpt lat="45.74703" lon="4.31326">
        <ele>502.907</ele>
        <time>2012-12-16T09:21:11Z</time>
      </trkpt>
      <trkpt lat="45.74715" lon="4.31336">
        <ele>501.465</ele>
        <time>2012-12-16T09:21:21Z</time>
      </trkpt>
      <trkpt lat="45.74723" lon="4.31344">
        <ele>498.581</ele>
        <time>2012-12-16T09:21:30Z</time>
      </trkpt>
      <trkpt lat="45.74734" lon="4.31359">
        <ele>493.774</ele>
        <time>2012-12-16T09:21:44Z</time>
      </trkpt>
      <trkpt lat="45.74737" lon="4.31363">
        <ele>492.332</ele>
        <time>2012-12-16T09:21:49Z</time>
      </trkpt>
      <trkpt lat="45.74749" lon="4.31368">
        <ele>490.89</ele>
        <time>2012-12-16T09:21:59Z</time>
      </trkpt>
      <trkpt lat="45.7476" lon="4.31369">
        <ele>489.929</ele>
        <time>2012-12-16T09:22:06Z</time>
      </trkpt>
      <trkpt lat="45.74776" lon="4.3137">
        <ele>489.448</ele>
        <time>2012-12-16T09:22:17Z</time>
      </trkpt>
      <trkpt lat="45.74779" lon="4.31368">
        <ele>489.448</ele>
        <time>2012-12-16T09:22:20Z</time>
      </trkpt>
      <trkpt lat="45.74784" lon="4.31368">
        <ele>489.448</ele>
        <time>2012-12-16T09:22:33Z</time>
      </trkpt>
      <trkpt lat="45.74787" lon="4.31367">
        <ele>489.448</ele>
        <time>2012-12-16T09:22:38Z</time>
      </trkpt>
      <trkpt lat="45.74802" lon="4.31366">
        <ele>489.448</ele>
        <time>2012-12-16T09:22:50Z</time>
      </trkpt>
      <trkpt lat="45.74804" lon="4.31365">
        <ele>488.968</ele>
        <time>2012-12-16T09:22:52Z</time>
      </trkpt>
      <trkpt lat="45.74812" lon="4.31364">
        <ele>488.006</ele>
        <time>2012-12-16T09:22:58Z</time>
      </trkpt>
      <trkpt lat="45.74829" lon="4.31358">
        <ele>487.526</ele>
        <time>2012-12-16T09:23:11Z</time>
      </trkpt>
      <trkpt lat="45.74837" lon="4.31351">
        <ele>486.084</ele>
        <time>2012-12-16T09:23:22Z</time>
      </trkpt>
      <trkpt lat="45.74852" lon="4.31347">
        <ele>485.122</ele>
        <time>2012-12-16T09:23:34Z</time>
      </trkpt>
      <trkpt lat="45.74868" lon="4.31341">
        <ele>483.68</ele>
        <time>2012-12-16T09:23:46Z</time>
      </trkpt>
      <trkpt lat="45.74877" lon="4.31335">
        <ele>482.719</ele>
        <time>2012-12-16T09:23:54Z</time>
      </trkpt>
      <trkpt lat="45.74886" lon="4.31331">
        <ele>482.719</ele>
        <time>2012-12-16T09:24:01Z</time>
      </trkpt>
      <trkpt lat="45.74896" lon="4.31322">
        <ele>480.797</ele>
        <time>2012-12-16T09:24:10Z</time>
      </trkpt>
      <trkpt lat="45.74904" lon="4.31317">
        <ele>480.797</ele>
        <time>2012-12-16T09:24:16Z</time>
      </trkpt>
      <trkpt lat="45.74915" lon="4.3131">
        <ele>480.316</ele>
        <time>2012-12-16T09:24:27Z</time>
      </trkpt>
      <trkpt lat="45.74919" lon="4.3131">
        <ele>479.835</ele>
        <time>2012-12-16T09:24:29Z</time>
      </trkpt>
      <trkpt lat="45.74938" lon="4.31297">
        <ele>475.029</ele>
        <time>2012-12-16T09:24:44Z</time>
      </trkpt>
      <trkpt lat="45.74953" lon="4.31285">
        <ele>473.106</ele>
        <time>2012-12-16T09:24:57Z</time>
      </trkpt>
      <trkpt lat="45.74957" lon="4.31284">
        <ele>472.625</ele>
        <time>2012-12-16T09:25:00Z</time>
      </trkpt>
      <trkpt lat="45.74973" lon="4.3127">
        <ele>470.222</ele>
        <time>2012-12-16T09:25:14Z</time>
      </trkpt>
      <trkpt lat="45.74975" lon="4.31268">
        <ele>469.741</ele>
        <time>2012-12-16T09:25:16Z</time>
      </trkpt>
      <trkpt lat="45.74986" lon="4.31248">
        <ele>466.857</ele>
        <time>2012-12-16T09:25:30Z</time>
      </trkpt>
      <trkpt lat="45.74986" lon="4.31243">
        <ele>466.377</ele>
        <time>2012-12-16T09:25:33Z</time>
      </trkpt>
      <trkpt lat="45.7499" lon="4.31235">
        <ele>464.935</ele>
        <time>2012-12-16T09:25:40Z</time>
      </trkpt>
      <trkpt lat="45.74995" lon="4.31236">
        <ele>464.454</ele>
        <time>2012-12-16T09:25:44Z</time>
      </trkpt>
      <trkpt lat="45.74996" lon="4.31238">
        <ele>463.973</ele>
        <time>2012-12-16T09:25:46Z</time>
      </trkpt>
      <trkpt lat="45.75003" lon="4.31242">
        <ele>462.051</ele>
        <time>2012-12-16T09:25:53Z</time>
      </trkpt>
      <trkpt lat="45.75015" lon="4.31248">
        <ele>458.206</ele>
        <time>2012-12-16T09:26:03Z</time>
      </trkpt>
      <trkpt lat="45.75021" lon="4.3125">
        <ele>456.283</ele>
        <time>2012-12-16T09:26:09Z</time>
      </trkpt>
      <trkpt lat="45.75035" lon="4.31261">
        <ele>453.399</ele>
        <time>2012-12-16T09:26:21Z</time>
      </trkpt>
      <trkpt lat="45.75036" lon="4.31262">
        <ele>453.399</ele>
        <time>2012-12-16T09:26:22Z</time>
      </trkpt>
      <trkpt lat="45.75049" lon="4.3127">
        <ele>451.476</ele>
        <time>2012-12-16T09:26:32Z</time>
      </trkpt>
      <trkpt lat="45.75057" lon="4.31276">
        <ele>451.957</ele>
        <time>2012-12-16T09:26:39Z</time>
      </trkpt>
      <trkpt lat="45.75061" lon="4.31282">
        <ele>450.996</ele>
        <time>2012-12-16T09:26:43Z</time>
      </trkpt>
      <trkpt lat="45.75071" lon="4.3129">
        <ele>450.515</ele>
        <time>2012-12-16T09:26:50Z</time>
      </trkpt>
      <trkpt lat="45.75082" lon="4.31303">
        <ele>451.476</ele>
        <time>2012-12-16T09:26:59Z</time>
      </trkpt>
      <trkpt lat="45.75088" lon="4.31308">
        <ele>451.476</ele>
        <time>2012-12-16T09:27:04Z</time>
      </trkpt>
      <trkpt lat="45.75092" lon="4.31316">
        <ele>451.476</ele>
        <time>2012-12-16T09:27:09Z</time>
      </trkpt>
      <trkpt lat="45.75103" lon="4.31327">
        <ele>450.515</ele>
        <time>2012-12-16T09:27:18Z</time>
      </trkpt>
      <trkpt lat="45.75114" lon="4.31343">
        <ele>449.554</ele>
        <time>2012-12-16T09:27:29Z</time>
      </trkpt>
      <trkpt lat="45.75115" lon="4.31346">
        <ele>449.073</ele>
        <time>2012-12-16T09:27:31Z</time>
      </trkpt>
      <trkpt lat="45.75122" lon="4.31356">
        <ele>447.631</ele>
        <time>2012-12-16T09:27:38Z</time>
      </trkpt>
      <trkpt lat="45.75133" lon="4.31368">
        <ele>447.631</ele>
        <time>2012-12-16T09:27:49Z</time>
      </trkpt>
      <trkpt lat="45.75134" lon="4.31369">
        <ele>447.631</ele>
        <time>2012-12-16T09:27:50Z</time>
      </trkpt>
      <trkpt lat="45.75147" lon="4.31383">
        <ele>449.554</ele>
        <time>2012-12-16T09:28:02Z</time>
      </trkpt>
      <trkpt lat="45.75156" lon="4.31389">
        <ele>449.554</ele>
        <time>2012-12-16T09:28:10Z</time>
      </trkpt>
      <trkpt lat="45.7516" lon="4.31392">
        <ele>449.554</ele>
        <time>2012-12-16T09:28:13Z</time>
      </trkpt>
      <trkpt lat="45.75171" lon="4.31397">
        <ele>449.554</ele>
        <time>2012-12-16T09:28:22Z</time>
      </trkpt>
      <trkpt lat="45.75181" lon="4.31405">
        <ele>450.515</ele>
        <time>2012-12-16T09:28:30Z</time>
      </trkpt>
      <trkpt lat="45.75185" lon="4.3141">
        <ele>450.996</ele>
        <time>2012-12-16T09:28:34Z</time>
      </trkpt>
      <trkpt lat="45.75191" lon="4.31411">
        <ele>451.957</ele>
        <time>2012-12-16T09:28:39Z</time>
      </trkpt>
      <trkpt lat="45.75205" lon="4.31418">
        <ele>453.399</ele>
        <time>2012-12-16T09:28:49Z</time>
      </trkpt>
      <trkpt lat="45.7521" lon="4.31422">
        <ele>454.36</ele>
        <time>2012-12-16T09:28:54Z</time>
      </trkpt>
      <trkpt lat="45.75222" lon="4.3143">
        <ele>455.802</ele>
        <time>2012-12-16T09:29:05Z</time>
      </trkpt>
      <trkpt lat="45.75226" lon="4.31435">
        <ele>455.802</ele>
        <time>2012-12-16T09:29:09Z</time>
      </trkpt>
      <trkpt lat="45.75231" lon="4.31441">
        <ele>454.841</ele>
        <time>2012-12-16T09:29:15Z</time>
      </trkpt>
      <trkpt lat="45.75233" lon="4.31444">
        <ele>454.36</ele>
        <time>2012-12-16T09:29:18Z</time>
      </trkpt>
      <trkpt lat="45.7524" lon="4.31452">
        <ele>450.996</ele>
        <time>2012-12-16T09:29:28Z</time>
      </trkpt>
      <trkpt lat="45.75249" lon="4.31461">
        <ele>447.631</ele>
        <time>2012-12-16T09:29:39Z</time>
      </trkpt>
      <trkpt lat="45.7525" lon="4.31462">
        <ele>446.67</ele>
        <time>2012-12-16T09:29:41Z</time>
      </trkpt>
      <trkpt lat="45.75255" lon="4.31467">
        <ele>445.228</ele>
        <time>2012-12-16T09:29:45Z</time>
      </trkpt>
      <trkpt lat="45.75273" lon="4.31488">
        <ele>438.979</ele>
        <time>2012-12-16T09:30:03Z</time>
      </trkpt>
      <trkpt lat="45.75303" lon="4.31505">
        <ele>454.841</ele>
        <time>2012-12-16T09:30:14Z</time>
      </trkpt>
      <trkpt lat="45.75306" lon="4.31508">
        <ele>456.283</ele>
        <time>2012-12-16T09:30:17Z</time>
      </trkpt>
      <trkpt lat="45.75309" lon="4.31524">
        <ele>458.206</ele>
        <time>2012-12-16T09:30:26Z</time>
      </trkpt>
      <trkpt lat="45.75309" lon="4.31534">
        <ele>457.725</ele>
        <time>2012-12-16T09:30:32Z</time>
      </trkpt>
      <trkpt lat="45.75312" lon="4.31545">
        <ele>458.206</ele>
        <time>2012-12-16T09:30:39Z</time>
      </trkpt>
      <trkpt lat="45.75313" lon="4.31554">
        <ele>457.725</ele>
        <time>2012-12-16T09:30:43Z</time>
      </trkpt>
      <trkpt lat="45.75314" lon="4.31559">
        <ele>457.725</ele>
        <time>2012-12-16T09:30:46Z</time>
      </trkpt>
      <trkpt lat="45.75317" lon="4.31573">
        <ele>458.206</ele>
        <time>2012-12-16T09:30:54Z</time>
      </trkpt>
      <trkpt lat="45.75319" lon="4.31586">
        <ele>459.648</ele>
        <time>2012-12-16T09:31:02Z</time>
      </trkpt>
      <trkpt lat="45.7532" lon="4.31591">
        <ele>460.609</ele>
        <time>2012-12-16T09:31:06Z</time>
      </trkpt>
      <trkpt lat="45.75324" lon="4.31604">
        <ele>461.57</ele>
        <time>2012-12-16T09:31:14Z</time>
      </trkpt>
      <trkpt lat="45.75331" lon="4.31626">
        <ele>462.051</ele>
        <time>2012-12-16T09:31:26Z</time>
      </trkpt>
      <trkpt lat="45.75332" lon="4.31629">
        <ele>462.051</ele>
        <time>2012-12-16T09:31:28Z</time>
      </trkpt>
      <trkpt lat="45.75336" lon="4.31638">
        <ele>461.57</ele>
        <time>2012-12-16T09:31:33Z</time>
      </trkpt>
      <trkpt lat="45.75342" lon="4.31651">
        <ele>460.609</ele>
        <time>2012-12-16T09:31:42Z</time>
      </trkpt>
      <trkpt lat="45.75343" lon="4.31661">
        <ele>461.089</ele>
        <time>2012-12-16T09:31:47Z</time>
      </trkpt>
      <trkpt lat="45.7535" lon="4.31678">
        <ele>461.089</ele>
        <time>2012-12-16T09:31:57Z</time>
      </trkpt>
      <trkpt lat="45.75357" lon="4.31689">
        <ele>463.973</ele>
        <time>2012-12-16T09:32:06Z</time>
      </trkpt>
      <trkpt lat="45.7536" lon="4.3169">
        <ele>464.454</ele>
        <time>2012-12-16T09:32:09Z</time>
      </trkpt>
      <trkpt lat="45.75365" lon="4.31692">
        <ele>465.416</ele>
        <time>2012-12-16T09:32:18Z</time>
      </trkpt>
      <trkpt lat="45.75375" lon="4.31695">
        <ele>463.012</ele>
        <time>2012-12-16T09:32:30Z</time>
      </trkpt>
      <trkpt lat="45.75378" lon="4.31697">
        <ele>461.57</ele>
        <time>2012-12-16T09:32:34Z</time>
      </trkpt>
      <trkpt lat="45.7538" lon="4.31699">
        <ele>461.089</ele>
        <time>2012-12-16T09:32:36Z</time>
      </trkpt>
      <trkpt lat="45.75384" lon="4.31701">
        <ele>461.57</ele>
        <time>2012-12-16T09:32:39Z</time>
      </trkpt>
      <trkpt lat="45.75388" lon="4.31708">
        <ele>462.051</ele>
        <time>2012-12-16T09:32:52Z</time>
      </trkpt>
      <trkpt lat="45.75387" lon="4.31712">
        <ele>463.493</ele>
        <time>2012-12-16T09:33:02Z</time>
      </trkpt>
      <trkpt lat="45.75394" lon="4.31718">
        <ele>463.973</ele>
        <time>2012-12-16T09:33:11Z</time>
      </trkpt>
      <trkpt lat="45.75398" lon="4.31712">
        <ele>464.454</ele>
        <time>2012-12-16T09:33:16Z</time>
      </trkpt>
      <trkpt lat="45.75399" lon="4.31709">
        <ele>464.935</ele>
        <time>2012-12-16T09:33:18Z</time>
      </trkpt>
      <trkpt lat="45.75407" lon="4.31698">
        <ele>465.416</ele>
        <time>2012-12-16T09:33:28Z</time>
      </trkpt>
      <trkpt lat="45.75409" lon="4.31695">
        <ele>465.896</ele>
        <time>2012-12-16T09:33:45Z</time>
      </trkpt>
      <trkpt lat="45.75422" lon="4.31683">
        <ele>468.299</ele>
        <time>2012-12-16T09:33:59Z</time>
      </trkpt>
      <trkpt lat="45.75429" lon="4.31665">
        <ele>469.741</ele>
        <time>2012-12-16T09:34:10Z</time>
      </trkpt>
      <trkpt lat="45.75429" lon="4.31661">
        <ele>469.741</ele>
        <time>2012-12-16T09:34:12Z</time>
      </trkpt>
      <trkpt lat="45.7543" lon="4.31657">
        <ele>469.261</ele>
        <time>2012-12-16T09:34:15Z</time>
      </trkpt>
      <trkpt lat="45.7543" lon="4.31652">
        <ele>468.78</ele>
        <time>2012-12-16T09:34:25Z</time>
      </trkpt>
      <trkpt lat="45.75431" lon="4.3165">
        <ele>468.78</ele>
        <time>2012-12-16T09:34:27Z</time>
      </trkpt>
      <trkpt lat="45.7542" lon="4.31627">
        <ele>466.377</ele>
        <time>2012-12-16T09:34:39Z</time>
      </trkpt>
      <trkpt lat="45.75418" lon="4.31621">
        <ele>465.896</ele>
        <time>2012-12-16T09:34:42Z</time>
      </trkpt>
      <trkpt lat="45.75414" lon="4.31612">
        <ele>465.416</ele>
        <time>2012-12-16T09:34:47Z</time>
      </trkpt>
      <trkpt lat="45.75402" lon="4.31595">
        <ele>463.012</ele>
        <time>2012-12-16T09:34:57Z</time>
      </trkpt>
      <trkpt lat="45.75398" lon="4.31587">
        <ele>463.012</ele>
        <time>2012-12-16T09:35:02Z</time>
      </trkpt>
      <trkpt lat="45.75397" lon="4.31583">
        <ele>463.012</ele>
        <time>2012-12-16T09:35:04Z</time>
      </trkpt>
      <trkpt lat="45.75392" lon="4.31565">
        <ele>462.051</ele>
        <time>2012-12-16T09:35:13Z</time>
      </trkpt>
      <trkpt lat="45.75388" lon="4.31552">
        <ele>462.051</ele>
        <time>2012-12-16T09:35:22Z</time>
      </trkpt>
      <trkpt lat="45.75397" lon="4.31541">
        <ele>461.57</ele>
        <time>2012-12-16T09:35:31Z</time>
      </trkpt>
      <trkpt lat="45.754" lon="4.31541">
        <ele>461.089</ele>
        <time>2012-12-16T09:35:33Z</time>
      </trkpt>
      <trkpt lat="45.75404" lon="4.31546">
        <ele>462.531</ele>
        <time>2012-12-16T09:35:37Z</time>
      </trkpt>
      <trkpt lat="45.75408" lon="4.31552">
        <ele>463.973</ele>
        <time>2012-12-16T09:35:40Z</time>
      </trkpt>
      <trkpt lat="45.75409" lon="4.31556">
        <ele>464.935</ele>
        <time>2012-12-16T09:35:43Z</time>
      </trkpt>
      <trkpt lat="45.75418" lon="4.31575">
        <ele>467.338</ele>
        <time>2012-12-16T09:35:55Z</time>
      </trkpt>
      <trkpt lat="45.75418" lon="4.31576">
        <ele>467.819</ele>
        <time>2012-12-16T09:35:56Z</time>
      </trkpt>
      <trkpt lat="45.75427" lon="4.31591">
        <ele>469.741</ele>
        <time>2012-12-16T09:36:07Z</time>
      </trkpt>
      <trkpt lat="45.75439" lon="4.31605">
        <ele>471.664</ele>
        <time>2012-12-16T09:36:18Z</time>
      </trkpt>
      <trkpt lat="45.75449" lon="4.31619">
        <ele>471.664</ele>
        <time>2012-12-16T09:36:28Z</time>
      </trkpt>
      <trkpt lat="45.75452" lon="4.31624">
        <ele>471.664</ele>
        <time>2012-12-16T09:36:32Z</time>
      </trkpt>
      <trkpt lat="45.75465" lon="4.31639">
        <ele>469.261</ele>
        <time>2012-12-16T09:36:45Z</time>
      </trkpt>
      <trkpt lat="45.75472" lon="4.31641">
        <ele>469.741</ele>
        <time>2012-12-16T09:36:50Z</time>
      </trkpt>
      <trkpt lat="45.75482" lon="4.31641">
        <ele>470.703</ele>
        <time>2012-12-16T09:36:57Z</time>
      </trkpt>
      <trkpt lat="45.75486" lon="4.3164">
        <ele>471.664</ele>
        <time>2012-12-16T09:37:01Z</time>
      </trkpt>
      <trkpt lat="45.75502" lon="4.31635">
        <ele>474.548</ele>
        <time>2012-12-16T09:37:13Z</time>
      </trkpt>
      <trkpt lat="45.7551" lon="4.31629">
        <ele>475.029</ele>
        <time>2012-12-16T09:37:20Z</time>
      </trkpt>
      <trkpt lat="45.75522" lon="4.31627">
        <ele>474.067</ele>
        <time>2012-12-16T09:37:29Z</time>
      </trkpt>
      <trkpt lat="45.75538" lon="4.31622">
        <ele>473.106</ele>
        <time>2012-12-16T09:37:42Z</time>
      </trkpt>
      <trkpt lat="45.75548" lon="4.31619">
        <ele>472.625</ele>
        <time>2012-12-16T09:37:51Z</time>
      </trkpt>
      <trkpt lat="45.75554" lon="4.31617">
        <ele>472.625</ele>
        <time>2012-12-16T09:37:55Z</time>
      </trkpt>
      <trkpt lat="45.75563" lon="4.31609">
        <ele>471.664</ele>
        <time>2012-12-16T09:38:04Z</time>
      </trkpt>
      <trkpt lat="45.75573" lon="4.31605">
        <ele>470.703</ele>
        <time>2012-12-16T09:38:15Z</time>
      </trkpt>
      <trkpt lat="45.75577" lon="4.31604">
        <ele>470.703</ele>
        <time>2012-12-16T09:38:19Z</time>
      </trkpt>
      <trkpt lat="45.75589" lon="4.31604">
        <ele>477.432</ele>
        <time>2012-12-16T09:38:23Z</time>
      </trkpt>
      <trkpt lat="45.75602" lon="4.31603">
        <ele>484.161</ele>
        <time>2012-12-16T09:38:33Z</time>
      </trkpt>
      <trkpt lat="45.75605" lon="4.31603">
        <ele>484.161</ele>
        <time>2012-12-16T09:38:36Z</time>
      </trkpt>
      <trkpt lat="45.75618" lon="4.31605">
        <ele>482.719</ele>
        <time>2012-12-16T09:38:47Z</time>
      </trkpt>
      <trkpt lat="45.75628" lon="4.31609">
        <ele>481.758</ele>
        <time>2012-12-16T09:38:56Z</time>
      </trkpt>
      <trkpt lat="45.75632" lon="4.31609">
        <ele>481.277</ele>
        <time>2012-12-16T09:39:00Z</time>
      </trkpt>
      <trkpt lat="45.75645" lon="4.31611">
        <ele>479.835</ele>
        <time>2012-12-16T09:39:10Z</time>
      </trkpt>
      <trkpt lat="45.75655" lon="4.31613">
        <ele>478.874</ele>
        <time>2012-12-16T09:39:18Z</time>
      </trkpt>
      <trkpt lat="45.75664" lon="4.31616">
        <ele>476.951</ele>
        <time>2012-12-16T09:39:26Z</time>
      </trkpt>
      <trkpt lat="45.75673" lon="4.31622">
        <ele>474.548</ele>
        <time>2012-12-16T09:39:35Z</time>
      </trkpt>
      <trkpt lat="45.75686" lon="4.31627">
        <ele>473.106</ele>
        <time>2012-12-16T09:39:45Z</time>
      </trkpt>
      <trkpt lat="45.75695" lon="4.3163">
        <ele>472.145</ele>
        <time>2012-12-16T09:39:54Z</time>
      </trkpt>
      <trkpt lat="45.75709" lon="4.31635">
        <ele>471.183</ele>
        <time>2012-12-16T09:40:04Z</time>
      </trkpt>
      <trkpt lat="45.75715" lon="4.31639">
        <ele>470.703</ele>
        <time>2012-12-16T09:40:09Z</time>
      </trkpt>
      <trkpt lat="45.7573" lon="4.31645">
        <ele>471.183</ele>
        <time>2012-12-16T09:40:20Z</time>
      </trkpt>
      <trkpt lat="45.75737" lon="4.31648">
        <ele>470.703</ele>
        <time>2012-12-16T09:40:25Z</time>
      </trkpt>
      <trkpt lat="45.75751" lon="4.31658">
        <ele>466.377</ele>
        <time>2012-12-16T09:40:38Z</time>
      </trkpt>
      <trkpt lat="45.75759" lon="4.31665">
        <ele>463.012</ele>
        <time>2012-12-16T09:40:46Z</time>
      </trkpt>
      <trkpt lat="45.75763" lon="4.31667">
        <ele>462.531</ele>
        <time>2012-12-16T09:40:48Z</time>
      </trkpt>
      <trkpt lat="45.75767" lon="4.31667">
        <ele>461.57</ele>
        <time>2012-12-16T09:40:50Z</time>
      </trkpt>
      <trkpt lat="45.75781" lon="4.31658">
        <ele>462.531</ele>
        <time>2012-12-16T09:40:59Z</time>
      </trkpt>
      <trkpt lat="45.75799" lon="4.31645">
        <ele>463.973</ele>
        <time>2012-12-16T09:41:12Z</time>
      </trkpt>
      <trkpt lat="45.75801" lon="4.31643">
        <ele>463.493</ele>
        <time>2012-12-16T09:41:14Z</time>
      </trkpt>
      <trkpt lat="45.75809" lon="4.31638">
        <ele>461.57</ele>
        <time>2012-12-16T09:41:26Z</time>
      </trkpt>
      <trkpt lat="45.75811" lon="4.31637">
        <ele>461.57</ele>
        <time>2012-12-16T09:41:45Z</time>
      </trkpt>
      <trkpt lat="45.75814" lon="4.31638">
        <ele>461.57</ele>
        <time>2012-12-16T09:41:49Z</time>
      </trkpt>
      <trkpt lat="45.75819" lon="4.31645">
        <ele>461.089</ele>
        <time>2012-12-16T09:41:57Z</time>
      </trkpt>
      <trkpt lat="45.75824" lon="4.3165">
        <ele>460.128</ele>
        <time>2012-12-16T09:42:03Z</time>
      </trkpt>
      <trkpt lat="45.75832" lon="4.31664">
        <ele>461.089</ele>
        <time>2012-12-16T09:42:15Z</time>
      </trkpt>
      <trkpt lat="45.75832" lon="4.31666">
        <ele>461.57</ele>
        <time>2012-12-16T09:42:17Z</time>
      </trkpt>
      <trkpt lat="45.75836" lon="4.31676">
        <ele>463.012</ele>
        <time>2012-12-16T09:42:26Z</time>
      </trkpt>
      <trkpt lat="45.75836" lon="4.31678">
        <ele>463.012</ele>
        <time>2012-12-16T09:42:34Z</time>
      </trkpt>
      <trkpt lat="45.75837" lon="4.31686">
        <ele>463.493</ele>
        <time>2012-12-16T09:42:38Z</time>
      </trkpt>
      <trkpt lat="45.75839" lon="4.31693">
        <ele>463.973</ele>
        <time>2012-12-16T09:42:42Z</time>
      </trkpt>
      <trkpt lat="45.75843" lon="4.31706">
        <ele>464.454</ele>
        <time>2012-12-16T09:42:53Z</time>
      </trkpt>
      <trkpt lat="45.75846" lon="4.31711">
        <ele>465.416</ele>
        <time>2012-12-16T09:42:59Z</time>
      </trkpt>
      <trkpt lat="45.75852" lon="4.3172">
        <ele>466.857</ele>
        <time>2012-12-16T09:43:08Z</time>
      </trkpt>
      <trkpt lat="45.75853" lon="4.31723">
        <ele>467.338</ele>
        <time>2012-12-16T09:43:12Z</time>
      </trkpt>
      <trkpt lat="45.75862" lon="4.31739">
        <ele>466.857</ele>
        <time>2012-12-16T09:43:22Z</time>
      </trkpt>
      <trkpt lat="45.75864" lon="4.31742">
        <ele>466.857</ele>
        <time>2012-12-16T09:43:24Z</time>
      </trkpt>
      <trkpt lat="45.75871" lon="4.31753">
        <ele>465.416</ele>
        <time>2012-12-16T09:43:31Z</time>
      </trkpt>
      <trkpt lat="45.75879" lon="4.31764">
        <ele>466.857</ele>
        <time>2012-12-16T09:43:49Z</time>
      </trkpt>
      <trkpt lat="45.75887" lon="4.31773">
        <ele>468.299</ele>
        <time>2012-12-16T09:44:12Z</time>
      </trkpt>
      <trkpt lat="45.75891" lon="4.31777">
        <ele>468.78</ele>
        <time>2012-12-16T09:44:16Z</time>
      </trkpt>
      <trkpt lat="45.759" lon="4.31788">
        <ele>469.261</ele>
        <time>2012-12-16T09:44:26Z</time>
      </trkpt>
      <trkpt lat="45.75901" lon="4.31789">
        <ele>469.261</ele>
        <time>2012-12-16T09:44:27Z</time>
      </trkpt>
      <trkpt lat="45.75903" lon="4.31794">
        <ele>469.261</ele>
        <time>2012-12-16T09:44:30Z</time>
      </trkpt>
      <trkpt lat="45.75906" lon="4.31799">
        <ele>469.261</ele>
        <time>2012-12-16T09:44:33Z</time>
      </trkpt>
      <trkpt lat="45.75909" lon="4.31804">
        <ele>469.261</ele>
        <time>2012-12-16T09:44:36Z</time>
      </trkpt>
      <trkpt lat="45.75921" lon="4.31818">
        <ele>470.222</ele>
        <time>2012-12-16T09:44:48Z</time>
      </trkpt>
      <trkpt lat="45.75924" lon="4.31822">
        <ele>470.703</ele>
        <time>2012-12-16T09:44:51Z</time>
      </trkpt>
      <trkpt lat="45.75933" lon="4.31831">
        <ele>470.703</ele>
        <time>2012-12-16T09:45:03Z</time>
      </trkpt>
      <trkpt lat="45.75934" lon="4.31833">
        <ele>470.703</ele>
        <time>2012-12-16T09:45:06Z</time>
      </trkpt>
      <trkpt lat="45.75942" lon="4.31839">
        <ele>472.625</ele>
        <time>2012-12-16T09:45:15Z</time>
      </trkpt>
      <trkpt lat="45.75945" lon="4.31841">
        <ele>473.106</ele>
        <time>2012-12-16T09:45:18Z</time>
      </trkpt>
      <trkpt lat="45.75952" lon="4.31842">
        <ele>473.106</ele>
        <time>2012-12-16T09:45:23Z</time>
      </trkpt>
      <trkpt lat="45.75966" lon="4.31849">
        <ele>473.106</ele>
        <time>2012-12-16T09:45:33Z</time>
      </trkpt>
      <trkpt lat="45.75968" lon="4.3185">
        <ele>473.587</ele>
        <time>2012-12-16T09:45:35Z</time>
      </trkpt>
      <trkpt lat="45.75974" lon="4.31854">
        <ele>474.548</ele>
        <time>2012-12-16T09:45:40Z</time>
      </trkpt>
      <trkpt lat="45.75981" lon="4.31861">
        <ele>476.471</ele>
        <time>2012-12-16T09:45:49Z</time>
      </trkpt>
      <trkpt lat="45.75987" lon="4.31867">
        <ele>476.951</ele>
        <time>2012-12-16T09:45:57Z</time>
      </trkpt>
      <trkpt lat="45.75999" lon="4.3188">
        <ele>478.393</ele>
        <time>2012-12-16T09:46:08Z</time>
      </trkpt>
      <trkpt lat="45.76006" lon="4.31887">
        <ele>479.835</ele>
        <time>2012-12-16T09:46:16Z</time>
      </trkpt>
      <trkpt lat="45.7602" lon="4.319">
        <ele>480.797</ele>
        <time>2012-12-16T09:46:28Z</time>
      </trkpt>
      <trkpt lat="45.76021" lon="4.31901">
        <ele>480.797</ele>
        <time>2012-12-16T09:46:29Z</time>
      </trkpt>
      <trkpt lat="45.76028" lon="4.3191">
        <ele>480.316</ele>
        <time>2012-12-16T09:46:36Z</time>
      </trkpt>
      <trkpt lat="45.76031" lon="4.31911">
        <ele>479.835</ele>
        <time>2012-12-16T09:46:38Z</time>
      </trkpt>
      <trkpt lat="45.76033" lon="4.31915">
        <ele>479.835</ele>
        <time>2012-12-16T09:46:41Z</time>
      </trkpt>
      <trkpt lat="45.76042" lon="4.31923">
        <ele>479.835</ele>
        <time>2012-12-16T09:46:49Z</time>
      </trkpt>
      <trkpt lat="45.76056" lon="4.31939">
        <ele>479.354</ele>
        <time>2012-12-16T09:47:01Z</time>
      </trkpt>
      <trkpt lat="45.7606" lon="4.31942">
        <ele>479.354</ele>
        <time>2012-12-16T09:47:04Z</time>
      </trkpt>
      <trkpt lat="45.76064" lon="4.31947">
        <ele>478.393</ele>
        <time>2012-12-16T09:47:09Z</time>
      </trkpt>
      <trkpt lat="45.76073" lon="4.31958">
        <ele>478.874</ele>
        <time>2012-12-16T09:47:17Z</time>
      </trkpt>
      <trkpt lat="45.76086" lon="4.31973">
        <ele>481.277</ele>
        <time>2012-12-16T09:47:30Z</time>
      </trkpt>
      <trkpt lat="45.76093" lon="4.3198">
        <ele>482.239</ele>
        <time>2012-12-16T09:47:39Z</time>
      </trkpt>
      <trkpt lat="45.76103" lon="4.31993">
        <ele>482.239</ele>
        <time>2012-12-16T09:47:51Z</time>
      </trkpt>
      <trkpt lat="45.76112" lon="4.31999">
        <ele>481.277</ele>
        <time>2012-12-16T09:47:59Z</time>
      </trkpt>
      <trkpt lat="45.7612" lon="4.32007">
        <ele>480.316</ele>
        <time>2012-12-16T09:48:08Z</time>
      </trkpt>
      <trkpt lat="45.76128" lon="4.32019">
        <ele>480.797</ele>
        <time>2012-12-16T09:48:15Z</time>
      </trkpt>
      <trkpt lat="45.76132" lon="4.32021">
        <ele>481.277</ele>
        <time>2012-12-16T09:48:18Z</time>
      </trkpt>
      <trkpt lat="45.7614" lon="4.3203">
        <ele>483.2</ele>
        <time>2012-12-16T09:48:28Z</time>
      </trkpt>
      <trkpt lat="45.76152" lon="4.32036">
        <ele>484.161</ele>
        <time>2012-12-16T09:48:38Z</time>
      </trkpt>
      <trkpt lat="45.76159" lon="4.32045">
        <ele>484.642</ele>
        <time>2012-12-16T09:48:45Z</time>
      </trkpt>
      <trkpt lat="45.76164" lon="4.32049">
        <ele>485.122</ele>
        <time>2012-12-16T09:48:50Z</time>
      </trkpt>
      <trkpt lat="45.76168" lon="4.32054">
        <ele>485.603</ele>
        <time>2012-12-16T09:48:53Z</time>
      </trkpt>
      <trkpt lat="45.76177" lon="4.32065">
        <ele>487.045</ele>
        <time>2012-12-16T09:49:01Z</time>
      </trkpt>
      <trkpt lat="45.76181" lon="4.32067">
        <ele>488.487</ele>
        <time>2012-12-16T09:49:04Z</time>
      </trkpt>
      <trkpt lat="45.7619" lon="4.32076">
        <ele>492.332</ele>
        <time>2012-12-16T09:49:14Z</time>
      </trkpt>
      <trkpt lat="45.76196" lon="4.32084">
        <ele>495.216</ele>
        <time>2012-12-16T09:49:22Z</time>
      </trkpt>
      <trkpt lat="45.76203" lon="4.32097">
        <ele>498.1</ele>
        <time>2012-12-16T09:49:31Z</time>
      </trkpt>
      <trkpt lat="45.76207" lon="4.32103">
        <ele>499.542</ele>
        <time>2012-12-16T09:49:36Z</time>
      </trkpt>
      <trkpt lat="45.76221" lon="4.32123">
        <ele>501.946</ele>
        <time>2012-12-16T09:49:49Z</time>
      </trkpt>
      <trkpt lat="45.76229" lon="4.32135">
        <ele>500.984</ele>
        <time>2012-12-16T09:49:55Z</time>
      </trkpt>
      <trkpt lat="45.76232" lon="4.32143">
        <ele>499.542</ele>
        <time>2012-12-16T09:49:59Z</time>
      </trkpt>
      <trkpt lat="45.76234" lon="4.32155">
        <ele>499.062</ele>
        <time>2012-12-16T09:50:06Z</time>
      </trkpt>
      <trkpt lat="45.7624" lon="4.32169">
        <ele>500.023</ele>
        <time>2012-12-16T09:50:17Z</time>
      </trkpt>
      <trkpt lat="45.76247" lon="4.32187">
        <ele>500.504</ele>
        <time>2012-12-16T09:50:28Z</time>
      </trkpt>
      <trkpt lat="45.76248" lon="4.3219">
        <ele>500.504</ele>
        <time>2012-12-16T09:50:30Z</time>
      </trkpt>
      <trkpt lat="45.76254" lon="4.32213">
        <ele>498.1</ele>
        <time>2012-12-16T09:50:42Z</time>
      </trkpt>
      <trkpt lat="45.76254" lon="4.32215">
        <ele>498.1</ele>
        <time>2012-12-16T09:50:43Z</time>
      </trkpt>
      <trkpt lat="45.7626" lon="4.32231">
        <ele>499.062</ele>
        <time>2012-12-16T09:50:52Z</time>
      </trkpt>
      <trkpt lat="45.7626" lon="4.32234">
        <ele>498.581</ele>
        <time>2012-12-16T09:50:54Z</time>
      </trkpt>
      <trkpt lat="45.76262" lon="4.3225">
        <ele>498.1</ele>
        <time>2012-12-16T09:51:03Z</time>
      </trkpt>
      <trkpt lat="45.76262" lon="4.32259">
        <ele>498.1</ele>
        <time>2012-12-16T09:51:09Z</time>
      </trkpt>
      <trkpt lat="45.76265" lon="4.32276">
        <ele>500.023</ele>
        <time>2012-12-16T09:51:21Z</time>
      </trkpt>
      <trkpt lat="45.76265" lon="4.3229">
        <ele>503.387</ele>
        <time>2012-12-16T09:51:28Z</time>
      </trkpt>
      <trkpt lat="45.76267" lon="4.32304">
        <ele>506.271</ele>
        <time>2012-12-16T09:51:37Z</time>
      </trkpt>
      <trkpt lat="45.7627" lon="4.3232">
        <ele>505.791</ele>
        <time>2012-12-16T09:51:47Z</time>
      </trkpt>
      <trkpt lat="45.76271" lon="4.32323">
        <ele>506.271</ele>
        <time>2012-12-16T09:51:51Z</time>
      </trkpt>
      <trkpt lat="45.76274" lon="4.32339">
        <ele>508.194</ele>
        <time>2012-12-16T09:52:01Z</time>
      </trkpt>
      <trkpt lat="45.76278" lon="4.3235">
        <ele>511.559</ele>
        <time>2012-12-16T09:52:09Z</time>
      </trkpt>
      <trkpt lat="45.76285" lon="4.32363">
        <ele>512.52</ele>
        <time>2012-12-16T09:52:19Z</time>
      </trkpt>
      <trkpt lat="45.76291" lon="4.32371">
        <ele>512.039</ele>
        <time>2012-12-16T09:52:26Z</time>
      </trkpt>
      <trkpt lat="45.76302" lon="4.3238">
        <ele>509.636</ele>
        <time>2012-12-16T09:52:39Z</time>
      </trkpt>
      <trkpt lat="45.76313" lon="4.32389">
        <ele>508.675</ele>
        <time>2012-12-16T09:52:49Z</time>
      </trkpt>
      <trkpt lat="45.76322" lon="4.32394">
        <ele>506.752</ele>
        <time>2012-12-16T09:52:59Z</time>
      </trkpt>
      <trkpt lat="45.7633" lon="4.32395">
        <ele>505.791</ele>
        <time>2012-12-16T09:53:10Z</time>
      </trkpt>
      <trkpt lat="45.76333" lon="4.32395">
        <ele>505.791</ele>
        <time>2012-12-16T09:53:14Z</time>
      </trkpt>
      <trkpt lat="45.76345" lon="4.32397">
        <ele>505.791</ele>
        <time>2012-12-16T09:53:25Z</time>
      </trkpt>
      <trkpt lat="45.76359" lon="4.32402">
        <ele>505.31</ele>
        <time>2012-12-16T09:53:36Z</time>
      </trkpt>
      <trkpt lat="45.76369" lon="4.32403">
        <ele>506.752</ele>
        <time>2012-12-16T09:53:46Z</time>
      </trkpt>
      <trkpt lat="45.76379" lon="4.32405">
        <ele>508.194</ele>
        <time>2012-12-16T09:53:57Z</time>
      </trkpt>
      <trkpt lat="45.76384" lon="4.32408">
        <ele>509.155</ele>
        <time>2012-12-16T09:54:03Z</time>
      </trkpt>
      <trkpt lat="45.76394" lon="4.32408">
        <ele>512.52</ele>
        <time>2012-12-16T09:54:13Z</time>
      </trkpt>
      <trkpt lat="45.76407" lon="4.32408">
        <ele>517.327</ele>
        <time>2012-12-16T09:54:25Z</time>
      </trkpt>
      <trkpt lat="45.76418" lon="4.32408">
        <ele>521.653</ele>
        <time>2012-12-16T09:54:36Z</time>
      </trkpt>
      <trkpt lat="45.76427" lon="4.32408">
        <ele>525.498</ele>
        <time>2012-12-16T09:54:47Z</time>
      </trkpt>
      <trkpt lat="45.76429" lon="4.32408">
        <ele>526.459</ele>
        <time>2012-12-16T09:54:49Z</time>
      </trkpt>
      <trkpt lat="45.76437" lon="4.32408">
        <ele>530.304</ele>
        <time>2012-12-16T09:54:55Z</time>
      </trkpt>
      <trkpt lat="45.7645" lon="4.32414">
        <ele>535.111</ele>
        <time>2012-12-16T09:55:06Z</time>
      </trkpt>
      <trkpt lat="45.76464" lon="4.32417">
        <ele>539.918</ele>
        <time>2012-12-16T09:55:19Z</time>
      </trkpt>
      <trkpt lat="45.76468" lon="4.32416">
        <ele>541.359</ele>
        <time>2012-12-16T09:55:23Z</time>
      </trkpt>
      <trkpt lat="45.76481" lon="4.32418">
        <ele>545.205</ele>
        <time>2012-12-16T09:55:35Z</time>
      </trkpt>
      <trkpt lat="45.76486" lon="4.32416">
        <ele>546.647</ele>
        <time>2012-12-16T09:55:40Z</time>
      </trkpt>
      <trkpt lat="45.76488" lon="4.32414">
        <ele>547.127</ele>
        <time>2012-12-16T09:55:42Z</time>
      </trkpt>
      <trkpt lat="45.76498" lon="4.32413">
        <ele>549.531</ele>
        <time>2012-12-16T09:55:52Z</time>
      </trkpt>
      <trkpt lat="45.76506" lon="4.32412">
        <ele>550.973</ele>
        <time>2012-12-16T09:55:59Z</time>
      </trkpt>
      <trkpt lat="45.7651" lon="4.32412">
        <ele>551.453</ele>
        <time>2012-12-16T09:56:03Z</time>
      </trkpt>
      <trkpt lat="45.76517" lon="4.32415">
        <ele>552.415</ele>
        <time>2012-12-16T09:56:09Z</time>
      </trkpt>
      <trkpt lat="45.76524" lon="4.32417">
        <ele>553.857</ele>
        <time>2012-12-16T09:56:16Z</time>
      </trkpt>
      <trkpt lat="45.7653" lon="4.32415">
        <ele>553.857</ele>
        <time>2012-12-16T09:56:21Z</time>
      </trkpt>
      <trkpt lat="45.76534" lon="4.32419">
        <ele>553.857</ele>
        <time>2012-12-16T09:56:25Z</time>
      </trkpt>
      <trkpt lat="45.76538" lon="4.3242">
        <ele>554.337</ele>
        <time>2012-12-16T09:56:29Z</time>
      </trkpt>
      <trkpt lat="45.76548" lon="4.32422">
        <ele>555.779</ele>
        <time>2012-12-16T09:56:37Z</time>
      </trkpt>
      <trkpt lat="45.7655" lon="4.32424">
        <ele>556.26</ele>
        <time>2012-12-16T09:56:39Z</time>
      </trkpt>
      <trkpt lat="45.76555" lon="4.32425">
        <ele>558.183</ele>
        <time>2012-12-16T09:56:43Z</time>
      </trkpt>
      <trkpt lat="45.76557" lon="4.32428">
        <ele>558.663</ele>
        <time>2012-12-16T09:56:46Z</time>
      </trkpt>
      <trkpt lat="45.76571" lon="4.32433">
        <ele>560.105</ele>
        <time>2012-12-16T09:56:58Z</time>
      </trkpt>
      <trkpt lat="45.76584" lon="4.32438">
        <ele>561.547</ele>
        <time>2012-12-16T09:57:08Z</time>
      </trkpt>
      <trkpt lat="45.76589" lon="4.3244">
        <ele>562.509</ele>
        <time>2012-12-16T09:57:12Z</time>
      </trkpt>
      <trkpt lat="45.76591" lon="4.32442">
        <ele>562.989</ele>
        <time>2012-12-16T09:57:14Z</time>
      </trkpt>
      <trkpt lat="45.76606" lon="4.32449">
        <ele>565.393</ele>
        <time>2012-12-16T09:57:27Z</time>
      </trkpt>
      <trkpt lat="45.76618" lon="4.32452">
        <ele>565.873</ele>
        <time>2012-12-16T09:57:36Z</time>
      </trkpt>
      <trkpt lat="45.76632" lon="4.32458">
        <ele>565.873</ele>
        <time>2012-12-16T09:57:46Z</time>
      </trkpt>
      <trkpt lat="45.7665" lon="4.32467">
        <ele>567.315</ele>
        <time>2012-12-16T09:58:00Z</time>
      </trkpt>
      <trkpt lat="45.76661" lon="4.32471">
        <ele>568.276</ele>
        <time>2012-12-16T09:58:07Z</time>
      </trkpt>
      <trkpt lat="45.76667" lon="4.32476">
        <ele>568.276</ele>
        <time>2012-12-16T09:58:12Z</time>
      </trkpt>
      <trkpt lat="45.76671" lon="4.32476">
        <ele>568.757</ele>
        <time>2012-12-16T09:58:15Z</time>
      </trkpt>
      <trkpt lat="45.76676" lon="4.32478">
        <ele>569.238</ele>
        <time>2012-12-16T09:58:19Z</time>
      </trkpt>
      <trkpt lat="45.76695" lon="4.32487">
        <ele>568.757</ele>
        <time>2012-12-16T09:58:33Z</time>
      </trkpt>
      <trkpt lat="45.7671" lon="4.32494">
        <ele>569.719</ele>
        <time>2012-12-16T09:58:43Z</time>
      </trkpt>
      <trkpt lat="45.76721" lon="4.32501">
        <ele>570.199</ele>
        <time>2012-12-16T09:58:52Z</time>
      </trkpt>
      <trkpt lat="45.76722" lon="4.32503">
        <ele>570.199</ele>
        <time>2012-12-16T09:58:54Z</time>
      </trkpt>
      <trkpt lat="45.76738" lon="4.32511">
        <ele>569.238</ele>
        <time>2012-12-16T09:59:07Z</time>
      </trkpt>
      <trkpt lat="45.7674" lon="4.32512">
        <ele>568.757</ele>
        <time>2012-12-16T09:59:09Z</time>
      </trkpt>
      <trkpt lat="45.76745" lon="4.32515">
        <ele>568.757</ele>
        <time>2012-12-16T09:59:14Z</time>
      </trkpt>
      <trkpt lat="45.76752" lon="4.32519">
        <ele>569.238</ele>
        <time>2012-12-16T09:59:20Z</time>
      </trkpt>
      <trkpt lat="45.76762" lon="4.32522">
        <ele>571.16</ele>
        <time>2012-12-16T09:59:26Z</time>
      </trkpt>
      <trkpt lat="45.76771" lon="4.32527">
        <ele>573.564</ele>
        <time>2012-12-16T09:59:34Z</time>
      </trkpt>
      <trkpt lat="45.76788" lon="4.32535">
        <ele>575.486</ele>
        <time>2012-12-16T09:59:46Z</time>
      </trkpt>
      <trkpt lat="45.768" lon="4.32543">
        <ele>576.928</ele>
        <time>2012-12-16T09:59:56Z</time>
      </trkpt>
      <trkpt lat="45.76817" lon="4.32553">
        <ele>578.851</ele>
        <time>2012-12-16T10:00:10Z</time>
      </trkpt>
      <trkpt lat="45.76835" lon="4.32559">
        <ele>579.812</ele>
        <time>2012-12-16T10:00:22Z</time>
      </trkpt>
      <trkpt lat="45.76843" lon="4.3256">
        <ele>580.774</ele>
        <time>2012-12-16T10:00:27Z</time>
      </trkpt>
      <trkpt lat="45.76845" lon="4.32563">
        <ele>581.254</ele>
        <time>2012-12-16T10:00:45Z</time>
      </trkpt>
      <trkpt lat="45.76846" lon="4.32567">
        <ele>581.254</ele>
        <time>2012-12-16T10:01:13Z</time>
      </trkpt>
      <trkpt lat="45.76846" lon="4.32567">
        <ele>581.254</ele>
        <time>2012-12-16T10:01:28Z</time>
      </trkpt>
      <trkpt lat="45.76847" lon="4.32567">
        <ele>581.254</ele>
        <time>2012-12-16T10:01:34Z</time>
      </trkpt>
      <trkpt lat="45.76847" lon="4.32568">
        <ele>582.216</ele>
        <time>2012-12-16T10:06:29Z</time>
      </trkpt>
      <trkpt lat="45.76862" lon="4.32564">
        <ele>582.696</ele>
        <time>2012-12-16T10:06:42Z</time>
      </trkpt>
      <trkpt lat="45.76874" lon="4.32565">
        <ele>583.177</ele>
        <time>2012-12-16T10:06:52Z</time>
      </trkpt>
      <trkpt lat="45.76893" lon="4.32566">
        <ele>583.657</ele>
        <time>2012-12-16T10:07:05Z</time>
      </trkpt>
      <trkpt lat="45.76914" lon="4.32561">
        <ele>586.061</ele>
        <time>2012-12-16T10:07:18Z</time>
      </trkpt>
      <trkpt lat="45.76934" lon="4.32559">
        <ele>585.58</ele>
        <time>2012-12-16T10:07:31Z</time>
      </trkpt>
      <trkpt lat="45.76952" lon="4.32552">
        <ele>586.542</ele>
        <time>2012-12-16T10:07:43Z</time>
      </trkpt>
      <trkpt lat="45.76958" lon="4.32549">
        <ele>588.945</ele>
        <time>2012-12-16T10:07:55Z</time>
      </trkpt>
      <trkpt lat="45.76958" lon="4.32549">
        <ele>588.945</ele>
        <time>2012-12-16T10:07:56Z</time>
      </trkpt>
      <trkpt lat="45.76966" lon="4.32544">
        <ele>589.426</ele>
        <time>2012-12-16T10:08:04Z</time>
      </trkpt>
      <trkpt lat="45.76978" lon="4.32539">
        <ele>587.983</ele>
        <time>2012-12-16T10:08:13Z</time>
      </trkpt>
      <trkpt lat="45.76992" lon="4.32533">
        <ele>586.061</ele>
        <time>2012-12-16T10:08:26Z</time>
      </trkpt>
      <trkpt lat="45.76998" lon="4.32529">
        <ele>585.1</ele>
        <time>2012-12-16T10:08:30Z</time>
      </trkpt>
      <trkpt lat="45.77014" lon="4.32517">
        <ele>587.022</ele>
        <time>2012-12-16T10:08:45Z</time>
      </trkpt>
      <trkpt lat="45.77027" lon="4.32509">
        <ele>588.945</ele>
        <time>2012-12-16T10:08:57Z</time>
      </trkpt>
      <trkpt lat="45.77033" lon="4.32503">
        <ele>589.426</ele>
        <time>2012-12-16T10:09:03Z</time>
      </trkpt>
      <trkpt lat="45.77047" lon="4.3248">
        <ele>588.945</ele>
        <time>2012-12-16T10:09:17Z</time>
      </trkpt>
      <trkpt lat="45.77052" lon="4.32467">
        <ele>588.464</ele>
        <time>2012-12-16T10:09:24Z</time>
      </trkpt>
      <trkpt lat="45.77064" lon="4.32445">
        <ele>588.464</ele>
        <time>2012-12-16T10:09:38Z</time>
      </trkpt>
      <trkpt lat="45.77075" lon="4.32422">
        <ele>588.945</ele>
        <time>2012-12-16T10:09:52Z</time>
      </trkpt>
      <trkpt lat="45.77085" lon="4.32399">
        <ele>588.945</ele>
        <time>2012-12-16T10:10:06Z</time>
      </trkpt>
      <trkpt lat="45.77097" lon="4.32377">
        <ele>587.983</ele>
        <time>2012-12-16T10:10:19Z</time>
      </trkpt>
      <trkpt lat="45.77111" lon="4.3236">
        <ele>586.542</ele>
        <time>2012-12-16T10:10:32Z</time>
      </trkpt>
      <trkpt lat="45.77125" lon="4.32365">
        <ele>588.464</ele>
        <time>2012-12-16T10:10:42Z</time>
      </trkpt>
      <trkpt lat="45.77132" lon="4.32369">
        <ele>588.945</ele>
        <time>2012-12-16T10:10:47Z</time>
      </trkpt>
      <trkpt lat="45.77134" lon="4.32373">
        <ele>588.945</ele>
        <time>2012-12-16T10:10:50Z</time>
      </trkpt>
      <trkpt lat="45.77152" lon="4.32402">
        <ele>587.983</ele>
        <time>2012-12-16T10:11:06Z</time>
      </trkpt>
      <trkpt lat="45.77165" lon="4.32427">
        <ele>588.464</ele>
        <time>2012-12-16T10:11:21Z</time>
      </trkpt>
      <trkpt lat="45.7717" lon="4.32437">
        <ele>588.464</ele>
        <time>2012-12-16T10:11:27Z</time>
      </trkpt>
      <trkpt lat="45.77172" lon="4.32441">
        <ele>588.464</ele>
        <time>2012-12-16T10:11:29Z</time>
      </trkpt>
      <trkpt lat="45.77176" lon="4.32447">
        <ele>587.983</ele>
        <time>2012-12-16T10:11:33Z</time>
      </trkpt>
      <trkpt lat="45.77183" lon="4.32471">
        <ele>586.061</ele>
        <time>2012-12-16T10:11:45Z</time>
      </trkpt>
      <trkpt lat="45.77189" lon="4.32485">
        <ele>586.061</ele>
        <time>2012-12-16T10:11:52Z</time>
      </trkpt>
      <trkpt lat="45.77199" lon="4.32506">
        <ele>585.1</ele>
        <time>2012-12-16T10:12:05Z</time>
      </trkpt>
      <trkpt lat="45.77205" lon="4.32513">
        <ele>584.619</ele>
        <time>2012-12-16T10:12:10Z</time>
      </trkpt>
      <trkpt lat="45.77217" lon="4.32532">
        <ele>582.696</ele>
        <time>2012-12-16T10:12:23Z</time>
      </trkpt>
      <trkpt lat="45.7723" lon="4.32554">
        <ele>581.254</ele>
        <time>2012-12-16T10:12:38Z</time>
      </trkpt>
      <trkpt lat="45.77238" lon="4.32565">
        <ele>581.254</ele>
        <time>2012-12-16T10:12:46Z</time>
      </trkpt>
      <trkpt lat="45.77245" lon="4.3258">
        <ele>580.774</ele>
        <time>2012-12-16T10:12:55Z</time>
      </trkpt>
      <trkpt lat="45.77254" lon="4.32596">
        <ele>581.735</ele>
        <time>2012-12-16T10:13:04Z</time>
      </trkpt>
      <trkpt lat="45.7726" lon="4.32603">
        <ele>582.216</ele>
        <time>2012-12-16T10:13:08Z</time>
      </trkpt>
      <trkpt lat="45.77267" lon="4.32617">
        <ele>581.735</ele>
        <time>2012-12-16T10:13:16Z</time>
      </trkpt>
      <trkpt lat="45.77271" lon="4.32624">
        <ele>580.774</ele>
        <time>2012-12-16T10:13:20Z</time>
      </trkpt>
      <trkpt lat="45.77276" lon="4.32629">
        <ele>581.254</ele>
        <time>2012-12-16T10:13:23Z</time>
      </trkpt>
      <trkpt lat="45.77279" lon="4.32635">
        <ele>582.216</ele>
        <time>2012-12-16T10:13:27Z</time>
      </trkpt>
      <trkpt lat="45.77291" lon="4.32659">
        <ele>584.619</ele>
        <time>2012-12-16T10:13:42Z</time>
      </trkpt>
      <trkpt lat="45.77296" lon="4.32672">
        <ele>585.58</ele>
        <time>2012-12-16T10:13:49Z</time>
      </trkpt>
      <trkpt lat="45.77298" lon="4.3268">
        <ele>585.58</ele>
        <time>2012-12-16T10:13:53Z</time>
      </trkpt>
      <trkpt lat="45.77298" lon="4.32687">
        <ele>586.542</ele>
        <time>2012-12-16T10:13:57Z</time>
      </trkpt>
      <trkpt lat="45.77296" lon="4.32708">
        <ele>587.503</ele>
        <time>2012-12-16T10:14:09Z</time>
      </trkpt>
      <trkpt lat="45.77299" lon="4.32731">
        <ele>587.022</ele>
        <time>2012-12-16T10:14:21Z</time>
      </trkpt>
      <trkpt lat="45.77299" lon="4.32733">
        <ele>587.022</ele>
        <time>2012-12-16T10:14:22Z</time>
      </trkpt>
      <trkpt lat="45.77299" lon="4.32739">
        <ele>587.022</ele>
        <time>2012-12-16T10:14:25Z</time>
      </trkpt>
      <trkpt lat="45.77304" lon="4.32756">
        <ele>588.945</ele>
        <time>2012-12-16T10:14:34Z</time>
      </trkpt>
      <trkpt lat="45.77307" lon="4.32767">
        <ele>589.426</ele>
        <time>2012-12-16T10:14:40Z</time>
      </trkpt>
      <trkpt lat="45.7731" lon="4.32784">
        <ele>589.426</ele>
        <time>2012-12-16T10:14:52Z</time>
      </trkpt>
      <trkpt lat="45.77311" lon="4.32798">
        <ele>590.867</ele>
        <time>2012-12-16T10:14:58Z</time>
      </trkpt>
      <trkpt lat="45.77315" lon="4.32816">
        <ele>589.906</ele>
        <time>2012-12-16T10:15:07Z</time>
      </trkpt>
      <trkpt lat="45.77315" lon="4.32822">
        <ele>589.906</ele>
        <time>2012-12-16T10:15:10Z</time>
      </trkpt>
      <trkpt lat="45.77315" lon="4.32833">
        <ele>589.906</ele>
        <time>2012-12-16T10:15:15Z</time>
      </trkpt>
      <trkpt lat="45.77318" lon="4.32848">
        <ele>590.387</ele>
        <time>2012-12-16T10:15:23Z</time>
      </trkpt>
      <trkpt lat="45.77324" lon="4.32865">
        <ele>590.867</ele>
        <time>2012-12-16T10:15:33Z</time>
      </trkpt>
      <trkpt lat="45.77329" lon="4.32875">
        <ele>591.348</ele>
        <time>2012-12-16T10:15:40Z</time>
      </trkpt>
      <trkpt lat="45.77338" lon="4.32897">
        <ele>589.426</ele>
        <time>2012-12-16T10:15:53Z</time>
      </trkpt>
      <trkpt lat="45.77338" lon="4.32899">
        <ele>589.906</ele>
        <time>2012-12-16T10:15:54Z</time>
      </trkpt>
      <trkpt lat="45.77346" lon="4.32909">
        <ele>590.867</ele>
        <time>2012-12-16T10:16:01Z</time>
      </trkpt>
      <trkpt lat="45.77347" lon="4.32927">
        <ele>589.906</ele>
        <time>2012-12-16T10:16:09Z</time>
      </trkpt>
      <trkpt lat="45.77347" lon="4.3296">
        <ele>587.983</ele>
        <time>2012-12-16T10:16:24Z</time>
      </trkpt>
      <trkpt lat="45.77345" lon="4.32974">
        <ele>587.983</ele>
        <time>2012-12-16T10:16:31Z</time>
      </trkpt>
      <trkpt lat="45.77345" lon="4.32983">
        <ele>587.983</ele>
        <time>2012-12-16T10:16:35Z</time>
      </trkpt>
      <trkpt lat="45.77349" lon="4.33004">
        <ele>586.542</ele>
        <time>2012-12-16T10:16:45Z</time>
      </trkpt>
      <trkpt lat="45.77348" lon="4.3303">
        <ele>585.58</ele>
        <time>2012-12-16T10:16:57Z</time>
      </trkpt>
      <trkpt lat="45.7735" lon="4.33041">
        <ele>584.619</ele>
        <time>2012-12-16T10:17:02Z</time>
      </trkpt>
      <trkpt lat="45.77351" lon="4.33049">
        <ele>584.619</ele>
        <time>2012-12-16T10:17:05Z</time>
      </trkpt>
      <trkpt lat="45.77353" lon="4.33076">
        <ele>585.58</ele>
        <time>2012-12-16T10:17:19Z</time>
      </trkpt>
      <trkpt lat="45.77355" lon="4.33084">
        <ele>585.1</ele>
        <time>2012-12-16T10:17:23Z</time>
      </trkpt>
      <trkpt lat="45.77357" lon="4.33101">
        <ele>582.696</ele>
        <time>2012-12-16T10:17:31Z</time>
      </trkpt>
      <trkpt lat="45.7736" lon="4.33115">
        <ele>581.254</ele>
        <time>2012-12-16T10:17:40Z</time>
      </trkpt>
      <trkpt lat="45.77358" lon="4.33123">
        <ele>581.735</ele>
        <time>2012-12-16T10:17:44Z</time>
      </trkpt>
      <trkpt lat="45.77352" lon="4.33147">
        <ele>581.735</ele>
        <time>2012-12-16T10:17:56Z</time>
      </trkpt>
      <trkpt lat="45.77337" lon="4.33168">
        <ele>582.696</ele>
        <time>2012-12-16T10:18:10Z</time>
      </trkpt>
      <trkpt lat="45.77334" lon="4.33171">
        <ele>582.696</ele>
        <time>2012-12-16T10:18:13Z</time>
      </trkpt>
      <trkpt lat="45.77326" lon="4.33182">
        <ele>582.216</ele>
        <time>2012-12-16T10:18:21Z</time>
      </trkpt>
      <trkpt lat="45.77319" lon="4.33192">
        <ele>582.216</ele>
        <time>2012-12-16T10:18:27Z</time>
      </trkpt>
      <trkpt lat="45.77314" lon="4.33202">
        <ele>582.216</ele>
        <time>2012-12-16T10:18:34Z</time>
      </trkpt>
      <trkpt lat="45.77306" lon="4.33217">
        <ele>584.138</ele>
        <time>2012-12-16T10:18:44Z</time>
      </trkpt>
      <trkpt lat="45.77297" lon="4.33237">
        <ele>585.58</ele>
        <time>2012-12-16T10:18:55Z</time>
      </trkpt>
      <trkpt lat="45.77295" lon="4.33241">
        <ele>585.58</ele>
        <time>2012-12-16T10:18:58Z</time>
      </trkpt>
      <trkpt lat="45.77291" lon="4.33259">
        <ele>585.1</ele>
        <time>2012-12-16T10:19:07Z</time>
      </trkpt>
      <trkpt lat="45.77286" lon="4.33285">
        <ele>584.138</ele>
        <time>2012-12-16T10:19:20Z</time>
      </trkpt>
      <trkpt lat="45.7729" lon="4.33301">
        <ele>585.1</ele>
        <time>2012-12-16T10:19:29Z</time>
      </trkpt>
      <trkpt lat="45.7729" lon="4.33307">
        <ele>585.58</ele>
        <time>2012-12-16T10:19:33Z</time>
      </trkpt>
      <trkpt lat="45.77296" lon="4.33315">
        <ele>586.542</ele>
        <time>2012-12-16T10:19:39Z</time>
      </trkpt>
      <trkpt lat="45.77314" lon="4.33321">
        <ele>588.945</ele>
        <time>2012-12-16T10:19:52Z</time>
      </trkpt>
      <trkpt lat="45.77318" lon="4.33322">
        <ele>589.426</ele>
        <time>2012-12-16T10:19:56Z</time>
      </trkpt>
      <trkpt lat="45.77321" lon="4.33322">
        <ele>589.426</ele>
        <time>2012-12-16T10:20:08Z</time>
      </trkpt>
      <trkpt lat="45.77322" lon="4.33323">
        <ele>589.426</ele>
        <time>2012-12-16T10:20:30Z</time>
      </trkpt>
      <trkpt lat="45.77329" lon="4.33323">
        <ele>590.387</ele>
        <time>2012-12-16T10:20:35Z</time>
      </trkpt>
      <trkpt lat="45.77337" lon="4.33327">
        <ele>591.348</ele>
        <time>2012-12-16T10:20:42Z</time>
      </trkpt>
      <trkpt lat="45.77345" lon="4.33329">
        <ele>592.79</ele>
        <time>2012-12-16T10:20:48Z</time>
      </trkpt>
      <trkpt lat="45.77348" lon="4.3333">
        <ele>593.271</ele>
        <time>2012-12-16T10:20:51Z</time>
      </trkpt>
      <trkpt lat="45.77366" lon="4.33337">
        <ele>595.193</ele>
        <time>2012-12-16T10:21:05Z</time>
      </trkpt>
      <trkpt lat="45.77367" lon="4.33338">
        <ele>595.674</ele>
        <time>2012-12-16T10:21:06Z</time>
      </trkpt>
      <trkpt lat="45.77373" lon="4.33347">
        <ele>596.635</ele>
        <time>2012-12-16T10:21:13Z</time>
      </trkpt>
      <trkpt lat="45.77379" lon="4.3335">
        <ele>597.597</ele>
        <time>2012-12-16T10:21:17Z</time>
      </trkpt>
      <trkpt lat="45.77384" lon="4.33359">
        <ele>599.519</ele>
        <time>2012-12-16T10:21:23Z</time>
      </trkpt>
      <trkpt lat="45.77391" lon="4.33367">
        <ele>601.442</ele>
        <time>2012-12-16T10:21:30Z</time>
      </trkpt>
      <trkpt lat="45.77391" lon="4.33373">
        <ele>601.442</ele>
        <time>2012-12-16T10:21:33Z</time>
      </trkpt>
      <trkpt lat="45.77403" lon="4.33391">
        <ele>604.326</ele>
        <time>2012-12-16T10:21:46Z</time>
      </trkpt>
      <trkpt lat="45.77406" lon="4.33394">
        <ele>605.287</ele>
        <time>2012-12-16T10:21:49Z</time>
      </trkpt>
      <trkpt lat="45.77412" lon="4.33405">
        <ele>607.21</ele>
        <time>2012-12-16T10:21:56Z</time>
      </trkpt>
      <trkpt lat="45.77423" lon="4.33423">
        <ele>611.055</ele>
        <time>2012-12-16T10:22:08Z</time>
      </trkpt>
      <trkpt lat="45.77423" lon="4.33426">
        <ele>611.536</ele>
        <time>2012-12-16T10:22:10Z</time>
      </trkpt>
      <trkpt lat="45.77432" lon="4.33435">
        <ele>612.017</ele>
        <time>2012-12-16T10:22:18Z</time>
      </trkpt>
      <trkpt lat="45.77437" lon="4.33441">
        <ele>612.497</ele>
        <time>2012-12-16T10:22:23Z</time>
      </trkpt>
      <trkpt lat="45.77455" lon="4.33446">
        <ele>613.939</ele>
        <time>2012-12-16T10:22:36Z</time>
      </trkpt>
      <trkpt lat="45.77458" lon="4.33446">
        <ele>613.939</ele>
        <time>2012-12-16T10:22:38Z</time>
      </trkpt>
      <trkpt lat="45.77463" lon="4.33448">
        <ele>614.42</ele>
        <time>2012-12-16T10:22:42Z</time>
      </trkpt>
      <trkpt lat="45.77483" lon="4.33447">
        <ele>615.381</ele>
        <time>2012-12-16T10:22:55Z</time>
      </trkpt>
      <trkpt lat="45.77492" lon="4.33444">
        <ele>615.381</ele>
        <time>2012-12-16T10:23:01Z</time>
      </trkpt>
      <trkpt lat="45.77511" lon="4.33443">
        <ele>615.381</ele>
        <time>2012-12-16T10:23:14Z</time>
      </trkpt>
      <trkpt lat="45.77516" lon="4.33444">
        <ele>615.381</ele>
        <time>2012-12-16T10:23:18Z</time>
      </trkpt>
      <trkpt lat="45.77537" lon="4.33443">
        <ele>613.939</ele>
        <time>2012-12-16T10:23:33Z</time>
      </trkpt>
      <trkpt lat="45.77544" lon="4.33442">
        <ele>613.939</ele>
        <time>2012-12-16T10:23:38Z</time>
      </trkpt>
      <trkpt lat="45.77565" lon="4.33442">
        <ele>613.939</ele>
        <time>2012-12-16T10:23:53Z</time>
      </trkpt>
      <trkpt lat="45.77574" lon="4.33439">
        <ele>613.939</ele>
        <time>2012-12-16T10:23:59Z</time>
      </trkpt>
      <trkpt lat="45.77578" lon="4.33441">
        <ele>613.939</ele>
        <time>2012-12-16T10:24:02Z</time>
      </trkpt>
      <trkpt lat="45.77597" lon="4.33438">
        <ele>613.939</ele>
        <time>2012-12-16T10:24:16Z</time>
      </trkpt>
      <trkpt lat="45.77617" lon="4.3344">
        <ele>615.862</ele>
        <time>2012-12-16T10:24:30Z</time>
      </trkpt>
      <trkpt lat="45.77637" lon="4.33441">
        <ele>616.823</ele>
        <time>2012-12-16T10:24:44Z</time>
      </trkpt>
      <trkpt lat="45.77643" lon="4.33442">
        <ele>616.823</ele>
        <time>2012-12-16T10:24:48Z</time>
      </trkpt>
      <trkpt lat="45.77649" lon="4.3344">
        <ele>616.823</ele>
        <time>2012-12-16T10:24:52Z</time>
      </trkpt>
      <trkpt lat="45.77666" lon="4.33439">
        <ele>616.823</ele>
        <time>2012-12-16T10:25:04Z</time>
      </trkpt>
      <trkpt lat="45.77685" lon="4.33437">
        <ele>615.381</ele>
        <time>2012-12-16T10:25:18Z</time>
      </trkpt>
      <trkpt lat="45.77689" lon="4.33437">
        <ele>614.42</ele>
        <time>2012-12-16T10:25:21Z</time>
      </trkpt>
      <trkpt lat="45.77703" lon="4.33433">
        <ele>612.978</ele>
        <time>2012-12-16T10:25:31Z</time>
      </trkpt>
      <trkpt lat="45.77712" lon="4.33433">
        <ele>611.055</ele>
        <time>2012-12-16T10:25:38Z</time>
      </trkpt>
      <trkpt lat="45.77727" lon="4.33428">
        <ele>606.729</ele>
        <time>2012-12-16T10:25:49Z</time>
      </trkpt>
      <trkpt lat="45.77734" lon="4.33428">
        <ele>605.287</ele>
        <time>2012-12-16T10:25:55Z</time>
      </trkpt>
      <trkpt lat="45.77752" lon="4.33423">
        <ele>602.884</ele>
        <time>2012-12-16T10:26:07Z</time>
      </trkpt>
      <trkpt lat="45.77772" lon="4.33419">
        <ele>605.287</ele>
        <time>2012-12-16T10:26:21Z</time>
      </trkpt>
      <trkpt lat="45.77774" lon="4.33419">
        <ele>605.287</ele>
        <time>2012-12-16T10:26:22Z</time>
      </trkpt>
      <trkpt lat="45.77789" lon="4.3342">
        <ele>606.249</ele>
        <time>2012-12-16T10:26:31Z</time>
      </trkpt>
      <trkpt lat="45.77809" lon="4.33409">
        <ele>606.729</ele>
        <time>2012-12-16T10:26:44Z</time>
      </trkpt>
      <trkpt lat="45.77827" lon="4.33396">
        <ele>607.21</ele>
        <time>2012-12-16T10:26:57Z</time>
      </trkpt>
      <trkpt lat="45.77847" lon="4.33382">
        <ele>610.094</ele>
        <time>2012-12-16T10:27:12Z</time>
      </trkpt>
      <trkpt lat="45.77857" lon="4.33378">
        <ele>612.497</ele>
        <time>2012-12-16T10:27:19Z</time>
      </trkpt>
      <trkpt lat="45.77878" lon="4.33364">
        <ele>615.862</ele>
        <time>2012-12-16T10:27:34Z</time>
      </trkpt>
      <trkpt lat="45.77899" lon="4.33351">
        <ele>618.265</ele>
        <time>2012-12-16T10:27:49Z</time>
      </trkpt>
      <trkpt lat="45.77914" lon="4.33334">
        <ele>617.784</ele>
        <time>2012-12-16T10:28:02Z</time>
      </trkpt>
      <trkpt lat="45.77931" lon="4.33318">
        <ele>617.784</ele>
        <time>2012-12-16T10:28:15Z</time>
      </trkpt>
      <trkpt lat="45.77954" lon="4.33303">
        <ele>617.784</ele>
        <time>2012-12-16T10:28:32Z</time>
      </trkpt>
      <trkpt lat="45.77964" lon="4.333">
        <ele>616.342</ele>
        <time>2012-12-16T10:28:40Z</time>
      </trkpt>
      <trkpt lat="45.77978" lon="4.33297">
        <ele>616.342</ele>
        <time>2012-12-16T10:28:52Z</time>
      </trkpt>
      <trkpt lat="45.77985" lon="4.33294">
        <ele>615.862</ele>
        <time>2012-12-16T10:28:58Z</time>
      </trkpt>
      <trkpt lat="45.78009" lon="4.33291">
        <ele>616.342</ele>
        <time>2012-12-16T10:29:14Z</time>
      </trkpt>
      <trkpt lat="45.7803" lon="4.33294">
        <ele>615.862</ele>
        <time>2012-12-16T10:29:28Z</time>
      </trkpt>
      <trkpt lat="45.78041" lon="4.33296">
        <ele>616.823</ele>
        <time>2012-12-16T10:29:34Z</time>
      </trkpt>
      <trkpt lat="45.78047" lon="4.333">
        <ele>617.304</ele>
        <time>2012-12-16T10:29:39Z</time>
      </trkpt>
      <trkpt lat="45.78052" lon="4.33302">
        <ele>617.784</ele>
        <time>2012-12-16T10:29:43Z</time>
      </trkpt>
      <trkpt lat="45.78063" lon="4.33306">
        <ele>617.784</ele>
        <time>2012-12-16T10:29:57Z</time>
      </trkpt>
      <trkpt lat="45.78065" lon="4.33308">
        <ele>617.304</ele>
        <time>2012-12-16T10:29:59Z</time>
      </trkpt>
      <trkpt lat="45.78067" lon="4.33312">
        <ele>616.342</ele>
        <time>2012-12-16T10:30:02Z</time>
      </trkpt>
      <trkpt lat="45.78068" lon="4.33315">
        <ele>616.342</ele>
        <time>2012-12-16T10:30:26Z</time>
      </trkpt>
      <trkpt lat="45.78068" lon="4.33315">
        <ele>616.342</ele>
        <time>2012-12-16T10:30:37Z</time>
      </trkpt>
      <trkpt lat="45.78071" lon="4.3333">
        <ele>616.823</ele>
        <time>2012-12-16T10:30:46Z</time>
      </trkpt>
      <trkpt lat="45.78077" lon="4.33345">
        <ele>618.746</ele>
        <time>2012-12-16T10:30:53Z</time>
      </trkpt>
      <trkpt lat="45.78084" lon="4.33367">
        <ele>624.514</ele>
        <time>2012-12-16T10:31:06Z</time>
      </trkpt>
      <trkpt lat="45.78084" lon="4.33367">
        <ele>624.514</ele>
        <time>2012-12-16T10:31:11Z</time>
      </trkpt>
      <trkpt lat="45.78085" lon="4.33383">
        <ele>625.475</ele>
        <time>2012-12-16T10:31:19Z</time>
      </trkpt>
      <trkpt lat="45.78085" lon="4.3339">
        <ele>626.436</ele>
        <time>2012-12-16T10:31:23Z</time>
      </trkpt>
      <trkpt lat="45.7809" lon="4.33398">
        <ele>626.917</ele>
        <time>2012-12-16T10:31:28Z</time>
      </trkpt>
      <trkpt lat="45.78092" lon="4.33401">
        <ele>627.398</ele>
        <time>2012-12-16T10:31:30Z</time>
      </trkpt>
      <trkpt lat="45.78095" lon="4.33416">
        <ele>628.84</ele>
        <time>2012-12-16T10:31:39Z</time>
      </trkpt>
      <trkpt lat="45.78105" lon="4.33436">
        <ele>629.32</ele>
        <time>2012-12-16T10:31:50Z</time>
      </trkpt>
      <trkpt lat="45.78108" lon="4.33449">
        <ele>628.84</ele>
        <time>2012-12-16T10:31:58Z</time>
      </trkpt>
      <trkpt lat="45.78116" lon="4.33469">
        <ele>629.801</ele>
        <time>2012-12-16T10:32:09Z</time>
      </trkpt>
      <trkpt lat="45.78118" lon="4.33473">
        <ele>629.801</ele>
        <time>2012-12-16T10:32:12Z</time>
      </trkpt>
      <trkpt lat="45.7813" lon="4.33497">
        <ele>631.243</ele>
        <time>2012-12-16T10:32:26Z</time>
      </trkpt>
      <trkpt lat="45.78131" lon="4.33499">
        <ele>631.243</ele>
        <time>2012-12-16T10:32:27Z</time>
      </trkpt>
      <trkpt lat="45.78134" lon="4.3351">
        <ele>631.243</ele>
        <time>2012-12-16T10:32:33Z</time>
      </trkpt>
      <trkpt lat="45.78141" lon="4.33518">
        <ele>631.723</ele>
        <time>2012-12-16T10:32:39Z</time>
      </trkpt>
      <trkpt lat="45.78145" lon="4.33527">
        <ele>632.685</ele>
        <time>2012-12-16T10:32:45Z</time>
      </trkpt>
      <trkpt lat="45.7815" lon="4.33533">
        <ele>633.165</ele>
        <time>2012-12-16T10:32:50Z</time>
      </trkpt>
      <trkpt lat="45.78152" lon="4.33539">
        <ele>633.646</ele>
        <time>2012-12-16T10:32:55Z</time>
      </trkpt>
      <trkpt lat="45.78156" lon="4.33542">
        <ele>633.165</ele>
        <time>2012-12-16T10:32:59Z</time>
      </trkpt>
      <trkpt lat="45.78159" lon="4.33547">
        <ele>633.165</ele>
        <time>2012-12-16T10:33:02Z</time>
      </trkpt>
      <trkpt lat="45.78161" lon="4.33553">
        <ele>632.685</ele>
        <time>2012-12-16T10:33:06Z</time>
      </trkpt>
      <trkpt lat="45.78173" lon="4.3357">
        <ele>631.723</ele>
        <time>2012-12-16T10:33:18Z</time>
      </trkpt>
      <trkpt lat="45.78179" lon="4.33579">
        <ele>631.723</ele>
        <time>2012-12-16T10:33:24Z</time>
      </trkpt>
      <trkpt lat="45.78182" lon="4.33585">
        <ele>632.685</ele>
        <time>2012-12-16T10:33:40Z</time>
      </trkpt>
      <trkpt lat="45.78182" lon="4.33586">
        <ele>632.685</ele>
        <time>2012-12-16T10:33:51Z</time>
      </trkpt>
      <trkpt lat="45.78185" lon="4.33593">
        <ele>632.685</ele>
        <time>2012-12-16T10:33:55Z</time>
      </trkpt>
      <trkpt lat="45.78189" lon="4.33603">
        <ele>632.685</ele>
        <time>2012-12-16T10:34:00Z</time>
      </trkpt>
      <trkpt lat="45.78197" lon="4.33614">
        <ele>633.165</ele>
        <time>2012-12-16T10:34:09Z</time>
      </trkpt>
      <trkpt lat="45.78205" lon="4.33623">
        <ele>635.088</ele>
        <time>2012-12-16T10:34:18Z</time>
      </trkpt>
      <trkpt lat="45.78213" lon="4.33635">
        <ele>637.491</ele>
        <time>2012-12-16T10:34:27Z</time>
      </trkpt>
      <trkpt lat="45.78218" lon="4.33643">
        <ele>638.934</ele>
        <time>2012-12-16T10:34:31Z</time>
      </trkpt>
      <trkpt lat="45.78222" lon="4.33653">
        <ele>640.375</ele>
        <time>2012-12-16T10:34:36Z</time>
      </trkpt>
      <trkpt lat="45.78227" lon="4.33663">
        <ele>641.817</ele>
        <time>2012-12-16T10:34:42Z</time>
      </trkpt>
      <trkpt lat="45.78236" lon="4.33683">
        <ele>642.779</ele>
        <time>2012-12-16T10:34:55Z</time>
      </trkpt>
      <trkpt lat="45.78237" lon="4.33685">
        <ele>642.779</ele>
        <time>2012-12-16T10:34:56Z</time>
      </trkpt>
      <trkpt lat="45.78241" lon="4.33697">
        <ele>642.779</ele>
        <time>2012-12-16T10:35:03Z</time>
      </trkpt>
      <trkpt lat="45.78245" lon="4.33706">
        <ele>642.779</ele>
        <time>2012-12-16T10:35:08Z</time>
      </trkpt>
      <trkpt lat="45.78248" lon="4.33718">
        <ele>644.701</ele>
        <time>2012-12-16T10:35:15Z</time>
      </trkpt>
      <trkpt lat="45.78253" lon="4.33729">
        <ele>645.182</ele>
        <time>2012-12-16T10:35:24Z</time>
      </trkpt>
      <trkpt lat="45.78254" lon="4.33737">
        <ele>645.663</ele>
        <time>2012-12-16T10:35:29Z</time>
      </trkpt>
      <trkpt lat="45.78261" lon="4.33752">
        <ele>647.104</ele>
        <time>2012-12-16T10:35:39Z</time>
      </trkpt>
      <trkpt lat="45.78265" lon="4.33763">
        <ele>648.066</ele>
        <time>2012-12-16T10:35:45Z</time>
      </trkpt>
      <trkpt lat="45.78268" lon="4.33769">
        <ele>649.027</ele>
        <time>2012-12-16T10:35:49Z</time>
      </trkpt>
      <trkpt lat="45.78272" lon="4.33781">
        <ele>650.469</ele>
        <time>2012-12-16T10:35:55Z</time>
      </trkpt>
      <trkpt lat="45.78277" lon="4.338">
        <ele>650.469</ele>
        <time>2012-12-16T10:36:07Z</time>
      </trkpt>
      <trkpt lat="45.78276" lon="4.33802">
        <ele>650.469</ele>
        <time>2012-12-16T10:36:23Z</time>
      </trkpt>
      <trkpt lat="45.78277" lon="4.33804">
        <ele>650.469</ele>
        <time>2012-12-16T10:36:45Z</time>
      </trkpt>
      <trkpt lat="45.78277" lon="4.33812">
        <ele>650.469</ele>
        <time>2012-12-16T10:37:05Z</time>
      </trkpt>
      <trkpt lat="45.78281" lon="4.33824">
        <ele>650.469</ele>
        <time>2012-12-16T10:37:11Z</time>
      </trkpt>
      <trkpt lat="45.78281" lon="4.33838">
        <ele>649.989</ele>
        <time>2012-12-16T10:37:19Z</time>
      </trkpt>
      <trkpt lat="45.78281" lon="4.33856">
        <ele>648.066</ele>
        <time>2012-12-16T10:37:31Z</time>
      </trkpt>
      <trkpt lat="45.78278" lon="4.33873">
        <ele>645.663</ele>
        <time>2012-12-16T10:37:42Z</time>
      </trkpt>
      <trkpt lat="45.78273" lon="4.33883">
        <ele>644.701</ele>
        <time>2012-12-16T10:37:52Z</time>
      </trkpt>
      <trkpt lat="45.7826" lon="4.33894">
        <ele>641.817</ele>
        <time>2012-12-16T10:38:08Z</time>
      </trkpt>
      <trkpt lat="45.78249" lon="4.33902">
        <ele>639.414</ele>
        <time>2012-12-16T10:38:20Z</time>
      </trkpt>
      <trkpt lat="45.78241" lon="4.33911">
        <ele>637.972</ele>
        <time>2012-12-16T10:38:29Z</time>
      </trkpt>
      <trkpt lat="45.78233" lon="4.33927">
        <ele>634.127</ele>
        <time>2012-12-16T10:38:39Z</time>
      </trkpt>
      <trkpt lat="45.78228" lon="4.33935">
        <ele>633.646</ele>
        <time>2012-12-16T10:38:44Z</time>
      </trkpt>
      <trkpt lat="45.78227" lon="4.3394">
        <ele>632.685</ele>
        <time>2012-12-16T10:38:47Z</time>
      </trkpt>
      <trkpt lat="45.78222" lon="4.33957">
        <ele>628.84</ele>
        <time>2012-12-16T10:38:56Z</time>
      </trkpt>
      <trkpt lat="45.78222" lon="4.3396">
        <ele>628.359</ele>
        <time>2012-12-16T10:38:58Z</time>
      </trkpt>
      <trkpt lat="45.7822" lon="4.33978">
        <ele>627.878</ele>
        <time>2012-12-16T10:39:08Z</time>
      </trkpt>
      <trkpt lat="45.78216" lon="4.33992">
        <ele>626.917</ele>
        <time>2012-12-16T10:39:17Z</time>
      </trkpt>
      <trkpt lat="45.78215" lon="4.34015">
        <ele>624.514</ele>
        <time>2012-12-16T10:39:28Z</time>
      </trkpt>
      <trkpt lat="45.7821" lon="4.34047">
        <ele>622.591</ele>
        <time>2012-12-16T10:39:40Z</time>
      </trkpt>
      <trkpt lat="45.78209" lon="4.34052">
        <ele>621.63</ele>
        <time>2012-12-16T10:39:42Z</time>
      </trkpt>
      <trkpt lat="45.78208" lon="4.34064">
        <ele>618.746</ele>
        <time>2012-12-16T10:39:48Z</time>
      </trkpt>
      <trkpt lat="45.78207" lon="4.34074">
        <ele>617.784</ele>
        <time>2012-12-16T10:39:53Z</time>
      </trkpt>
      <trkpt lat="45.78207" lon="4.3408">
        <ele>616.342</ele>
        <time>2012-12-16T10:39:56Z</time>
      </trkpt>
      <trkpt lat="45.78207" lon="4.34087">
        <ele>615.381</ele>
        <time>2012-12-16T10:39:59Z</time>
      </trkpt>
      <trkpt lat="45.78205" lon="4.34099">
        <ele>613.939</ele>
        <time>2012-12-16T10:40:05Z</time>
      </trkpt>
      <trkpt lat="45.78202" lon="4.34129">
        <ele>609.613</ele>
        <time>2012-12-16T10:40:19Z</time>
      </trkpt>
      <trkpt lat="45.78196" lon="4.34157">
        <ele>609.613</ele>
        <time>2012-12-16T10:40:32Z</time>
      </trkpt>
      <trkpt lat="45.78192" lon="4.34183">
        <ele>611.055</ele>
        <time>2012-12-16T10:40:45Z</time>
      </trkpt>
      <trkpt lat="45.78193" lon="4.34196">
        <ele>609.613</ele>
        <time>2012-12-16T10:40:51Z</time>
      </trkpt>
      <trkpt lat="45.78192" lon="4.34202">
        <ele>609.133</ele>
        <time>2012-12-16T10:40:54Z</time>
      </trkpt>
      <trkpt lat="45.78192" lon="4.34228">
        <ele>604.807</ele>
        <time>2012-12-16T10:41:07Z</time>
      </trkpt>
      <trkpt lat="45.78194" lon="4.34246">
        <ele>602.884</ele>
        <time>2012-12-16T10:41:16Z</time>
      </trkpt>
      <trkpt lat="45.78194" lon="4.34254">
        <ele>601.923</ele>
        <time>2012-12-16T10:41:20Z</time>
      </trkpt>
      <trkpt lat="45.78198" lon="4.34278">
        <ele>601.923</ele>
        <time>2012-12-16T10:41:31Z</time>
      </trkpt>
      <trkpt lat="45.78199" lon="4.34286">
        <ele>602.884</ele>
        <time>2012-12-16T10:41:35Z</time>
      </trkpt>
      <trkpt lat="45.78209" lon="4.34315">
        <ele>608.171</ele>
        <time>2012-12-16T10:41:51Z</time>
      </trkpt>
      <trkpt lat="45.78212" lon="4.34322">
        <ele>609.133</ele>
        <time>2012-12-16T10:41:54Z</time>
      </trkpt>
      <trkpt lat="45.78214" lon="4.34333">
        <ele>610.574</ele>
        <time>2012-12-16T10:41:59Z</time>
      </trkpt>
      <trkpt lat="45.78217" lon="4.34342">
        <ele>611.536</ele>
        <time>2012-12-16T10:42:04Z</time>
      </trkpt>
      <trkpt lat="45.78218" lon="4.3435">
        <ele>612.978</ele>
        <time>2012-12-16T10:42:08Z</time>
      </trkpt>
      <trkpt lat="45.78222" lon="4.34376">
        <ele>617.784</ele>
        <time>2012-12-16T10:42:22Z</time>
      </trkpt>
      <trkpt lat="45.78225" lon="4.34386">
        <ele>619.226</ele>
        <time>2012-12-16T10:42:27Z</time>
      </trkpt>
      <trkpt lat="45.78225" lon="4.34393">
        <ele>620.668</ele>
        <time>2012-12-16T10:42:30Z</time>
      </trkpt>
      <trkpt lat="45.78229" lon="4.34404">
        <ele>621.63</ele>
        <time>2012-12-16T10:42:37Z</time>
      </trkpt>
      <trkpt lat="45.78231" lon="4.34413">
        <ele>622.11</ele>
        <time>2012-12-16T10:42:42Z</time>
      </trkpt>
      <trkpt lat="45.78233" lon="4.34418">
        <ele>622.591</ele>
        <time>2012-12-16T10:42:45Z</time>
      </trkpt>
      <trkpt lat="45.78241" lon="4.34437">
        <ele>626.436</ele>
        <time>2012-12-16T10:42:58Z</time>
      </trkpt>
      <trkpt lat="45.78243" lon="4.34444">
        <ele>627.398</ele>
        <time>2012-12-16T10:43:02Z</time>
      </trkpt>
      <trkpt lat="45.78248" lon="4.3445">
        <ele>628.84</ele>
        <time>2012-12-16T10:43:07Z</time>
      </trkpt>
      <trkpt lat="45.78252" lon="4.3446">
        <ele>630.762</ele>
        <time>2012-12-16T10:43:13Z</time>
      </trkpt>
      <trkpt lat="45.78257" lon="4.34465">
        <ele>631.243</ele>
        <time>2012-12-16T10:43:18Z</time>
      </trkpt>
      <trkpt lat="45.78261" lon="4.34471">
        <ele>631.723</ele>
        <time>2012-12-16T10:43:22Z</time>
      </trkpt>
      <trkpt lat="45.7827" lon="4.34483">
        <ele>633.165</ele>
        <time>2012-12-16T10:43:31Z</time>
      </trkpt>
      <trkpt lat="45.78278" lon="4.34493">
        <ele>633.646</ele>
        <time>2012-12-16T10:43:39Z</time>
      </trkpt>
      <trkpt lat="45.78287" lon="4.34506">
        <ele>634.127</ele>
        <time>2012-12-16T10:43:49Z</time>
      </trkpt>
      <trkpt lat="45.78297" lon="4.3452">
        <ele>635.088</ele>
        <time>2012-12-16T10:43:59Z</time>
      </trkpt>
      <trkpt lat="45.78305" lon="4.34533">
        <ele>635.088</ele>
        <time>2012-12-16T10:44:09Z</time>
      </trkpt>
      <trkpt lat="45.78307" lon="4.34542">
        <ele>635.088</ele>
        <time>2012-12-16T10:44:14Z</time>
      </trkpt>
      <trkpt lat="45.78321" lon="4.34565">
        <ele>634.607</ele>
        <time>2012-12-16T10:44:29Z</time>
      </trkpt>
      <trkpt lat="45.78336" lon="4.34589">
        <ele>630.762</ele>
        <time>2012-12-16T10:44:43Z</time>
      </trkpt>
      <trkpt lat="45.78347" lon="4.34617">
        <ele>629.801</ele>
        <time>2012-12-16T10:44:58Z</time>
      </trkpt>
      <trkpt lat="45.78351" lon="4.34626">
        <ele>628.84</ele>
        <time>2012-12-16T10:45:03Z</time>
      </trkpt>
      <trkpt lat="45.78351" lon="4.34635">
        <ele>628.359</ele>
        <time>2012-12-16T10:45:07Z</time>
      </trkpt>
      <trkpt lat="45.78356" lon="4.34663">
        <ele>628.359</ele>
        <time>2012-12-16T10:45:21Z</time>
      </trkpt>
      <trkpt lat="45.78358" lon="4.34681">
        <ele>627.398</ele>
        <time>2012-12-16T10:45:32Z</time>
      </trkpt>
      <trkpt lat="45.78372" lon="4.34674">
        <ele>624.514</ele>
        <time>2012-12-16T10:45:45Z</time>
      </trkpt>
      <trkpt lat="45.78377" lon="4.34673">
        <ele>623.072</ele>
        <time>2012-12-16T10:45:49Z</time>
      </trkpt>
      <trkpt lat="45.78392" lon="4.34669">
        <ele>621.149</ele>
        <time>2012-12-16T10:45:59Z</time>
      </trkpt>
      <trkpt lat="45.78403" lon="4.34668">
        <ele>618.265</ele>
        <time>2012-12-16T10:46:07Z</time>
      </trkpt>
      <trkpt lat="45.78409" lon="4.34663">
        <ele>617.304</ele>
        <time>2012-12-16T10:46:12Z</time>
      </trkpt>
      <trkpt lat="45.78414" lon="4.3466">
        <ele>614.42</ele>
        <time>2012-12-16T10:46:17Z</time>
      </trkpt>
      <trkpt lat="45.78431" lon="4.34649">
        <ele>608.171</ele>
        <time>2012-12-16T10:46:30Z</time>
      </trkpt>
      <trkpt lat="45.78434" lon="4.34647">
        <ele>606.249</ele>
        <time>2012-12-16T10:46:34Z</time>
      </trkpt>
      <trkpt lat="45.78454" lon="4.34634">
        <ele>599.519</ele>
        <time>2012-12-16T10:46:49Z</time>
      </trkpt>
      <trkpt lat="45.78458" lon="4.34631">
        <ele>597.597</ele>
        <time>2012-12-16T10:46:53Z</time>
      </trkpt>
      <trkpt lat="45.78476" lon="4.34618">
        <ele>592.79</ele>
        <time>2012-12-16T10:47:07Z</time>
      </trkpt>
      <trkpt lat="45.78483" lon="4.34613">
        <ele>590.387</ele>
        <time>2012-12-16T10:47:16Z</time>
      </trkpt>
      <trkpt lat="45.78506" lon="4.34602">
        <ele>588.945</ele>
        <time>2012-12-16T10:47:30Z</time>
      </trkpt>
      <trkpt lat="45.78514" lon="4.34601">
        <ele>588.945</ele>
        <time>2012-12-16T10:47:35Z</time>
      </trkpt>
      <trkpt lat="45.78526" lon="4.34601">
        <ele>588.945</ele>
        <time>2012-12-16T10:47:44Z</time>
      </trkpt>
      <trkpt lat="45.78543" lon="4.34592">
        <ele>587.983</ele>
        <time>2012-12-16T10:47:56Z</time>
      </trkpt>
      <trkpt lat="45.78551" lon="4.34586">
        <ele>587.022</ele>
        <time>2012-12-16T10:48:07Z</time>
      </trkpt>
      <trkpt lat="45.78559" lon="4.34582">
        <ele>586.542</ele>
        <time>2012-12-16T10:48:16Z</time>
      </trkpt>
      <trkpt lat="45.7856" lon="4.34581">
        <ele>586.542</ele>
        <time>2012-12-16T10:48:19Z</time>
      </trkpt>
      <trkpt lat="45.78563" lon="4.34573">
        <ele>585.1</ele>
        <time>2012-12-16T10:48:30Z</time>
      </trkpt>
      <trkpt lat="45.78564" lon="4.34568">
        <ele>586.061</ele>
        <time>2012-12-16T10:48:33Z</time>
      </trkpt>
      <trkpt lat="45.78567" lon="4.34553">
        <ele>584.138</ele>
        <time>2012-12-16T10:48:41Z</time>
      </trkpt>
      <trkpt lat="45.7857" lon="4.34543">
        <ele>582.216</ele>
        <time>2012-12-16T10:48:54Z</time>
      </trkpt>
      <trkpt lat="45.78575" lon="4.34526">
        <ele>579.812</ele>
        <time>2012-12-16T10:49:06Z</time>
      </trkpt>
      <trkpt lat="45.78581" lon="4.3451">
        <ele>577.409</ele>
        <time>2012-12-16T10:49:19Z</time>
      </trkpt>
      <trkpt lat="45.78582" lon="4.34505">
        <ele>577.409</ele>
        <time>2012-12-16T10:49:22Z</time>
      </trkpt>
      <trkpt lat="45.78583" lon="4.34502">
        <ele>577.409</ele>
        <time>2012-12-16T10:49:24Z</time>
      </trkpt>
      <trkpt lat="45.78585" lon="4.34494">
        <ele>577.89</ele>
        <time>2012-12-16T10:49:35Z</time>
      </trkpt>
      <trkpt lat="45.78591" lon="4.3448">
        <ele>576.448</ele>
        <time>2012-12-16T10:49:44Z</time>
      </trkpt>
      <trkpt lat="45.78599" lon="4.34462">
        <ele>576.448</ele>
        <time>2012-12-16T10:49:56Z</time>
      </trkpt>
      <trkpt lat="45.78606" lon="4.34444">
        <ele>575.006</ele>
        <time>2012-12-16T10:50:07Z</time>
      </trkpt>
      <trkpt lat="45.7861" lon="4.34441">
        <ele>574.044</ele>
        <time>2012-12-16T10:50:11Z</time>
      </trkpt>
      <trkpt lat="45.78615" lon="4.34443">
        <ele>573.564</ele>
        <time>2012-12-16T10:50:15Z</time>
      </trkpt>
      <trkpt lat="45.78629" lon="4.34453">
        <ele>575.486</ele>
        <time>2012-12-16T10:50:27Z</time>
      </trkpt>
      <trkpt lat="45.78643" lon="4.34457">
        <ele>577.409</ele>
        <time>2012-12-16T10:50:36Z</time>
      </trkpt>
      <trkpt lat="45.78649" lon="4.34458">
        <ele>577.409</ele>
        <time>2012-12-16T10:50:41Z</time>
      </trkpt>
      <trkpt lat="45.78656" lon="4.34455">
        <ele>576.448</ele>
        <time>2012-12-16T10:50:46Z</time>
      </trkpt>
      <trkpt lat="45.78665" lon="4.34458">
        <ele>577.89</ele>
        <time>2012-12-16T10:50:52Z</time>
      </trkpt>
      <trkpt lat="45.78668" lon="4.34458">
        <ele>578.37</ele>
        <time>2012-12-16T10:50:54Z</time>
      </trkpt>
      <trkpt lat="45.78673" lon="4.34462">
        <ele>578.851</ele>
        <time>2012-12-16T10:50:58Z</time>
      </trkpt>
      <trkpt lat="45.78675" lon="4.34463">
        <ele>578.851</ele>
        <time>2012-12-16T10:51:00Z</time>
      </trkpt>
      <trkpt lat="45.78679" lon="4.34463">
        <ele>579.812</ele>
        <time>2012-12-16T10:51:02Z</time>
      </trkpt>
      <trkpt lat="45.78683" lon="4.34467">
        <ele>580.293</ele>
        <time>2012-12-16T10:51:06Z</time>
      </trkpt>
      <trkpt lat="45.78696" lon="4.34476">
        <ele>580.293</ele>
        <time>2012-12-16T10:51:17Z</time>
      </trkpt>
      <trkpt lat="45.78701" lon="4.34482">
        <ele>579.332</ele>
        <time>2012-12-16T10:51:22Z</time>
      </trkpt>
      <trkpt lat="45.78706" lon="4.34485">
        <ele>580.774</ele>
        <time>2012-12-16T10:51:26Z</time>
      </trkpt>
      <trkpt lat="45.78711" lon="4.3449">
        <ele>581.735</ele>
        <time>2012-12-16T10:51:30Z</time>
      </trkpt>
      <trkpt lat="45.78727" lon="4.34501">
        <ele>585.58</ele>
        <time>2012-12-16T10:51:42Z</time>
      </trkpt>
      <trkpt lat="45.78733" lon="4.34507">
        <ele>587.983</ele>
        <time>2012-12-16T10:51:47Z</time>
      </trkpt>
      <trkpt lat="45.7874" lon="4.34521">
        <ele>592.79</ele>
        <time>2012-12-16T10:51:56Z</time>
      </trkpt>
      <trkpt lat="45.78745" lon="4.34532">
        <ele>595.674</ele>
        <time>2012-12-16T10:52:03Z</time>
      </trkpt>
      <trkpt lat="45.78754" lon="4.34543">
        <ele>597.597</ele>
        <time>2012-12-16T10:52:12Z</time>
      </trkpt>
      <trkpt lat="45.78758" lon="4.34547">
        <ele>598.558</ele>
        <time>2012-12-16T10:52:16Z</time>
      </trkpt>
      <trkpt lat="45.7876" lon="4.34549">
        <ele>599.039</ele>
        <time>2012-12-16T10:52:19Z</time>
      </trkpt>
      <trkpt lat="45.78766" lon="4.34547">
        <ele>600</ele>
        <time>2012-12-16T10:52:25Z</time>
      </trkpt>
      <trkpt lat="45.78776" lon="4.34537">
        <ele>598.558</ele>
        <time>2012-12-16T10:52:34Z</time>
      </trkpt>
      <trkpt lat="45.78783" lon="4.34531">
        <ele>597.597</ele>
        <time>2012-12-16T10:52:40Z</time>
      </trkpt>
      <trkpt lat="45.78791" lon="4.34519">
        <ele>596.155</ele>
        <time>2012-12-16T10:52:49Z</time>
      </trkpt>
      <trkpt lat="45.78798" lon="4.34509">
        <ele>596.635</ele>
        <time>2012-12-16T10:52:56Z</time>
      </trkpt>
      <trkpt lat="45.78809" lon="4.34492">
        <ele>597.597</ele>
        <time>2012-12-16T10:53:07Z</time>
      </trkpt>
      <trkpt lat="45.78814" lon="4.34486">
        <ele>597.116</ele>
        <time>2012-12-16T10:53:12Z</time>
      </trkpt>
      <trkpt lat="45.78816" lon="4.3448">
        <ele>596.635</ele>
        <time>2012-12-16T10:53:16Z</time>
      </trkpt>
      <trkpt lat="45.78822" lon="4.34472">
        <ele>596.155</ele>
        <time>2012-12-16T10:53:22Z</time>
      </trkpt>
      <trkpt lat="45.7883" lon="4.34461">
        <ele>595.674</ele>
        <time>2012-12-16T10:53:30Z</time>
      </trkpt>
      <trkpt lat="45.78834" lon="4.34449">
        <ele>593.751</ele>
        <time>2012-12-16T10:53:42Z</time>
      </trkpt>
      <trkpt lat="45.78841" lon="4.34436">
        <ele>593.271</ele>
        <time>2012-12-16T10:53:51Z</time>
      </trkpt>
      <trkpt lat="45.78848" lon="4.3443">
        <ele>592.79</ele>
        <time>2012-12-16T10:53:57Z</time>
      </trkpt>
      <trkpt lat="45.78859" lon="4.34421">
        <ele>593.271</ele>
        <time>2012-12-16T10:54:06Z</time>
      </trkpt>
      <trkpt lat="45.78865" lon="4.34412">
        <ele>594.232</ele>
        <time>2012-12-16T10:54:11Z</time>
      </trkpt>
      <trkpt lat="45.78883" lon="4.34418">
        <ele>596.635</ele>
        <time>2012-12-16T10:54:24Z</time>
      </trkpt>
      <trkpt lat="45.78891" lon="4.34433">
        <ele>599.039</ele>
        <time>2012-12-16T10:54:34Z</time>
      </trkpt>
      <trkpt lat="45.78902" lon="4.34454">
        <ele>601.442</ele>
        <time>2012-12-16T10:54:47Z</time>
      </trkpt>
      <trkpt lat="45.78904" lon="4.34456">
        <ele>601.923</ele>
        <time>2012-12-16T10:54:49Z</time>
      </trkpt>
      <trkpt lat="45.78912" lon="4.34477">
        <ele>606.729</ele>
        <time>2012-12-16T10:55:02Z</time>
      </trkpt>
      <trkpt lat="45.78918" lon="4.3449">
        <ele>609.613</ele>
        <time>2012-12-16T10:55:10Z</time>
      </trkpt>
      <trkpt lat="45.78924" lon="4.34502">
        <ele>611.536</ele>
        <time>2012-12-16T10:55:18Z</time>
      </trkpt>
      <trkpt lat="45.78931" lon="4.34516">
        <ele>612.017</ele>
        <time>2012-12-16T10:55:27Z</time>
      </trkpt>
      <trkpt lat="45.78934" lon="4.34523">
        <ele>612.017</ele>
        <time>2012-12-16T10:55:32Z</time>
      </trkpt>
      <trkpt lat="45.78938" lon="4.34531">
        <ele>610.094</ele>
        <time>2012-12-16T10:55:37Z</time>
      </trkpt>
      <trkpt lat="45.78941" lon="4.34537">
        <ele>608.652</ele>
        <time>2012-12-16T10:55:42Z</time>
      </trkpt>
      <trkpt lat="45.78944" lon="4.3454">
        <ele>608.652</ele>
        <time>2012-12-16T10:55:45Z</time>
      </trkpt>
      <trkpt lat="45.78946" lon="4.34547">
        <ele>608.171</ele>
        <time>2012-12-16T10:55:49Z</time>
      </trkpt>
      <trkpt lat="45.7895" lon="4.34555">
        <ele>608.171</ele>
        <time>2012-12-16T10:55:54Z</time>
      </trkpt>
      <trkpt lat="45.7896" lon="4.34569">
        <ele>608.652</ele>
        <time>2012-12-16T10:56:05Z</time>
      </trkpt>
      <trkpt lat="45.78967" lon="4.34579">
        <ele>608.171</ele>
        <time>2012-12-16T10:56:13Z</time>
      </trkpt>
      <trkpt lat="45.7897" lon="4.34592">
        <ele>607.21</ele>
        <time>2012-12-16T10:56:20Z</time>
      </trkpt>
      <trkpt lat="45.78975" lon="4.34598">
        <ele>605.768</ele>
        <time>2012-12-16T10:56:26Z</time>
      </trkpt>
      <trkpt lat="45.78986" lon="4.34604">
        <ele>604.807</ele>
        <time>2012-12-16T10:56:35Z</time>
      </trkpt>
      <trkpt lat="45.78996" lon="4.34611">
        <ele>608.171</ele>
        <time>2012-12-16T10:56:46Z</time>
      </trkpt>
      <trkpt lat="45.78998" lon="4.34608">
        <ele>608.652</ele>
        <time>2012-12-16T10:56:49Z</time>
      </trkpt>
      <trkpt lat="45.79005" lon="4.34602">
        <ele>610.094</ele>
        <time>2012-12-16T10:56:55Z</time>
      </trkpt>
      <trkpt lat="45.79024" lon="4.34593">
        <ele>610.094</ele>
        <time>2012-12-16T10:57:08Z</time>
      </trkpt>
      <trkpt lat="45.79028" lon="4.34593">
        <ele>610.094</ele>
        <time>2012-12-16T10:57:11Z</time>
      </trkpt>
      <trkpt lat="45.7904" lon="4.34587">
        <ele>609.613</ele>
        <time>2012-12-16T10:57:21Z</time>
      </trkpt>
      <trkpt lat="45.79049" lon="4.34586">
        <ele>610.094</ele>
        <time>2012-12-16T10:57:28Z</time>
      </trkpt>
      <trkpt lat="45.79064" lon="4.34579">
        <ele>610.094</ele>
        <time>2012-12-16T10:57:39Z</time>
      </trkpt>
      <trkpt lat="45.7907" lon="4.34576">
        <ele>609.133</ele>
        <time>2012-12-16T10:57:43Z</time>
      </trkpt>
      <trkpt lat="45.79092" lon="4.34568">
        <ele>608.171</ele>
        <time>2012-12-16T10:57:57Z</time>
      </trkpt>
      <trkpt lat="45.79099" lon="4.34567">
        <ele>609.133</ele>
        <time>2012-12-16T10:58:02Z</time>
      </trkpt>
      <trkpt lat="45.79118" lon="4.34562">
        <ele>607.21</ele>
        <time>2012-12-16T10:58:15Z</time>
      </trkpt>
      <trkpt lat="45.79128" lon="4.34558">
        <ele>605.768</ele>
        <time>2012-12-16T10:58:22Z</time>
      </trkpt>
      <trkpt lat="45.79144" lon="4.34557">
        <ele>606.249</ele>
        <time>2012-12-16T10:58:34Z</time>
      </trkpt>
      <trkpt lat="45.79154" lon="4.34557">
        <ele>608.652</ele>
        <time>2012-12-16T10:58:44Z</time>
      </trkpt>
      <trkpt lat="45.79154" lon="4.34557">
        <ele>608.652</ele>
        <time>2012-12-16T10:58:45Z</time>
      </trkpt>
      <trkpt lat="45.79165" lon="4.34555">
        <ele>610.574</ele>
        <time>2012-12-16T10:58:55Z</time>
      </trkpt>
      <trkpt lat="45.79168" lon="4.34554">
        <ele>611.055</ele>
        <time>2012-12-16T10:59:05Z</time>
      </trkpt>
      <trkpt lat="45.79171" lon="4.3456">
        <ele>610.574</ele>
        <time>2012-12-16T10:59:13Z</time>
      </trkpt>
      <trkpt lat="45.79171" lon="4.34559">
        <ele>607.21</ele>
        <time>2012-12-16T10:59:27Z</time>
      </trkpt>
      <trkpt lat="45.79171" lon="4.34554">
        <ele>604.326</ele>
        <time>2012-12-16T11:00:14Z</time>
      </trkpt>
      <trkpt lat="45.7917" lon="4.34552">
        <ele>604.326</ele>
        <time>2012-12-16T11:00:39Z</time>
      </trkpt>
      <trkpt lat="45.7917" lon="4.34551">
        <ele>604.807</ele>
        <time>2012-12-16T11:00:59Z</time>
      </trkpt>
      <trkpt lat="45.79174" lon="4.34553">
        <ele>605.287</ele>
        <time>2012-12-16T11:01:22Z</time>
      </trkpt>
      <trkpt lat="45.79173" lon="4.34552">
        <ele>605.287</ele>
        <time>2012-12-16T11:01:44Z</time>
      </trkpt>
      <trkpt lat="45.79171" lon="4.34551">
        <ele>605.768</ele>
        <time>2012-12-16T11:02:33Z</time>
      </trkpt>
      <trkpt lat="45.7917" lon="4.34552">
        <ele>606.249</ele>
        <time>2012-12-16T11:02:49Z</time>
      </trkpt>
      <trkpt lat="45.79172" lon="4.34551">
        <ele>607.691</ele>
        <time>2012-12-16T11:03:01Z</time>
      </trkpt>
      <trkpt lat="45.79173" lon="4.34556">
        <ele>607.691</ele>
        <time>2012-12-16T11:03:17Z</time>
      </trkpt>
      <trkpt lat="45.79175" lon="4.34555">
        <ele>609.133</ele>
        <time>2012-12-16T11:03:28Z</time>
      </trkpt>
      <trkpt lat="45.79175" lon="4.34556">
        <ele>610.094</ele>
        <time>2012-12-16T11:03:44Z</time>
      </trkpt>
      <trkpt lat="45.79172" lon="4.34551">
        <ele>610.094</ele>
        <time>2012-12-16T11:03:57Z</time>
      </trkpt>
      <trkpt lat="45.79173" lon="4.34548">
        <ele>610.574</ele>
        <time>2012-12-16T11:04:05Z</time>
      </trkpt>
      <trkpt lat="45.79174" lon="4.34546">
        <ele>610.574</ele>
        <time>2012-12-16T11:04:07Z</time>
      </trkpt>
      <trkpt lat="45.79174" lon="4.3454">
        <ele>610.094</ele>
        <time>2012-12-16T11:04:11Z</time>
      </trkpt>
      <trkpt lat="45.7918" lon="4.3453">
        <ele>611.536</ele>
        <time>2012-12-16T11:04:19Z</time>
      </trkpt>
      <trkpt lat="45.79185" lon="4.34515">
        <ele>612.017</ele>
        <time>2012-12-16T11:04:27Z</time>
      </trkpt>
      <trkpt lat="45.79187" lon="4.34513">
        <ele>611.536</ele>
        <time>2012-12-16T11:04:29Z</time>
      </trkpt>
      <trkpt lat="45.79195" lon="4.34495">
        <ele>612.017</ele>
        <time>2012-12-16T11:04:39Z</time>
      </trkpt>
      <trkpt lat="45.79202" lon="4.34476">
        <ele>611.536</ele>
        <time>2012-12-16T11:04:50Z</time>
      </trkpt>
      <trkpt lat="45.79204" lon="4.34474">
        <ele>611.055</ele>
        <time>2012-12-16T11:04:52Z</time>
      </trkpt>
      <trkpt lat="45.79209" lon="4.34461">
        <ele>609.613</ele>
        <time>2012-12-16T11:05:00Z</time>
      </trkpt>
      <trkpt lat="45.79213" lon="4.34445">
        <ele>606.249</ele>
        <time>2012-12-16T11:05:10Z</time>
      </trkpt>
      <trkpt lat="45.7922" lon="4.3445">
        <ele>610.094</ele>
        <time>2012-12-16T11:23:08Z</time>
      </trkpt>
      <trkpt lat="45.7922" lon="4.34449">
        <ele>612.497</ele>
        <time>2012-12-16T11:23:42Z</time>
      </trkpt>
      <trkpt lat="45.79219" lon="4.34449">
        <ele>612.978</ele>
        <time>2012-12-16T11:24:06Z</time>
      </trkpt>
      <trkpt lat="45.7922" lon="4.34449">
        <ele>614.9</ele>
        <time>2012-12-16T11:25:02Z</time>
      </trkpt>
      <trkpt lat="45.7922" lon="4.34449">
        <ele>615.862</ele>
        <time>2012-12-16T11:25:42Z</time>
      </trkpt>
      <trkpt lat="45.79219" lon="4.3445">
        <ele>617.304</ele>
        <time>2012-12-16T11:26:23Z</time>
      </trkpt>
      <trkpt lat="45.79219" lon="4.3445">
        <ele>617.304</ele>
        <time>2012-12-16T11:26:52Z</time>
      </trkpt>
      <trkpt lat="45.79219" lon="4.3445">
        <ele>617.784</ele>
        <time>2012-12-16T11:27:24Z</time>
      </trkpt>
      <trkpt lat="45.7922" lon="4.34443">
        <ele>620.188</ele>
        <time>2012-12-16T11:27:46Z</time>
      </trkpt>
      <trkpt lat="45.79217" lon="4.34448">
        <ele>621.63</ele>
        <time>2012-12-16T11:27:59Z</time>
      </trkpt>
      <trkpt lat="45.79217" lon="4.34451">
        <ele>622.11</ele>
        <time>2012-12-16T11:28:20Z</time>
      </trkpt>
      <trkpt lat="45.79217" lon="4.34451">
        <ele>622.11</ele>
        <time>2012-12-16T11:29:49Z</time>
      </trkpt>
      <trkpt lat="45.79219" lon="4.34445">
        <ele>623.552</ele>
        <time>2012-12-16T11:31:18Z</time>
      </trkpt>
      <trkpt lat="45.7922" lon="4.34441">
        <ele>624.033</ele>
        <time>2012-12-16T11:31:21Z</time>
      </trkpt>
      <trkpt lat="45.7922" lon="4.34438">
        <ele>624.033</ele>
        <time>2012-12-16T11:31:23Z</time>
      </trkpt>
      <trkpt lat="45.79226" lon="4.34422">
        <ele>623.552</ele>
        <time>2012-12-16T11:31:34Z</time>
      </trkpt>
      <trkpt lat="45.79226" lon="4.34421">
        <ele>623.552</ele>
        <time>2012-12-16T11:31:35Z</time>
      </trkpt>
      <trkpt lat="45.79228" lon="4.34415">
        <ele>623.552</ele>
        <time>2012-12-16T11:31:39Z</time>
      </trkpt>
      <trkpt lat="45.7923" lon="4.34411">
        <ele>623.552</ele>
        <time>2012-12-16T11:31:42Z</time>
      </trkpt>
      <trkpt lat="45.79231" lon="4.34398">
        <ele>623.552</ele>
        <time>2012-12-16T11:31:49Z</time>
      </trkpt>
      <trkpt lat="45.79231" lon="4.34381">
        <ele>623.552</ele>
        <time>2012-12-16T11:32:03Z</time>
      </trkpt>
      <trkpt lat="45.7923" lon="4.34374">
        <ele>624.033</ele>
        <time>2012-12-16T11:32:07Z</time>
      </trkpt>
      <trkpt lat="45.79232" lon="4.34361">
        <ele>624.033</ele>
        <time>2012-12-16T11:32:13Z</time>
      </trkpt>
      <trkpt lat="45.79241" lon="4.34338">
        <ele>624.514</ele>
        <time>2012-12-16T11:32:27Z</time>
      </trkpt>
      <trkpt lat="45.79244" lon="4.34333">
        <ele>624.514</ele>
        <time>2012-12-16T11:32:31Z</time>
      </trkpt>
      <trkpt lat="45.79254" lon="4.34309">
        <ele>626.917</ele>
        <time>2012-12-16T11:32:45Z</time>
      </trkpt>
      <trkpt lat="45.7926" lon="4.34295">
        <ele>627.878</ele>
        <time>2012-12-16T11:32:56Z</time>
      </trkpt>
      <trkpt lat="45.79265" lon="4.3428">
        <ele>627.398</ele>
        <time>2012-12-16T11:33:04Z</time>
      </trkpt>
      <trkpt lat="45.79267" lon="4.34275">
        <ele>626.917</ele>
        <time>2012-12-16T11:33:08Z</time>
      </trkpt>
      <trkpt lat="45.79269" lon="4.34264">
        <ele>625.956</ele>
        <time>2012-12-16T11:33:14Z</time>
      </trkpt>
      <trkpt lat="45.79271" lon="4.34256">
        <ele>626.436</ele>
        <time>2012-12-16T11:33:26Z</time>
      </trkpt>
      <trkpt lat="45.79273" lon="4.34242">
        <ele>626.917</ele>
        <time>2012-12-16T11:33:32Z</time>
      </trkpt>
      <trkpt lat="45.7928" lon="4.34223">
        <ele>628.359</ele>
        <time>2012-12-16T11:33:40Z</time>
      </trkpt>
      <trkpt lat="45.79281" lon="4.34207">
        <ele>627.398</ele>
        <time>2012-12-16T11:33:52Z</time>
      </trkpt>
      <trkpt lat="45.79284" lon="4.34199">
        <ele>625.956</ele>
        <time>2012-12-16T11:33:57Z</time>
      </trkpt>
      <trkpt lat="45.79286" lon="4.34193">
        <ele>624.514</ele>
        <time>2012-12-16T11:34:01Z</time>
      </trkpt>
      <trkpt lat="45.79289" lon="4.34175">
        <ele>623.552</ele>
        <time>2012-12-16T11:34:12Z</time>
      </trkpt>
      <trkpt lat="45.7929" lon="4.34158">
        <ele>623.552</ele>
        <time>2012-12-16T11:34:21Z</time>
      </trkpt>
      <trkpt lat="45.79292" lon="4.34148">
        <ele>623.552</ele>
        <time>2012-12-16T11:34:27Z</time>
      </trkpt>
      <trkpt lat="45.79294" lon="4.34142">
        <ele>623.552</ele>
        <time>2012-12-16T11:34:31Z</time>
      </trkpt>
      <trkpt lat="45.79295" lon="4.34138">
        <ele>623.552</ele>
        <time>2012-12-16T11:34:33Z</time>
      </trkpt>
      <trkpt lat="45.793" lon="4.34118">
        <ele>624.033</ele>
        <time>2012-12-16T11:34:44Z</time>
      </trkpt>
      <trkpt lat="45.79302" lon="4.34114">
        <ele>623.552</ele>
        <time>2012-12-16T11:34:47Z</time>
      </trkpt>
      <trkpt lat="45.79303" lon="4.34106">
        <ele>623.072</ele>
        <time>2012-12-16T11:34:51Z</time>
      </trkpt>
      <trkpt lat="45.79306" lon="4.3409">
        <ele>623.552</ele>
        <time>2012-12-16T11:35:00Z</time>
      </trkpt>
      <trkpt lat="45.79307" lon="4.34082">
        <ele>623.072</ele>
        <time>2012-12-16T11:35:05Z</time>
      </trkpt>
      <trkpt lat="45.7931" lon="4.34064">
        <ele>623.552</ele>
        <time>2012-12-16T11:35:16Z</time>
      </trkpt>
      <trkpt lat="45.79309" lon="4.34049">
        <ele>624.033</ele>
        <time>2012-12-16T11:35:24Z</time>
      </trkpt>
      <trkpt lat="45.79305" lon="4.34035">
        <ele>623.072</ele>
        <time>2012-12-16T11:35:32Z</time>
      </trkpt>
      <trkpt lat="45.79299" lon="4.34025">
        <ele>621.149</ele>
        <time>2012-12-16T11:35:38Z</time>
      </trkpt>
      <trkpt lat="45.79289" lon="4.3402">
        <ele>617.784</ele>
        <time>2012-12-16T11:35:47Z</time>
      </trkpt>
      <trkpt lat="45.79285" lon="4.34018">
        <ele>615.381</ele>
        <time>2012-12-16T11:35:53Z</time>
      </trkpt>
      <trkpt lat="45.7928" lon="4.34012">
        <ele>614.9</ele>
        <time>2012-12-16T11:35:57Z</time>
      </trkpt>
      <trkpt lat="45.79275" lon="4.34009">
        <ele>614.42</ele>
        <time>2012-12-16T11:36:01Z</time>
      </trkpt>
      <trkpt lat="45.79265" lon="4.33998">
        <ele>615.862</ele>
        <time>2012-12-16T11:36:09Z</time>
      </trkpt>
      <trkpt lat="45.79259" lon="4.33995">
        <ele>615.381</ele>
        <time>2012-12-16T11:36:13Z</time>
      </trkpt>
      <trkpt lat="45.79256" lon="4.33995">
        <ele>614.9</ele>
        <time>2012-12-16T11:36:35Z</time>
      </trkpt>
      <trkpt lat="45.79253" lon="4.33993">
        <ele>614.9</ele>
        <time>2012-12-16T11:36:48Z</time>
      </trkpt>
      <trkpt lat="45.79248" lon="4.33985">
        <ele>612.978</ele>
        <time>2012-12-16T11:37:03Z</time>
      </trkpt>
      <trkpt lat="45.79242" lon="4.33982">
        <ele>611.055</ele>
        <time>2012-12-16T11:37:30Z</time>
      </trkpt>
      <trkpt lat="45.79239" lon="4.3398">
        <ele>611.055</ele>
        <time>2012-12-16T11:37:34Z</time>
      </trkpt>
      <trkpt lat="45.79231" lon="4.33973">
        <ele>611.055</ele>
        <time>2012-12-16T11:37:40Z</time>
      </trkpt>
      <trkpt lat="45.79214" lon="4.33949">
        <ele>611.055</ele>
        <time>2012-12-16T11:37:59Z</time>
      </trkpt>
      <trkpt lat="45.7921" lon="4.33935">
        <ele>611.536</ele>
        <time>2012-12-16T11:38:08Z</time>
      </trkpt>
      <trkpt lat="45.79202" lon="4.33916">
        <ele>611.536</ele>
        <time>2012-12-16T11:38:20Z</time>
      </trkpt>
      <trkpt lat="45.79199" lon="4.33904">
        <ele>611.055</ele>
        <time>2012-12-16T11:38:33Z</time>
      </trkpt>
      <trkpt lat="45.79199" lon="4.33896">
        <ele>610.574</ele>
        <time>2012-12-16T11:38:37Z</time>
      </trkpt>
      <trkpt lat="45.79201" lon="4.33873">
        <ele>610.574</ele>
        <time>2012-12-16T11:38:49Z</time>
      </trkpt>
      <trkpt lat="45.79201" lon="4.33872">
        <ele>610.574</ele>
        <time>2012-12-16T11:38:50Z</time>
      </trkpt>
      <trkpt lat="45.79198" lon="4.33864">
        <ele>612.017</ele>
        <time>2012-12-16T11:38:55Z</time>
      </trkpt>
      <trkpt lat="45.79196" lon="4.33862">
        <ele>612.497</ele>
        <time>2012-12-16T11:38:57Z</time>
      </trkpt>
      <trkpt lat="45.79191" lon="4.33859">
        <ele>612.978</ele>
        <time>2012-12-16T11:39:01Z</time>
      </trkpt>
      <trkpt lat="45.7919" lon="4.33866">
        <ele>613.939</ele>
        <time>2012-12-16T11:39:17Z</time>
      </trkpt>
      <trkpt lat="45.79189" lon="4.33864">
        <ele>614.42</ele>
        <time>2012-12-16T11:39:27Z</time>
      </trkpt>
      <trkpt lat="45.79188" lon="4.33862">
        <ele>613.939</ele>
        <time>2012-12-16T11:39:29Z</time>
      </trkpt>
      <trkpt lat="45.79187" lon="4.33854">
        <ele>612.497</ele>
        <time>2012-12-16T11:39:33Z</time>
      </trkpt>
      <trkpt lat="45.79187" lon="4.33842">
        <ele>611.536</ele>
        <time>2012-12-16T11:39:47Z</time>
      </trkpt>
      <trkpt lat="45.79184" lon="4.33844">
        <ele>613.458</ele>
        <time>2012-12-16T11:40:14Z</time>
      </trkpt>
      <trkpt lat="45.79181" lon="4.3384">
        <ele>613.939</ele>
        <time>2012-12-16T11:40:37Z</time>
      </trkpt>
      <trkpt lat="45.7918" lon="4.33836">
        <ele>612.978</ele>
        <time>2012-12-16T11:40:43Z</time>
      </trkpt>
      <trkpt lat="45.79179" lon="4.33832">
        <ele>612.017</ele>
        <time>2012-12-16T11:40:52Z</time>
      </trkpt>
      <trkpt lat="45.79177" lon="4.33825">
        <ele>612.017</ele>
        <time>2012-12-16T11:40:57Z</time>
      </trkpt>
      <trkpt lat="45.79175" lon="4.33822">
        <ele>612.017</ele>
        <time>2012-12-16T11:40:59Z</time>
      </trkpt>
      <trkpt lat="45.79171" lon="4.33818">
        <ele>612.497</ele>
        <time>2012-12-16T11:41:03Z</time>
      </trkpt>
      <trkpt lat="45.79168" lon="4.33812">
        <ele>613.458</ele>
        <time>2012-12-16T11:41:08Z</time>
      </trkpt>
      <trkpt lat="45.79168" lon="4.33809">
        <ele>613.939</ele>
        <time>2012-12-16T11:41:13Z</time>
      </trkpt>
      <trkpt lat="45.79167" lon="4.33806">
        <ele>614.9</ele>
        <time>2012-12-16T11:41:17Z</time>
      </trkpt>
      <trkpt lat="45.79173" lon="4.33818">
        <ele>614.9</ele>
        <time>2012-12-16T11:41:26Z</time>
      </trkpt>
      <trkpt lat="45.79177" lon="4.33825">
        <ele>613.458</ele>
        <time>2012-12-16T11:41:38Z</time>
      </trkpt>
      <trkpt lat="45.79177" lon="4.33826">
        <ele>613.458</ele>
        <time>2012-12-16T11:41:39Z</time>
      </trkpt>
      <trkpt lat="45.79175" lon="4.33833">
        <ele>612.017</ele>
        <time>2012-12-16T11:41:43Z</time>
      </trkpt>
      <trkpt lat="45.79173" lon="4.33839">
        <ele>611.055</ele>
        <time>2012-12-16T11:41:48Z</time>
      </trkpt>
      <trkpt lat="45.79184" lon="4.33845">
        <ele>612.017</ele>
        <time>2012-12-16T11:42:01Z</time>
      </trkpt>
      <trkpt lat="45.79191" lon="4.33845">
        <ele>608.171</ele>
        <time>2012-12-16T11:42:11Z</time>
      </trkpt>
      <trkpt lat="45.79197" lon="4.33846">
        <ele>605.768</ele>
        <time>2012-12-16T11:42:16Z</time>
      </trkpt>
      <trkpt lat="45.79206" lon="4.33843">
        <ele>603.845</ele>
        <time>2012-12-16T11:42:32Z</time>
      </trkpt>
      <trkpt lat="45.79223" lon="4.33783">
        <ele>605.768</ele>
        <time>2012-12-16T11:45:03Z</time>
      </trkpt>
      <trkpt lat="45.79204" lon="4.33834">
        <ele>615.862</ele>
        <time>2012-12-16T11:48:41Z</time>
      </trkpt>
      <trkpt lat="45.7919" lon="4.33848">
        <ele>625.475</ele>
        <time>2012-12-16T11:48:55Z</time>
      </trkpt>
      <trkpt lat="45.79185" lon="4.3385">
        <ele>633.165</ele>
        <time>2012-12-16T11:49:08Z</time>
      </trkpt>
      <trkpt lat="45.7918" lon="4.33847">
        <ele>633.646</ele>
        <time>2012-12-16T11:49:18Z</time>
      </trkpt>
      <trkpt lat="45.79181" lon="4.33822">
        <ele>628.359</ele>
        <time>2012-12-16T11:49:27Z</time>
      </trkpt>
      <trkpt lat="45.79176" lon="4.33817">
        <ele>631.243</ele>
        <time>2012-12-16T11:49:32Z</time>
      </trkpt>
      <trkpt lat="45.79174" lon="4.33815">
        <ele>632.204</ele>
        <time>2012-12-16T11:49:34Z</time>
      </trkpt>
      <trkpt lat="45.79169" lon="4.33805">
        <ele>634.127</ele>
        <time>2012-12-16T11:49:40Z</time>
      </trkpt>
      <trkpt lat="45.79165" lon="4.33793">
        <ele>635.088</ele>
        <time>2012-12-16T11:49:48Z</time>
      </trkpt>
      <trkpt lat="45.7916" lon="4.33774">
        <ele>633.646</ele>
        <time>2012-12-16T11:50:00Z</time>
      </trkpt>
      <trkpt lat="45.7916" lon="4.33767">
        <ele>632.685</ele>
        <time>2012-12-16T11:50:03Z</time>
      </trkpt>
      <trkpt lat="45.79159" lon="4.33761">
        <ele>632.204</ele>
        <time>2012-12-16T11:50:07Z</time>
      </trkpt>
      <trkpt lat="45.79155" lon="4.33755">
        <ele>633.165</ele>
        <time>2012-12-16T11:50:12Z</time>
      </trkpt>
      <trkpt lat="45.79154" lon="4.33739">
        <ele>630.281</ele>
        <time>2012-12-16T11:50:20Z</time>
      </trkpt>
      <trkpt lat="45.79144" lon="4.3372">
        <ele>629.32</ele>
        <time>2012-12-16T11:50:33Z</time>
      </trkpt>
      <trkpt lat="45.79143" lon="4.33711">
        <ele>628.84</ele>
        <time>2012-12-16T11:50:37Z</time>
      </trkpt>
      <trkpt lat="45.79137" lon="4.33695">
        <ele>626.436</ele>
        <time>2012-12-16T11:50:46Z</time>
      </trkpt>
      <trkpt lat="45.79137" lon="4.33693">
        <ele>625.475</ele>
        <time>2012-12-16T11:50:48Z</time>
      </trkpt>
      <trkpt lat="45.79127" lon="4.33675">
        <ele>620.668</ele>
        <time>2012-12-16T11:51:00Z</time>
      </trkpt>
      <trkpt lat="45.79125" lon="4.33668">
        <ele>618.746</ele>
        <time>2012-12-16T11:51:04Z</time>
      </trkpt>
      <trkpt lat="45.79118" lon="4.33649">
        <ele>614.9</ele>
        <time>2012-12-16T11:51:15Z</time>
      </trkpt>
      <trkpt lat="45.7911" lon="4.33637">
        <ele>610.094</ele>
        <time>2012-12-16T11:51:23Z</time>
      </trkpt>
      <trkpt lat="45.79103" lon="4.33628">
        <ele>607.21</ele>
        <time>2012-12-16T11:51:30Z</time>
      </trkpt>
      <trkpt lat="45.79099" lon="4.33621">
        <ele>605.768</ele>
        <time>2012-12-16T11:51:35Z</time>
      </trkpt>
      <trkpt lat="45.79081" lon="4.33594">
        <ele>598.077</ele>
        <time>2012-12-16T11:51:53Z</time>
      </trkpt>
      <trkpt lat="45.79073" lon="4.33582">
        <ele>595.674</ele>
        <time>2012-12-16T11:52:02Z</time>
      </trkpt>
      <trkpt lat="45.79062" lon="4.33571">
        <ele>594.713</ele>
        <time>2012-12-16T11:52:12Z</time>
      </trkpt>
      <trkpt lat="45.79059" lon="4.33568">
        <ele>593.751</ele>
        <time>2012-12-16T11:52:16Z</time>
      </trkpt>
      <trkpt lat="45.79054" lon="4.33563">
        <ele>591.829</ele>
        <time>2012-12-16T11:52:21Z</time>
      </trkpt>
      <trkpt lat="45.79052" lon="4.33557">
        <ele>590.387</ele>
        <time>2012-12-16T11:52:25Z</time>
      </trkpt>
      <trkpt lat="45.79043" lon="4.33535">
        <ele>586.542</ele>
        <time>2012-12-16T11:52:38Z</time>
      </trkpt>
      <trkpt lat="45.79037" lon="4.33519">
        <ele>584.619</ele>
        <time>2012-12-16T11:52:47Z</time>
      </trkpt>
      <trkpt lat="45.79028" lon="4.33489">
        <ele>587.983</ele>
        <time>2012-12-16T11:53:03Z</time>
      </trkpt>
      <trkpt lat="45.79023" lon="4.33481">
        <ele>592.79</ele>
        <time>2012-12-16T11:53:10Z</time>
      </trkpt>
      <trkpt lat="45.79016" lon="4.33469">
        <ele>601.923</ele>
        <time>2012-12-16T11:53:22Z</time>
      </trkpt>
      <trkpt lat="45.79013" lon="4.33466">
        <ele>603.845</ele>
        <time>2012-12-16T11:53:25Z</time>
      </trkpt>
      <trkpt lat="45.7901" lon="4.33461">
        <ele>605.768</ele>
        <time>2012-12-16T11:53:29Z</time>
      </trkpt>
      <trkpt lat="45.79007" lon="4.33454">
        <ele>607.691</ele>
        <time>2012-12-16T11:53:33Z</time>
      </trkpt>
      <trkpt lat="45.78998" lon="4.33439">
        <ele>608.171</ele>
        <time>2012-12-16T11:53:41Z</time>
      </trkpt>
      <trkpt lat="45.78998" lon="4.33427">
        <ele>611.055</ele>
        <time>2012-12-16T11:53:50Z</time>
      </trkpt>
      <trkpt lat="45.78997" lon="4.33414">
        <ele>622.591</ele>
        <time>2012-12-16T11:54:00Z</time>
      </trkpt>
      <trkpt lat="45.78994" lon="4.33392">
        <ele>627.878</ele>
        <time>2012-12-16T11:54:11Z</time>
      </trkpt>
      <trkpt lat="45.78997" lon="4.33386">
        <ele>629.32</ele>
        <time>2012-12-16T11:54:18Z</time>
      </trkpt>
      <trkpt lat="45.79005" lon="4.33385">
        <ele>630.281</ele>
        <time>2012-12-16T11:54:29Z</time>
      </trkpt>
      <trkpt lat="45.79019" lon="4.33379">
        <ele>628.359</ele>
        <time>2012-12-16T11:54:38Z</time>
      </trkpt>
      <trkpt lat="45.79033" lon="4.33383">
        <ele>621.149</ele>
        <time>2012-12-16T11:54:51Z</time>
      </trkpt>
      <trkpt lat="45.79046" lon="4.33385">
        <ele>614.9</ele>
        <time>2012-12-16T11:55:04Z</time>
      </trkpt>
      <trkpt lat="45.79052" lon="4.33383">
        <ele>615.862</ele>
        <time>2012-12-16T11:55:11Z</time>
      </trkpt>
      <trkpt lat="45.79062" lon="4.33371">
        <ele>622.11</ele>
        <time>2012-12-16T11:55:25Z</time>
      </trkpt>
      <trkpt lat="45.7907" lon="4.33358">
        <ele>625.475</ele>
        <time>2012-12-16T11:55:34Z</time>
      </trkpt>
      <trkpt lat="45.79076" lon="4.33348">
        <ele>625.475</ele>
        <time>2012-12-16T11:55:43Z</time>
      </trkpt>
      <trkpt lat="45.79085" lon="4.33338">
        <ele>624.033</ele>
        <time>2012-12-16T11:55:55Z</time>
      </trkpt>
      <trkpt lat="45.79098" lon="4.33318">
        <ele>620.668</ele>
        <time>2012-12-16T11:56:07Z</time>
      </trkpt>
      <trkpt lat="45.79123" lon="4.33302">
        <ele>616.823</ele>
        <time>2012-12-16T11:56:22Z</time>
      </trkpt>
      <trkpt lat="45.79144" lon="4.33287">
        <ele>612.497</ele>
        <time>2012-12-16T11:56:35Z</time>
      </trkpt>
      <trkpt lat="45.79158" lon="4.33275">
        <ele>608.171</ele>
        <time>2012-12-16T11:56:43Z</time>
      </trkpt>
      <trkpt lat="45.79164" lon="4.33269">
        <ele>605.287</ele>
        <time>2012-12-16T11:56:47Z</time>
      </trkpt>
      <trkpt lat="45.79169" lon="4.33254">
        <ele>601.923</ele>
        <time>2012-12-16T11:56:52Z</time>
      </trkpt>
      <trkpt lat="45.79177" lon="4.33221">
        <ele>598.077</ele>
        <time>2012-12-16T11:57:04Z</time>
      </trkpt>
      <trkpt lat="45.79177" lon="4.33209">
        <ele>597.116</ele>
        <time>2012-12-16T11:57:10Z</time>
      </trkpt>
      <trkpt lat="45.79174" lon="4.33189">
        <ele>594.232</ele>
        <time>2012-12-16T11:57:21Z</time>
      </trkpt>
      <trkpt lat="45.79166" lon="4.33163">
        <ele>590.387</ele>
        <time>2012-12-16T11:57:35Z</time>
      </trkpt>
      <trkpt lat="45.79161" lon="4.33144">
        <ele>586.542</ele>
        <time>2012-12-16T11:57:45Z</time>
      </trkpt>
      <trkpt lat="45.79157" lon="4.33127">
        <ele>583.177</ele>
        <time>2012-12-16T11:57:54Z</time>
      </trkpt>
      <trkpt lat="45.79159" lon="4.33115">
        <ele>580.774</ele>
        <time>2012-12-16T11:58:00Z</time>
      </trkpt>
      <trkpt lat="45.79156" lon="4.33095">
        <ele>578.37</ele>
        <time>2012-12-16T11:58:10Z</time>
      </trkpt>
      <trkpt lat="45.79155" lon="4.33092">
        <ele>578.37</ele>
        <time>2012-12-16T11:58:12Z</time>
      </trkpt>
      <trkpt lat="45.79155" lon="4.33086">
        <ele>577.409</ele>
        <time>2012-12-16T11:58:15Z</time>
      </trkpt>
      <trkpt lat="45.79154" lon="4.33065">
        <ele>575.967</ele>
        <time>2012-12-16T11:58:26Z</time>
      </trkpt>
      <trkpt lat="45.79153" lon="4.33047">
        <ele>575.967</ele>
        <time>2012-12-16T11:58:34Z</time>
      </trkpt>
      <trkpt lat="45.79153" lon="4.3304">
        <ele>576.928</ele>
        <time>2012-12-16T11:58:38Z</time>
      </trkpt>
      <trkpt lat="45.79152" lon="4.33035">
        <ele>577.89</ele>
        <time>2012-12-16T11:58:41Z</time>
      </trkpt>
      <trkpt lat="45.79146" lon="4.3301">
        <ele>579.332</ele>
        <time>2012-12-16T11:58:53Z</time>
      </trkpt>
      <trkpt lat="45.79137" lon="4.32989">
        <ele>577.409</ele>
        <time>2012-12-16T11:59:04Z</time>
      </trkpt>
      <trkpt lat="45.79136" lon="4.32978">
        <ele>575.006</ele>
        <time>2012-12-16T11:59:09Z</time>
      </trkpt>
      <trkpt lat="45.79136" lon="4.32976">
        <ele>574.044</ele>
        <time>2012-12-16T11:59:11Z</time>
      </trkpt>
      <trkpt lat="45.79136" lon="4.32974">
        <ele>573.083</ele>
        <time>2012-12-16T11:59:18Z</time>
      </trkpt>
      <trkpt lat="45.79132" lon="4.32968">
        <ele>570.199</ele>
        <time>2012-12-16T11:59:22Z</time>
      </trkpt>
      <trkpt lat="45.79126" lon="4.32955">
        <ele>568.757</ele>
        <time>2012-12-16T11:59:34Z</time>
      </trkpt>
      <trkpt lat="45.79126" lon="4.32955">
        <ele>568.757</ele>
        <time>2012-12-16T11:59:43Z</time>
      </trkpt>
      <trkpt lat="45.79121" lon="4.3295">
        <ele>566.354</ele>
        <time>2012-12-16T11:59:49Z</time>
      </trkpt>
      <trkpt lat="45.79105" lon="4.32921">
        <ele>559.625</ele>
        <time>2012-12-16T12:00:07Z</time>
      </trkpt>
      <trkpt lat="45.7909" lon="4.329">
        <ele>556.26</ele>
        <time>2012-12-16T12:00:21Z</time>
      </trkpt>
      <trkpt lat="45.79082" lon="4.32886">
        <ele>556.26</ele>
        <time>2012-12-16T12:00:31Z</time>
      </trkpt>
      <trkpt lat="45.79082" lon="4.32879">
        <ele>556.26</ele>
        <time>2012-12-16T12:00:35Z</time>
      </trkpt>
      <trkpt lat="45.79076" lon="4.32868">
        <ele>555.779</ele>
        <time>2012-12-16T12:00:45Z</time>
      </trkpt>
      <trkpt lat="45.79077" lon="4.32859">
        <ele>559.144</ele>
        <time>2012-12-16T12:00:55Z</time>
      </trkpt>
      <trkpt lat="45.79078" lon="4.32855">
        <ele>560.586</ele>
        <time>2012-12-16T12:00:58Z</time>
      </trkpt>
      <trkpt lat="45.7908" lon="4.32842">
        <ele>563.95</ele>
        <time>2012-12-16T12:01:06Z</time>
      </trkpt>
      <trkpt lat="45.79081" lon="4.32818">
        <ele>566.354</ele>
        <time>2012-12-16T12:01:16Z</time>
      </trkpt>
      <trkpt lat="45.79078" lon="4.32812">
        <ele>566.354</ele>
        <time>2012-12-16T12:01:19Z</time>
      </trkpt>
      <trkpt lat="45.79078" lon="4.32803">
        <ele>567.315</ele>
        <time>2012-12-16T12:01:23Z</time>
      </trkpt>
      <trkpt lat="45.79076" lon="4.32799">
        <ele>568.276</ele>
        <time>2012-12-16T12:01:26Z</time>
      </trkpt>
      <trkpt lat="45.79073" lon="4.32782">
        <ele>570.68</ele>
        <time>2012-12-16T12:01:36Z</time>
      </trkpt>
      <trkpt lat="45.79064" lon="4.32766">
        <ele>573.083</ele>
        <time>2012-12-16T12:01:47Z</time>
      </trkpt>
      <trkpt lat="45.79057" lon="4.32758">
        <ele>576.928</ele>
        <time>2012-12-16T12:01:57Z</time>
      </trkpt>
      <trkpt lat="45.79053" lon="4.32751">
        <ele>579.812</ele>
        <time>2012-12-16T12:02:04Z</time>
      </trkpt>
      <trkpt lat="45.79048" lon="4.32739">
        <ele>579.812</ele>
        <time>2012-12-16T12:02:22Z</time>
      </trkpt>
      <trkpt lat="45.79041" lon="4.32739">
        <ele>578.37</ele>
        <time>2012-12-16T12:02:26Z</time>
      </trkpt>
      <trkpt lat="45.79031" lon="4.32727">
        <ele>579.332</ele>
        <time>2012-12-16T12:02:34Z</time>
      </trkpt>
      <trkpt lat="45.79019" lon="4.32718">
        <ele>581.254</ele>
        <time>2012-12-16T12:02:45Z</time>
      </trkpt>
      <trkpt lat="45.79017" lon="4.32716">
        <ele>581.735</ele>
        <time>2012-12-16T12:02:47Z</time>
      </trkpt>
      <trkpt lat="45.79014" lon="4.3271">
        <ele>583.177</ele>
        <time>2012-12-16T12:02:51Z</time>
      </trkpt>
      <trkpt lat="45.79003" lon="4.32699">
        <ele>587.983</ele>
        <time>2012-12-16T12:03:01Z</time>
      </trkpt>
      <trkpt lat="45.79001" lon="4.32692">
        <ele>590.387</ele>
        <time>2012-12-16T12:03:07Z</time>
      </trkpt>
      <trkpt lat="45.78998" lon="4.32692">
        <ele>591.348</ele>
        <time>2012-12-16T12:03:09Z</time>
      </trkpt>
      <trkpt lat="45.78987" lon="4.32685">
        <ele>597.116</ele>
        <time>2012-12-16T12:03:18Z</time>
      </trkpt>
      <trkpt lat="45.78985" lon="4.32684">
        <ele>597.116</ele>
        <time>2012-12-16T12:03:19Z</time>
      </trkpt>
      <trkpt lat="45.78967" lon="4.32671">
        <ele>597.597</ele>
        <time>2012-12-16T12:03:31Z</time>
      </trkpt>
      <trkpt lat="45.78953" lon="4.32657">
        <ele>594.232</ele>
        <time>2012-12-16T12:03:43Z</time>
      </trkpt>
      <trkpt lat="45.78939" lon="4.32651">
        <ele>589.906</ele>
        <time>2012-12-16T12:03:51Z</time>
      </trkpt>
      <trkpt lat="45.78926" lon="4.32646">
        <ele>584.138</ele>
        <time>2012-12-16T12:03:59Z</time>
      </trkpt>
      <trkpt lat="45.78922" lon="4.32643">
        <ele>582.216</ele>
        <time>2012-12-16T12:04:01Z</time>
      </trkpt>
      <trkpt lat="45.78903" lon="4.32633">
        <ele>569.719</ele>
        <time>2012-12-16T12:04:11Z</time>
      </trkpt>
      <trkpt lat="45.78895" lon="4.32625">
        <ele>564.431</ele>
        <time>2012-12-16T12:04:16Z</time>
      </trkpt>
      <trkpt lat="45.78875" lon="4.32613">
        <ele>555.779</ele>
        <time>2012-12-16T12:04:27Z</time>
      </trkpt>
      <trkpt lat="45.78853" lon="4.32602">
        <ele>550.492</ele>
        <time>2012-12-16T12:04:40Z</time>
      </trkpt>
      <trkpt lat="45.78851" lon="4.32601">
        <ele>550.011</ele>
        <time>2012-12-16T12:04:41Z</time>
      </trkpt>
      <trkpt lat="45.78849" lon="4.326">
        <ele>549.05</ele>
        <time>2012-12-16T12:04:43Z</time>
      </trkpt>
      <trkpt lat="45.78845" lon="4.32599">
        <ele>548.089</ele>
        <time>2012-12-16T12:04:45Z</time>
      </trkpt>
      <trkpt lat="45.78843" lon="4.32597">
        <ele>548.089</ele>
        <time>2012-12-16T12:04:47Z</time>
      </trkpt>
      <trkpt lat="45.78836" lon="4.32593">
        <ele>548.089</ele>
        <time>2012-12-16T12:04:52Z</time>
      </trkpt>
      <trkpt lat="45.7882" lon="4.32586">
        <ele>543.763</ele>
        <time>2012-12-16T12:05:03Z</time>
      </trkpt>
      <trkpt lat="45.78801" lon="4.32583">
        <ele>539.918</ele>
        <time>2012-12-16T12:05:15Z</time>
      </trkpt>
      <trkpt lat="45.78798" lon="4.32583">
        <ele>539.918</ele>
        <time>2012-12-16T12:05:17Z</time>
      </trkpt>
      <trkpt lat="45.78789" lon="4.3258">
        <ele>539.437</ele>
        <time>2012-12-16T12:05:23Z</time>
      </trkpt>
      <trkpt lat="45.78785" lon="4.32578">
        <ele>538.956</ele>
        <time>2012-12-16T12:05:26Z</time>
      </trkpt>
      <trkpt lat="45.78767" lon="4.32572">
        <ele>536.553</ele>
        <time>2012-12-16T12:05:39Z</time>
      </trkpt>
      <trkpt lat="45.78766" lon="4.32571">
        <ele>536.553</ele>
        <time>2012-12-16T12:05:40Z</time>
      </trkpt>
      <trkpt lat="45.78754" lon="4.32563">
        <ele>535.592</ele>
        <time>2012-12-16T12:05:50Z</time>
      </trkpt>
      <trkpt lat="45.78744" lon="4.32556">
        <ele>535.111</ele>
        <time>2012-12-16T12:05:58Z</time>
      </trkpt>
      <trkpt lat="45.78737" lon="4.32552">
        <ele>535.592</ele>
        <time>2012-12-16T12:06:04Z</time>
      </trkpt>
      <trkpt lat="45.78732" lon="4.32548">
        <ele>535.111</ele>
        <time>2012-12-16T12:06:08Z</time>
      </trkpt>
      <trkpt lat="45.78722" lon="4.32543">
        <ele>534.63</ele>
        <time>2012-12-16T12:06:16Z</time>
      </trkpt>
      <trkpt lat="45.78719" lon="4.32535">
        <ele>535.592</ele>
        <time>2012-12-16T12:06:21Z</time>
      </trkpt>
      <trkpt lat="45.78709" lon="4.32515">
        <ele>535.111</ele>
        <time>2012-12-16T12:06:32Z</time>
      </trkpt>
      <trkpt lat="45.78708" lon="4.32513">
        <ele>535.111</ele>
        <time>2012-12-16T12:06:33Z</time>
      </trkpt>
      <trkpt lat="45.78704" lon="4.32507">
        <ele>534.63</ele>
        <time>2012-12-16T12:06:38Z</time>
      </trkpt>
      <trkpt lat="45.78701" lon="4.325">
        <ele>535.111</ele>
        <time>2012-12-16T12:06:42Z</time>
      </trkpt>
      <trkpt lat="45.78685" lon="4.32472">
        <ele>536.072</ele>
        <time>2012-12-16T12:06:58Z</time>
      </trkpt>
      <trkpt lat="45.78677" lon="4.32461">
        <ele>535.111</ele>
        <time>2012-12-16T12:07:04Z</time>
      </trkpt>
      <trkpt lat="45.78667" lon="4.32439">
        <ele>531.746</ele>
        <time>2012-12-16T12:07:15Z</time>
      </trkpt>
      <trkpt lat="45.78661" lon="4.32416">
        <ele>528.863</ele>
        <time>2012-12-16T12:07:26Z</time>
      </trkpt>
      <trkpt lat="45.7866" lon="4.32411">
        <ele>528.382</ele>
        <time>2012-12-16T12:07:29Z</time>
      </trkpt>
      <trkpt lat="45.78658" lon="4.32399">
        <ele>529.343</ele>
        <time>2012-12-16T12:07:35Z</time>
      </trkpt>
      <trkpt lat="45.78657" lon="4.32384">
        <ele>530.304</ele>
        <time>2012-12-16T12:07:43Z</time>
      </trkpt>
      <trkpt lat="45.78656" lon="4.32368">
        <ele>529.824</ele>
        <time>2012-12-16T12:07:51Z</time>
      </trkpt>
      <trkpt lat="45.78653" lon="4.3235">
        <ele>531.266</ele>
        <time>2012-12-16T12:08:00Z</time>
      </trkpt>
      <trkpt lat="45.78646" lon="4.32324">
        <ele>532.227</ele>
        <time>2012-12-16T12:08:13Z</time>
      </trkpt>
      <trkpt lat="45.78645" lon="4.32318">
        <ele>532.227</ele>
        <time>2012-12-16T12:08:16Z</time>
      </trkpt>
      <trkpt lat="45.78638" lon="4.32297">
        <ele>531.266</ele>
        <time>2012-12-16T12:08:27Z</time>
      </trkpt>
      <trkpt lat="45.7863" lon="4.32276">
        <ele>529.824</ele>
        <time>2012-12-16T12:08:39Z</time>
      </trkpt>
      <trkpt lat="45.78629" lon="4.32272">
        <ele>529.824</ele>
        <time>2012-12-16T12:08:41Z</time>
      </trkpt>
      <trkpt lat="45.78627" lon="4.32265">
        <ele>529.824</ele>
        <time>2012-12-16T12:08:45Z</time>
      </trkpt>
      <trkpt lat="45.78626" lon="4.32255">
        <ele>530.785</ele>
        <time>2012-12-16T12:08:51Z</time>
      </trkpt>
      <trkpt lat="45.78622" lon="4.32245">
        <ele>531.266</ele>
        <time>2012-12-16T12:08:58Z</time>
      </trkpt>
      <trkpt lat="45.78618" lon="4.32228">
        <ele>532.708</ele>
        <time>2012-12-16T12:09:10Z</time>
      </trkpt>
      <trkpt lat="45.78616" lon="4.32223">
        <ele>533.188</ele>
        <time>2012-12-16T12:09:13Z</time>
      </trkpt>
      <trkpt lat="45.78615" lon="4.32215">
        <ele>533.669</ele>
        <time>2012-12-16T12:09:32Z</time>
      </trkpt>
      <trkpt lat="45.78612" lon="4.32204">
        <ele>532.708</ele>
        <time>2012-12-16T12:09:53Z</time>
      </trkpt>
      <trkpt lat="45.78606" lon="4.32184">
        <ele>533.669</ele>
        <time>2012-12-16T12:10:03Z</time>
      </trkpt>
      <trkpt lat="45.78605" lon="4.32178">
        <ele>534.15</ele>
        <time>2012-12-16T12:10:06Z</time>
      </trkpt>
      <trkpt lat="45.78604" lon="4.32159">
        <ele>534.63</ele>
        <time>2012-12-16T12:10:14Z</time>
      </trkpt>
      <trkpt lat="45.78597" lon="4.32142">
        <ele>534.15</ele>
        <time>2012-12-16T12:10:26Z</time>
      </trkpt>
      <trkpt lat="45.7859" lon="4.32122">
        <ele>531.266</ele>
        <time>2012-12-16T12:10:34Z</time>
      </trkpt>
      <trkpt lat="45.78582" lon="4.32103">
        <ele>526.94</ele>
        <time>2012-12-16T12:10:44Z</time>
      </trkpt>
      <trkpt lat="45.78581" lon="4.32095">
        <ele>523.575</ele>
        <time>2012-12-16T12:10:49Z</time>
      </trkpt>
      <trkpt lat="45.78579" lon="4.32085">
        <ele>520.691</ele>
        <time>2012-12-16T12:10:54Z</time>
      </trkpt>
      <trkpt lat="45.78578" lon="4.32081">
        <ele>519.73</ele>
        <time>2012-12-16T12:10:56Z</time>
      </trkpt>
      <trkpt lat="45.78573" lon="4.32065">
        <ele>517.807</ele>
        <time>2012-12-16T12:11:03Z</time>
      </trkpt>
      <trkpt lat="45.78571" lon="4.32047">
        <ele>518.288</ele>
        <time>2012-12-16T12:11:15Z</time>
      </trkpt>
      <trkpt lat="45.7857" lon="4.32042">
        <ele>519.249</ele>
        <time>2012-12-16T12:11:17Z</time>
      </trkpt>
      <trkpt lat="45.78568" lon="4.32032">
        <ele>520.211</ele>
        <time>2012-12-16T12:11:20Z</time>
      </trkpt>
      <trkpt lat="45.78566" lon="4.32024">
        <ele>520.211</ele>
        <time>2012-12-16T12:11:23Z</time>
      </trkpt>
      <trkpt lat="45.78563" lon="4.32006">
        <ele>519.249</ele>
        <time>2012-12-16T12:11:32Z</time>
      </trkpt>
      <trkpt lat="45.78561" lon="4.31993">
        <ele>518.288</ele>
        <time>2012-12-16T12:11:39Z</time>
      </trkpt>
      <trkpt lat="45.78555" lon="4.31973">
        <ele>516.365</ele>
        <time>2012-12-16T12:11:47Z</time>
      </trkpt>
      <trkpt lat="45.7855" lon="4.31962">
        <ele>515.885</ele>
        <time>2012-12-16T12:11:53Z</time>
      </trkpt>
      <trkpt lat="45.78536" lon="4.31941">
        <ele>514.443</ele>
        <time>2012-12-16T12:12:05Z</time>
      </trkpt>
      <trkpt lat="45.78528" lon="4.31924">
        <ele>513.481</ele>
        <time>2012-12-16T12:12:15Z</time>
      </trkpt>
      <trkpt lat="45.78518" lon="4.31916">
        <ele>511.078</ele>
        <time>2012-12-16T12:12:23Z</time>
      </trkpt>
      <trkpt lat="45.78516" lon="4.31909">
        <ele>511.078</ele>
        <time>2012-12-16T12:12:27Z</time>
      </trkpt>
      <trkpt lat="45.78513" lon="4.31905">
        <ele>511.559</ele>
        <time>2012-12-16T12:12:31Z</time>
      </trkpt>
      <trkpt lat="45.78505" lon="4.31892">
        <ele>514.443</ele>
        <time>2012-12-16T12:12:41Z</time>
      </trkpt>
      <trkpt lat="45.78503" lon="4.31889">
        <ele>514.923</ele>
        <time>2012-12-16T12:12:44Z</time>
      </trkpt>
      <trkpt lat="45.78501" lon="4.31886">
        <ele>515.404</ele>
        <time>2012-12-16T12:12:46Z</time>
      </trkpt>
      <trkpt lat="45.78488" lon="4.31881">
        <ele>516.365</ele>
        <time>2012-12-16T12:12:57Z</time>
      </trkpt>
      <trkpt lat="45.78483" lon="4.31872">
        <ele>516.365</ele>
        <time>2012-12-16T12:13:03Z</time>
      </trkpt>
      <trkpt lat="45.78478" lon="4.31865">
        <ele>516.365</ele>
        <time>2012-12-16T12:13:08Z</time>
      </trkpt>
      <trkpt lat="45.78464" lon="4.3186">
        <ele>516.846</ele>
        <time>2012-12-16T12:13:19Z</time>
      </trkpt>
      <trkpt lat="45.78452" lon="4.31856">
        <ele>518.769</ele>
        <time>2012-12-16T12:13:28Z</time>
      </trkpt>
      <trkpt lat="45.78436" lon="4.31851">
        <ele>520.691</ele>
        <time>2012-12-16T12:13:39Z</time>
      </trkpt>
      <trkpt lat="45.78434" lon="4.3185">
        <ele>520.691</ele>
        <time>2012-12-16T12:13:40Z</time>
      </trkpt>
      <trkpt lat="45.78428" lon="4.31846">
        <ele>522.133</ele>
        <time>2012-12-16T12:13:50Z</time>
      </trkpt>
      <trkpt lat="45.78429" lon="4.31848">
        <ele>523.575</ele>
        <time>2012-12-16T12:13:58Z</time>
      </trkpt>
      <trkpt lat="45.78429" lon="4.31846">
        <ele>524.536</ele>
        <time>2012-12-16T12:14:03Z</time>
      </trkpt>
      <trkpt lat="45.78433" lon="4.31843">
        <ele>525.978</ele>
        <time>2012-12-16T12:14:08Z</time>
      </trkpt>
      <trkpt lat="45.78438" lon="4.31837">
        <ele>524.056</ele>
        <time>2012-12-16T12:14:17Z</time>
      </trkpt>
      <trkpt lat="45.78443" lon="4.31834">
        <ele>524.536</ele>
        <time>2012-12-16T12:14:21Z</time>
      </trkpt>
      <trkpt lat="45.78458" lon="4.31823">
        <ele>523.575</ele>
        <time>2012-12-16T12:14:32Z</time>
      </trkpt>
      <trkpt lat="45.78475" lon="4.31815">
        <ele>522.614</ele>
        <time>2012-12-16T12:14:46Z</time>
      </trkpt>
      <trkpt lat="45.78491" lon="4.31809">
        <ele>521.653</ele>
        <time>2012-12-16T12:14:58Z</time>
      </trkpt>
      <trkpt lat="45.78497" lon="4.31804">
        <ele>521.172</ele>
        <time>2012-12-16T12:15:03Z</time>
      </trkpt>
      <trkpt lat="45.78502" lon="4.31802">
        <ele>520.691</ele>
        <time>2012-12-16T12:15:13Z</time>
      </trkpt>
      <trkpt lat="45.78503" lon="4.31802">
        <ele>520.691</ele>
        <time>2012-12-16T12:15:26Z</time>
      </trkpt>
      <trkpt lat="45.78507" lon="4.31797">
        <ele>521.172</ele>
        <time>2012-12-16T12:15:30Z</time>
      </trkpt>
      <trkpt lat="45.7851" lon="4.31794">
        <ele>521.172</ele>
        <time>2012-12-16T12:15:33Z</time>
      </trkpt>
      <trkpt lat="45.78521" lon="4.31773">
        <ele>521.172</ele>
        <time>2012-12-16T12:15:45Z</time>
      </trkpt>
      <trkpt lat="45.78525" lon="4.31769">
        <ele>520.691</ele>
        <time>2012-12-16T12:15:48Z</time>
      </trkpt>
      <trkpt lat="45.78536" lon="4.31761">
        <ele>519.73</ele>
        <time>2012-12-16T12:15:57Z</time>
      </trkpt>
      <trkpt lat="45.78552" lon="4.31746">
        <ele>518.769</ele>
        <time>2012-12-16T12:16:08Z</time>
      </trkpt>
      <trkpt lat="45.78557" lon="4.31744">
        <ele>518.769</ele>
        <time>2012-12-16T12:16:12Z</time>
      </trkpt>
      <trkpt lat="45.78568" lon="4.31735">
        <ele>517.327</ele>
        <time>2012-12-16T12:16:20Z</time>
      </trkpt>
      <trkpt lat="45.78579" lon="4.31729">
        <ele>517.807</ele>
        <time>2012-12-16T12:16:29Z</time>
      </trkpt>
      <trkpt lat="45.78589" lon="4.31722">
        <ele>517.327</ele>
        <time>2012-12-16T12:16:38Z</time>
      </trkpt>
      <trkpt lat="45.78604" lon="4.31715">
        <ele>514.923</ele>
        <time>2012-12-16T12:16:49Z</time>
      </trkpt>
      <trkpt lat="45.78614" lon="4.31705">
        <ele>513.001</ele>
        <time>2012-12-16T12:16:57Z</time>
      </trkpt>
      <trkpt lat="45.7862" lon="4.31704">
        <ele>513.001</ele>
        <time>2012-12-16T12:17:02Z</time>
      </trkpt>
      <trkpt lat="45.78639" lon="4.31694">
        <ele>513.962</ele>
        <time>2012-12-16T12:17:17Z</time>
      </trkpt>
      <trkpt lat="45.78652" lon="4.31685">
        <ele>514.923</ele>
        <time>2012-12-16T12:17:28Z</time>
      </trkpt>
      <trkpt lat="45.78664" lon="4.31681">
        <ele>515.885</ele>
        <time>2012-12-16T12:17:37Z</time>
      </trkpt>
      <trkpt lat="45.78677" lon="4.31675">
        <ele>513.962</ele>
        <time>2012-12-16T12:17:46Z</time>
      </trkpt>
      <trkpt lat="45.78683" lon="4.31674">
        <ele>514.443</ele>
        <time>2012-12-16T12:17:53Z</time>
      </trkpt>
      <trkpt lat="45.78685" lon="4.3167">
        <ele>513.962</ele>
        <time>2012-12-16T12:17:56Z</time>
      </trkpt>
      <trkpt lat="45.78696" lon="4.31669">
        <ele>512.039</ele>
        <time>2012-12-16T12:18:05Z</time>
      </trkpt>
      <trkpt lat="45.78708" lon="4.31672">
        <ele>510.117</ele>
        <time>2012-12-16T12:18:15Z</time>
      </trkpt>
      <trkpt lat="45.78711" lon="4.31672">
        <ele>509.636</ele>
        <time>2012-12-16T12:18:17Z</time>
      </trkpt>
      <trkpt lat="45.78721" lon="4.31669">
        <ele>509.636</ele>
        <time>2012-12-16T12:18:22Z</time>
      </trkpt>
      <trkpt lat="45.78737" lon="4.31666">
        <ele>509.636</ele>
        <time>2012-12-16T12:18:30Z</time>
      </trkpt>
      <trkpt lat="45.78748" lon="4.31665">
        <ele>509.636</ele>
        <time>2012-12-16T12:18:39Z</time>
      </trkpt>
      <trkpt lat="45.78762" lon="4.31665">
        <ele>509.155</ele>
        <time>2012-12-16T12:18:50Z</time>
      </trkpt>
      <trkpt lat="45.78771" lon="4.31664">
        <ele>508.675</ele>
        <time>2012-12-16T12:19:00Z</time>
      </trkpt>
      <trkpt lat="45.78778" lon="4.31658">
        <ele>507.233</ele>
        <time>2012-12-16T12:19:09Z</time>
      </trkpt>
      <trkpt lat="45.78781" lon="4.31656">
        <ele>507.233</ele>
        <time>2012-12-16T12:19:13Z</time>
      </trkpt>
      <trkpt lat="45.7879" lon="4.31648">
        <ele>506.271</ele>
        <time>2012-12-16T12:19:20Z</time>
      </trkpt>
      <trkpt lat="45.78798" lon="4.3164">
        <ele>507.714</ele>
        <time>2012-12-16T12:19:28Z</time>
      </trkpt>
      <trkpt lat="45.78808" lon="4.31634">
        <ele>509.636</ele>
        <time>2012-12-16T12:19:36Z</time>
      </trkpt>
      <trkpt lat="45.78815" lon="4.31629">
        <ele>510.117</ele>
        <time>2012-12-16T12:19:40Z</time>
      </trkpt>
      <trkpt lat="45.7882" lon="4.31626">
        <ele>510.597</ele>
        <time>2012-12-16T12:19:47Z</time>
      </trkpt>
      <trkpt lat="45.78837" lon="4.31616">
        <ele>513.001</ele>
        <time>2012-12-16T12:19:59Z</time>
      </trkpt>
      <trkpt lat="45.78847" lon="4.31611">
        <ele>514.443</ele>
        <time>2012-12-16T12:20:08Z</time>
      </trkpt>
      <trkpt lat="45.78856" lon="4.31609">
        <ele>515.404</ele>
        <time>2012-12-16T12:20:13Z</time>
      </trkpt>
      <trkpt lat="45.78861" lon="4.31606">
        <ele>516.365</ele>
        <time>2012-12-16T12:20:17Z</time>
      </trkpt>
      <trkpt lat="45.78864" lon="4.31604">
        <ele>516.365</ele>
        <time>2012-12-16T12:20:20Z</time>
      </trkpt>
      <trkpt lat="45.78879" lon="4.31605">
        <ele>516.365</ele>
        <time>2012-12-16T12:20:30Z</time>
      </trkpt>
      <trkpt lat="45.78884" lon="4.31605">
        <ele>514.923</ele>
        <time>2012-12-16T12:20:34Z</time>
      </trkpt>
      <trkpt lat="45.78898" lon="4.31601">
        <ele>514.443</ele>
        <time>2012-12-16T12:20:41Z</time>
      </trkpt>
      <trkpt lat="45.78904" lon="4.31595">
        <ele>514.923</ele>
        <time>2012-12-16T12:20:47Z</time>
      </trkpt>
      <trkpt lat="45.78916" lon="4.31593">
        <ele>514.923</ele>
        <time>2012-12-16T12:20:55Z</time>
      </trkpt>
      <trkpt lat="45.78925" lon="4.31592">
        <ele>514.923</ele>
        <time>2012-12-16T12:21:01Z</time>
      </trkpt>
      <trkpt lat="45.78941" lon="4.31589">
        <ele>515.404</ele>
        <time>2012-12-16T12:21:12Z</time>
      </trkpt>
      <trkpt lat="45.78957" lon="4.31585">
        <ele>516.365</ele>
        <time>2012-12-16T12:21:22Z</time>
      </trkpt>
      <trkpt lat="45.78973" lon="4.3158">
        <ele>517.807</ele>
        <time>2012-12-16T12:21:32Z</time>
      </trkpt>
      <trkpt lat="45.78977" lon="4.31581">
        <ele>517.807</ele>
        <time>2012-12-16T12:21:36Z</time>
      </trkpt>
      <trkpt lat="45.78979" lon="4.3158">
        <ele>517.327</ele>
        <time>2012-12-16T12:21:38Z</time>
      </trkpt>
      <trkpt lat="45.78984" lon="4.3158">
        <ele>516.365</ele>
        <time>2012-12-16T12:21:41Z</time>
      </trkpt>
      <trkpt lat="45.78991" lon="4.3158">
        <ele>514.443</ele>
        <time>2012-12-16T12:21:51Z</time>
      </trkpt>
      <trkpt lat="45.79003" lon="4.31568">
        <ele>505.31</ele>
        <time>2012-12-16T12:22:12Z</time>
      </trkpt>
      <trkpt lat="45.79004" lon="4.31554">
        <ele>498.1</ele>
        <time>2012-12-16T12:22:23Z</time>
      </trkpt>
      <trkpt lat="45.7901" lon="4.31549">
        <ele>494.736</ele>
        <time>2012-12-16T12:22:59Z</time>
      </trkpt>
      <trkpt lat="45.79014" lon="4.31545">
        <ele>494.736</ele>
        <time>2012-12-16T12:23:10Z</time>
      </trkpt>
      <trkpt lat="45.79018" lon="4.31545">
        <ele>495.216</ele>
        <time>2012-12-16T12:23:13Z</time>
      </trkpt>
      <trkpt lat="45.79034" lon="4.31539">
        <ele>495.216</ele>
        <time>2012-12-16T12:23:25Z</time>
      </trkpt>
      <trkpt lat="45.79037" lon="4.31538">
        <ele>495.216</ele>
        <time>2012-12-16T12:23:27Z</time>
      </trkpt>
      <trkpt lat="45.79041" lon="4.31538">
        <ele>494.736</ele>
        <time>2012-12-16T12:23:30Z</time>
      </trkpt>
      <trkpt lat="45.79052" lon="4.31532">
        <ele>495.216</ele>
        <time>2012-12-16T12:23:40Z</time>
      </trkpt>
      <trkpt lat="45.79064" lon="4.3153">
        <ele>497.139</ele>
        <time>2012-12-16T12:23:52Z</time>
      </trkpt>
      <trkpt lat="45.79072" lon="4.31529">
        <ele>494.736</ele>
        <time>2012-12-16T12:24:02Z</time>
      </trkpt>
      <trkpt lat="45.79076" lon="4.31529">
        <ele>493.774</ele>
        <time>2012-12-16T12:24:05Z</time>
      </trkpt>
      <trkpt lat="45.7908" lon="4.31526">
        <ele>493.294</ele>
        <time>2012-12-16T12:24:08Z</time>
      </trkpt>
      <trkpt lat="45.79094" lon="4.31519">
        <ele>493.774</ele>
        <time>2012-12-16T12:24:19Z</time>
      </trkpt>
      <trkpt lat="45.79104" lon="4.31514">
        <ele>493.294</ele>
        <time>2012-12-16T12:24:29Z</time>
      </trkpt>
      <trkpt lat="45.7911" lon="4.31512">
        <ele>493.774</ele>
        <time>2012-12-16T12:24:33Z</time>
      </trkpt>
      <trkpt lat="45.79123" lon="4.31505">
        <ele>494.736</ele>
        <time>2012-12-16T12:24:40Z</time>
      </trkpt>
      <trkpt lat="45.79134" lon="4.31503">
        <ele>495.216</ele>
        <time>2012-12-16T12:24:47Z</time>
      </trkpt>
      <trkpt lat="45.79139" lon="4.315">
        <ele>495.216</ele>
        <time>2012-12-16T12:24:50Z</time>
      </trkpt>
      <trkpt lat="45.79147" lon="4.315">
        <ele>495.697</ele>
        <time>2012-12-16T12:24:56Z</time>
      </trkpt>
      <trkpt lat="45.79154" lon="4.31499">
        <ele>495.216</ele>
        <time>2012-12-16T12:25:04Z</time>
      </trkpt>
      <trkpt lat="45.79159" lon="4.31499">
        <ele>495.216</ele>
        <time>2012-12-16T12:25:08Z</time>
      </trkpt>
      <trkpt lat="45.79161" lon="4.315">
        <ele>495.216</ele>
        <time>2012-12-16T12:25:10Z</time>
      </trkpt>
      <trkpt lat="45.79165" lon="4.31499">
        <ele>495.216</ele>
        <time>2012-12-16T12:25:13Z</time>
      </trkpt>
      <trkpt lat="45.79167" lon="4.31499">
        <ele>495.697</ele>
        <time>2012-12-16T12:25:15Z</time>
      </trkpt>
      <trkpt lat="45.79169" lon="4.31498">
        <ele>495.697</ele>
        <time>2012-12-16T12:25:17Z</time>
      </trkpt>
      <trkpt lat="45.7918" lon="4.315">
        <ele>495.216</ele>
        <time>2012-12-16T12:25:29Z</time>
      </trkpt>
      <trkpt lat="45.79181" lon="4.31502">
        <ele>496.178</ele>
        <time>2012-12-16T12:26:14Z</time>
      </trkpt>
      <trkpt lat="45.79187" lon="4.31503">
        <ele>497.139</ele>
        <time>2012-12-16T12:26:54Z</time>
      </trkpt>
      <trkpt lat="45.79192" lon="4.31507">
        <ele>498.1</ele>
        <time>2012-12-16T12:27:10Z</time>
      </trkpt>
      <trkpt lat="45.79196" lon="4.31509">
        <ele>497.62</ele>
        <time>2012-12-16T12:27:13Z</time>
      </trkpt>
      <trkpt lat="45.79208" lon="4.31509">
        <ele>495.697</ele>
        <time>2012-12-16T12:27:23Z</time>
      </trkpt>
      <trkpt lat="45.79211" lon="4.3151">
        <ele>494.736</ele>
        <time>2012-12-16T12:27:26Z</time>
      </trkpt>
      <trkpt lat="45.79213" lon="4.31508">
        <ele>494.255</ele>
        <time>2012-12-16T12:27:28Z</time>
      </trkpt>
      <trkpt lat="45.79218" lon="4.3149">
        <ele>494.736</ele>
        <time>2012-12-16T12:27:39Z</time>
      </trkpt>
      <trkpt lat="45.79219" lon="4.31479">
        <ele>497.139</ele>
        <time>2012-12-16T12:27:54Z</time>
      </trkpt>
      <trkpt lat="45.79221" lon="4.31464">
        <ele>498.581</ele>
        <time>2012-12-16T12:28:03Z</time>
      </trkpt>
      <trkpt lat="45.79221" lon="4.31457">
        <ele>499.062</ele>
        <time>2012-12-16T12:28:07Z</time>
      </trkpt>
      <trkpt lat="45.79221" lon="4.31449">
        <ele>499.062</ele>
        <time>2012-12-16T12:28:12Z</time>
      </trkpt>
      <trkpt lat="45.79222" lon="4.31444">
        <ele>499.062</ele>
        <time>2012-12-16T12:28:15Z</time>
      </trkpt>
      <trkpt lat="45.79223" lon="4.31431">
        <ele>497.139</ele>
        <time>2012-12-16T12:28:25Z</time>
      </trkpt>
      <trkpt lat="45.79223" lon="4.31414">
        <ele>492.813</ele>
        <time>2012-12-16T12:28:39Z</time>
      </trkpt>
      <trkpt lat="45.7922" lon="4.31411">
        <ele>490.41</ele>
        <time>2012-12-16T12:28:46Z</time>
      </trkpt>
      <trkpt lat="45.79218" lon="4.31411">
        <ele>489.448</ele>
        <time>2012-12-16T12:28:49Z</time>
      </trkpt>
      <trkpt lat="45.79211" lon="4.31413">
        <ele>488.487</ele>
        <time>2012-12-16T12:28:56Z</time>
      </trkpt>
      <trkpt lat="45.79198" lon="4.31413">
        <ele>490.41</ele>
        <time>2012-12-16T12:29:08Z</time>
      </trkpt>
      <trkpt lat="45.79194" lon="4.3141">
        <ele>491.371</ele>
        <time>2012-12-16T12:29:12Z</time>
      </trkpt>
      <trkpt lat="45.79184" lon="4.31401">
        <ele>493.294</ele>
        <time>2012-12-16T12:29:21Z</time>
      </trkpt>
      <trkpt lat="45.79183" lon="4.314">
        <ele>493.294</ele>
        <time>2012-12-16T12:29:23Z</time>
      </trkpt>
      <trkpt lat="45.7918" lon="4.31399">
        <ele>493.294</ele>
        <time>2012-12-16T12:29:25Z</time>
      </trkpt>
      <trkpt lat="45.79166" lon="4.31395">
        <ele>494.255</ele>
        <time>2012-12-16T12:29:38Z</time>
      </trkpt>
      <trkpt lat="45.79154" lon="4.31394">
        <ele>493.774</ele>
        <time>2012-12-16T12:30:13Z</time>
      </trkpt>
      <trkpt lat="45.7915" lon="4.31396">
        <ele>493.774</ele>
        <time>2012-12-16T12:30:15Z</time>
      </trkpt>
      <trkpt lat="45.79138" lon="4.31399">
        <ele>491.852</ele>
        <time>2012-12-16T12:30:24Z</time>
      </trkpt>
      <trkpt lat="45.79136" lon="4.31398">
        <ele>491.852</ele>
        <time>2012-12-16T12:30:26Z</time>
      </trkpt>
      <trkpt lat="45.79131" lon="4.31398">
        <ele>491.852</ele>
        <time>2012-12-16T12:30:29Z</time>
      </trkpt>
      <trkpt lat="45.79112" lon="4.31402">
        <ele>489.929</ele>
        <time>2012-12-16T12:30:42Z</time>
      </trkpt>
      <trkpt lat="45.79104" lon="4.31402">
        <ele>488.487</ele>
        <time>2012-12-16T12:30:48Z</time>
      </trkpt>
      <trkpt lat="45.7909" lon="4.31406">
        <ele>483.2</ele>
        <time>2012-12-16T12:30:59Z</time>
      </trkpt>
      <trkpt lat="45.79079" lon="4.31406">
        <ele>479.354</ele>
        <time>2012-12-16T12:31:08Z</time>
      </trkpt>
      <trkpt lat="45.79068" lon="4.31406">
        <ele>475.99</ele>
        <time>2012-12-16T12:31:19Z</time>
      </trkpt>
      <trkpt lat="45.79054" lon="4.31412">
        <ele>474.548</ele>
        <time>2012-12-16T12:31:29Z</time>
      </trkpt>
      <trkpt lat="45.79035" lon="4.31415">
        <ele>472.625</ele>
        <time>2012-12-16T12:31:44Z</time>
      </trkpt>
      <trkpt lat="45.79018" lon="4.31422">
        <ele>472.145</ele>
        <time>2012-12-16T12:31:54Z</time>
      </trkpt>
      <trkpt lat="45.79012" lon="4.31425">
        <ele>472.625</ele>
        <time>2012-12-16T12:31:58Z</time>
      </trkpt>
      <trkpt lat="45.79005" lon="4.31428">
        <ele>473.106</ele>
        <time>2012-12-16T12:32:02Z</time>
      </trkpt>
      <trkpt lat="45.7899" lon="4.31432">
        <ele>475.029</ele>
        <time>2012-12-16T12:32:14Z</time>
      </trkpt>
      <trkpt lat="45.78986" lon="4.31432">
        <ele>475.509</ele>
        <time>2012-12-16T12:32:17Z</time>
      </trkpt>
      <trkpt lat="45.78976" lon="4.31432">
        <ele>475.029</ele>
        <time>2012-12-16T12:32:25Z</time>
      </trkpt>
      <trkpt lat="45.78969" lon="4.31432">
        <ele>475.029</ele>
        <time>2012-12-16T12:32:29Z</time>
      </trkpt>
      <trkpt lat="45.78956" lon="4.31436">
        <ele>476.471</ele>
        <time>2012-12-16T12:32:41Z</time>
      </trkpt>
      <trkpt lat="45.78945" lon="4.31437">
        <ele>477.912</ele>
        <time>2012-12-16T12:32:49Z</time>
      </trkpt>
      <trkpt lat="45.78911" lon="4.31425">
        <ele>476.471</ele>
        <time>2012-12-16T12:33:14Z</time>
      </trkpt>
      <trkpt lat="45.78907" lon="4.31424">
        <ele>475.99</ele>
        <time>2012-12-16T12:33:16Z</time>
      </trkpt>
      <trkpt lat="45.78884" lon="4.31419">
        <ele>476.471</ele>
        <time>2012-12-16T12:33:32Z</time>
      </trkpt>
      <trkpt lat="45.7888" lon="4.31417">
        <ele>476.471</ele>
        <time>2012-12-16T12:33:35Z</time>
      </trkpt>
      <trkpt lat="45.78877" lon="4.31415">
        <ele>475.99</ele>
        <time>2012-12-16T12:33:37Z</time>
      </trkpt>
      <trkpt lat="45.78869" lon="4.31415">
        <ele>476.471</ele>
        <time>2012-12-16T12:33:42Z</time>
      </trkpt>
      <trkpt lat="45.78851" lon="4.31413">
        <ele>475.99</ele>
        <time>2012-12-16T12:33:54Z</time>
      </trkpt>
      <trkpt lat="45.78845" lon="4.31412">
        <ele>475.029</ele>
        <time>2012-12-16T12:33:59Z</time>
      </trkpt>
      <trkpt lat="45.78837" lon="4.31413">
        <ele>474.548</ele>
        <time>2012-12-16T12:34:05Z</time>
      </trkpt>
      <trkpt lat="45.78821" lon="4.31416">
        <ele>471.664</ele>
        <time>2012-12-16T12:34:18Z</time>
      </trkpt>
      <trkpt lat="45.78807" lon="4.31411">
        <ele>470.222</ele>
        <time>2012-12-16T12:34:28Z</time>
      </trkpt>
      <trkpt lat="45.78791" lon="4.31411">
        <ele>469.261</ele>
        <time>2012-12-16T12:34:39Z</time>
      </trkpt>
      <trkpt lat="45.78772" lon="4.31408">
        <ele>466.377</ele>
        <time>2012-12-16T12:34:53Z</time>
      </trkpt>
      <trkpt lat="45.78763" lon="4.31406">
        <ele>467.338</ele>
        <time>2012-12-16T12:34:59Z</time>
      </trkpt>
      <trkpt lat="45.78743" lon="4.31394">
        <ele>467.338</ele>
        <time>2012-12-16T12:35:13Z</time>
      </trkpt>
      <trkpt lat="45.78726" lon="4.31382">
        <ele>464.454</ele>
        <time>2012-12-16T12:35:29Z</time>
      </trkpt>
      <trkpt lat="45.78707" lon="4.31377">
        <ele>462.531</ele>
        <time>2012-12-16T12:35:41Z</time>
      </trkpt>
      <trkpt lat="45.78692" lon="4.31368">
        <ele>457.725</ele>
        <time>2012-12-16T12:35:53Z</time>
      </trkpt>
      <trkpt lat="45.78678" lon="4.31366">
        <ele>455.322</ele>
        <time>2012-12-16T12:36:01Z</time>
      </trkpt>
      <trkpt lat="45.7866" lon="4.31368">
        <ele>452.438</ele>
        <time>2012-12-16T12:36:10Z</time>
      </trkpt>
      <trkpt lat="45.78645" lon="4.31372">
        <ele>450.515</ele>
        <time>2012-12-16T12:36:20Z</time>
      </trkpt>
      <trkpt lat="45.7864" lon="4.31373">
        <ele>449.554</ele>
        <time>2012-12-16T12:36:24Z</time>
      </trkpt>
      <trkpt lat="45.78637" lon="4.31374">
        <ele>449.073</ele>
        <time>2012-12-16T12:36:26Z</time>
      </trkpt>
      <trkpt lat="45.78623" lon="4.31379">
        <ele>448.112</ele>
        <time>2012-12-16T12:36:35Z</time>
      </trkpt>
      <trkpt lat="45.78608" lon="4.31385">
        <ele>446.67</ele>
        <time>2012-12-16T12:36:45Z</time>
      </trkpt>
      <trkpt lat="45.78605" lon="4.31384">
        <ele>447.15</ele>
        <time>2012-12-16T12:36:47Z</time>
      </trkpt>
      <trkpt lat="45.78594" lon="4.31389">
        <ele>447.631</ele>
        <time>2012-12-16T12:36:53Z</time>
      </trkpt>
      <trkpt lat="45.7858" lon="4.31396">
        <ele>446.189</ele>
        <time>2012-12-16T12:37:04Z</time>
      </trkpt>
      <trkpt lat="45.78563" lon="4.31402">
        <ele>448.112</ele>
        <time>2012-12-16T12:37:16Z</time>
      </trkpt>
      <trkpt lat="45.78558" lon="4.31404">
        <ele>450.034</ele>
        <time>2012-12-16T12:37:20Z</time>
      </trkpt>
      <trkpt lat="45.78545" lon="4.31413">
        <ele>451.476</ele>
        <time>2012-12-16T12:37:27Z</time>
      </trkpt>
      <trkpt lat="45.78537" lon="4.31418">
        <ele>452.438</ele>
        <time>2012-12-16T12:37:33Z</time>
      </trkpt>
      <trkpt lat="45.78535" lon="4.31416">
        <ele>452.438</ele>
        <time>2012-12-16T12:37:35Z</time>
      </trkpt>
      <trkpt lat="45.7852" lon="4.31425">
        <ele>453.88</ele>
        <time>2012-12-16T12:37:45Z</time>
      </trkpt>
      <trkpt lat="45.78502" lon="4.31443">
        <ele>454.36</ele>
        <time>2012-12-16T12:37:56Z</time>
      </trkpt>
      <trkpt lat="45.78499" lon="4.31445">
        <ele>454.36</ele>
        <time>2012-12-16T12:37:58Z</time>
      </trkpt>
      <trkpt lat="45.7849" lon="4.31447">
        <ele>453.399</ele>
        <time>2012-12-16T12:38:04Z</time>
      </trkpt>
      <trkpt lat="45.78475" lon="4.3145">
        <ele>452.438</ele>
        <time>2012-12-16T12:38:15Z</time>
      </trkpt>
      <trkpt lat="45.78461" lon="4.31453">
        <ele>450.996</ele>
        <time>2012-12-16T12:38:25Z</time>
      </trkpt>
      <trkpt lat="45.78435" lon="4.3147">
        <ele>454.36</ele>
        <time>2012-12-16T12:39:02Z</time>
      </trkpt>
      <trkpt lat="45.78428" lon="4.31472">
        <ele>453.399</ele>
        <time>2012-12-16T12:39:09Z</time>
      </trkpt>
      <trkpt lat="45.78418" lon="4.31475">
        <ele>452.918</ele>
        <time>2012-12-16T12:39:17Z</time>
      </trkpt>
      <trkpt lat="45.78409" lon="4.31481">
        <ele>452.918</ele>
        <time>2012-12-16T12:39:28Z</time>
      </trkpt>
      <trkpt lat="45.78408" lon="4.31482">
        <ele>452.918</ele>
        <time>2012-12-16T12:39:30Z</time>
      </trkpt>
      <trkpt lat="45.78394" lon="4.31498">
        <ele>455.322</ele>
        <time>2012-12-16T12:39:42Z</time>
      </trkpt>
      <trkpt lat="45.78383" lon="4.31521">
        <ele>459.167</ele>
        <time>2012-12-16T12:39:52Z</time>
      </trkpt>
      <trkpt lat="45.78368" lon="4.31535">
        <ele>460.609</ele>
        <time>2012-12-16T12:39:59Z</time>
      </trkpt>
      <trkpt lat="45.78363" lon="4.31543">
        <ele>462.531</ele>
        <time>2012-12-16T12:40:02Z</time>
      </trkpt>
      <trkpt lat="45.78357" lon="4.31554">
        <ele>464.935</ele>
        <time>2012-12-16T12:40:06Z</time>
      </trkpt>
      <trkpt lat="45.78345" lon="4.31562">
        <ele>466.377</ele>
        <time>2012-12-16T12:40:13Z</time>
      </trkpt>
      <trkpt lat="45.78338" lon="4.31564">
        <ele>467.819</ele>
        <time>2012-12-16T12:40:17Z</time>
      </trkpt>
      <trkpt lat="45.78334" lon="4.31566">
        <ele>470.222</ele>
        <time>2012-12-16T12:40:19Z</time>
      </trkpt>
      <trkpt lat="45.78324" lon="4.31562">
        <ele>474.548</ele>
        <time>2012-12-16T12:40:28Z</time>
      </trkpt>
      <trkpt lat="45.78323" lon="4.31559">
        <ele>476.951</ele>
        <time>2012-12-16T12:40:31Z</time>
      </trkpt>
      <trkpt lat="45.78322" lon="4.31554">
        <ele>477.912</ele>
        <time>2012-12-16T12:40:34Z</time>
      </trkpt>
      <trkpt lat="45.78322" lon="4.31545">
        <ele>479.835</ele>
        <time>2012-12-16T12:40:39Z</time>
      </trkpt>
      <trkpt lat="45.7832" lon="4.31538">
        <ele>481.277</ele>
        <time>2012-12-16T12:40:44Z</time>
      </trkpt>
      <trkpt lat="45.78319" lon="4.31534">
        <ele>481.758</ele>
        <time>2012-12-16T12:40:46Z</time>
      </trkpt>
      <trkpt lat="45.78316" lon="4.31525">
        <ele>482.239</ele>
        <time>2012-12-16T12:40:51Z</time>
      </trkpt>
      <trkpt lat="45.78306" lon="4.31508">
        <ele>479.835</ele>
        <time>2012-12-16T12:41:02Z</time>
      </trkpt>
      <trkpt lat="45.783" lon="4.31504">
        <ele>477.912</ele>
        <time>2012-12-16T12:41:08Z</time>
      </trkpt>
      <trkpt lat="45.78289" lon="4.3149">
        <ele>474.067</ele>
        <time>2012-12-16T12:41:19Z</time>
      </trkpt>
      <trkpt lat="45.78284" lon="4.31487">
        <ele>473.106</ele>
        <time>2012-12-16T12:41:24Z</time>
      </trkpt>
      <trkpt lat="45.78278" lon="4.31481">
        <ele>473.587</ele>
        <time>2012-12-16T12:41:30Z</time>
      </trkpt>
      <trkpt lat="45.7827" lon="4.31474">
        <ele>474.548</ele>
        <time>2012-12-16T12:41:36Z</time>
      </trkpt>
      <trkpt lat="45.78266" lon="4.31466">
        <ele>475.509</ele>
        <time>2012-12-16T12:41:40Z</time>
      </trkpt>
      <trkpt lat="45.78257" lon="4.31453">
        <ele>476.951</ele>
        <time>2012-12-16T12:41:47Z</time>
      </trkpt>
      <trkpt lat="45.78252" lon="4.31444">
        <ele>478.393</ele>
        <time>2012-12-16T12:41:52Z</time>
      </trkpt>
      <trkpt lat="45.78247" lon="4.31436">
        <ele>479.354</ele>
        <time>2012-12-16T12:41:57Z</time>
      </trkpt>
      <trkpt lat="45.78242" lon="4.31417">
        <ele>482.239</ele>
        <time>2012-12-16T12:42:09Z</time>
      </trkpt>
      <trkpt lat="45.78239" lon="4.3141">
        <ele>484.161</ele>
        <time>2012-12-16T12:42:13Z</time>
      </trkpt>
      <trkpt lat="45.78232" lon="4.31387">
        <ele>486.084</ele>
        <time>2012-12-16T12:42:25Z</time>
      </trkpt>
      <trkpt lat="45.7823" lon="4.3138">
        <ele>486.084</ele>
        <time>2012-12-16T12:42:28Z</time>
      </trkpt>
      <trkpt lat="45.78227" lon="4.31363">
        <ele>486.564</ele>
        <time>2012-12-16T12:42:38Z</time>
      </trkpt>
      <trkpt lat="45.78227" lon="4.31346">
        <ele>485.122</ele>
        <time>2012-12-16T12:42:47Z</time>
      </trkpt>
      <trkpt lat="45.78228" lon="4.31321">
        <ele>483.68</ele>
        <time>2012-12-16T12:42:59Z</time>
      </trkpt>
      <trkpt lat="45.78227" lon="4.31314">
        <ele>483.2</ele>
        <time>2012-12-16T12:43:02Z</time>
      </trkpt>
      <trkpt lat="45.78229" lon="4.3129">
        <ele>480.316</ele>
        <time>2012-12-16T12:43:16Z</time>
      </trkpt>
      <trkpt lat="45.78229" lon="4.31287">
        <ele>479.835</ele>
        <time>2012-12-16T12:43:18Z</time>
      </trkpt>
      <trkpt lat="45.78228" lon="4.31281">
        <ele>479.354</ele>
        <time>2012-12-16T12:43:21Z</time>
      </trkpt>
      <trkpt lat="45.78228" lon="4.31275">
        <ele>478.393</ele>
        <time>2012-12-16T12:43:24Z</time>
      </trkpt>
      <trkpt lat="45.78231" lon="4.31253">
        <ele>475.029</ele>
        <time>2012-12-16T12:43:35Z</time>
      </trkpt>
      <trkpt lat="45.78234" lon="4.31248">
        <ele>472.145</ele>
        <time>2012-12-16T12:43:39Z</time>
      </trkpt>
      <trkpt lat="45.78239" lon="4.31237">
        <ele>468.78</ele>
        <time>2012-12-16T12:43:46Z</time>
      </trkpt>
      <trkpt lat="45.78246" lon="4.3122">
        <ele>464.935</ele>
        <time>2012-12-16T12:43:55Z</time>
      </trkpt>
      <trkpt lat="45.78248" lon="4.31212">
        <ele>463.012</ele>
        <time>2012-12-16T12:43:59Z</time>
      </trkpt>
      <trkpt lat="45.7825" lon="4.31206">
        <ele>460.609</ele>
        <time>2012-12-16T12:44:04Z</time>
      </trkpt>
      <trkpt lat="45.78254" lon="4.31197">
        <ele>458.206</ele>
        <time>2012-12-16T12:44:09Z</time>
      </trkpt>
      <trkpt lat="45.78257" lon="4.31179">
        <ele>456.283</ele>
        <time>2012-12-16T12:44:18Z</time>
      </trkpt>
      <trkpt lat="45.78265" lon="4.31155">
        <ele>454.36</ele>
        <time>2012-12-16T12:44:31Z</time>
      </trkpt>
      <trkpt lat="45.78267" lon="4.31148">
        <ele>454.36</ele>
        <time>2012-12-16T12:44:35Z</time>
      </trkpt>
      <trkpt lat="45.78271" lon="4.31124">
        <ele>453.399</ele>
        <time>2012-12-16T12:44:46Z</time>
      </trkpt>
      <trkpt lat="45.78272" lon="4.31119">
        <ele>453.399</ele>
        <time>2012-12-16T12:44:49Z</time>
      </trkpt>
      <trkpt lat="45.78272" lon="4.31104">
        <ele>452.918</ele>
        <time>2012-12-16T12:44:57Z</time>
      </trkpt>
      <trkpt lat="45.78273" lon="4.31085">
        <ele>452.438</ele>
        <time>2012-12-16T12:45:09Z</time>
      </trkpt>
      <trkpt lat="45.78276" lon="4.31074">
        <ele>451.476</ele>
        <time>2012-12-16T12:45:15Z</time>
      </trkpt>
      <trkpt lat="45.78278" lon="4.31065">
        <ele>450.515</ele>
        <time>2012-12-16T12:45:20Z</time>
      </trkpt>
      <trkpt lat="45.78279" lon="4.31058">
        <ele>449.554</ele>
        <time>2012-12-16T12:45:24Z</time>
      </trkpt>
      <trkpt lat="45.78288" lon="4.31042">
        <ele>446.189</ele>
        <time>2012-12-16T12:45:37Z</time>
      </trkpt>
      <trkpt lat="45.783" lon="4.31028">
        <ele>445.228</ele>
        <time>2012-12-16T12:45:46Z</time>
      </trkpt>
      <trkpt lat="45.78306" lon="4.31016">
        <ele>445.228</ele>
        <time>2012-12-16T12:45:53Z</time>
      </trkpt>
      <trkpt lat="45.78308" lon="4.31003">
        <ele>444.747</ele>
        <time>2012-12-16T12:45:57Z</time>
      </trkpt>
      <trkpt lat="45.78313" lon="4.30991">
        <ele>445.228</ele>
        <time>2012-12-16T12:46:02Z</time>
      </trkpt>
      <trkpt lat="45.78313" lon="4.30962">
        <ele>449.073</ele>
        <time>2012-12-16T12:46:15Z</time>
      </trkpt>
      <trkpt lat="45.78308" lon="4.3095">
        <ele>452.438</ele>
        <time>2012-12-16T12:46:25Z</time>
      </trkpt>
      <trkpt lat="45.78294" lon="4.30914">
        <ele>461.089</ele>
        <time>2012-12-16T12:47:40Z</time>
      </trkpt>
      <trkpt lat="45.78289" lon="4.30899">
        <ele>463.973</ele>
        <time>2012-12-16T12:47:49Z</time>
      </trkpt>
      <trkpt lat="45.78285" lon="4.30889">
        <ele>464.935</ele>
        <time>2012-12-16T12:47:52Z</time>
      </trkpt>
      <trkpt lat="45.78278" lon="4.30866">
        <ele>466.377</ele>
        <time>2012-12-16T12:48:02Z</time>
      </trkpt>
      <trkpt lat="45.78275" lon="4.3086">
        <ele>466.857</ele>
        <time>2012-12-16T12:48:05Z</time>
      </trkpt>
      <trkpt lat="45.78272" lon="4.30851">
        <ele>466.857</ele>
        <time>2012-12-16T12:48:12Z</time>
      </trkpt>
      <trkpt lat="45.7826" lon="4.3083">
        <ele>467.819</ele>
        <time>2012-12-16T12:48:25Z</time>
      </trkpt>
      <trkpt lat="45.78256" lon="4.3082">
        <ele>468.299</ele>
        <time>2012-12-16T12:48:36Z</time>
      </trkpt>
      <trkpt lat="45.78246" lon="4.30815">
        <ele>466.857</ele>
        <time>2012-12-16T12:48:45Z</time>
      </trkpt>
      <trkpt lat="45.78242" lon="4.30815">
        <ele>465.896</ele>
        <time>2012-12-16T12:48:49Z</time>
      </trkpt>
      <trkpt lat="45.78234" lon="4.30821">
        <ele>461.089</ele>
        <time>2012-12-16T12:48:59Z</time>
      </trkpt>
      <trkpt lat="45.78231" lon="4.30824">
        <ele>459.167</ele>
        <time>2012-12-16T12:49:05Z</time>
      </trkpt>
      <trkpt lat="45.78227" lon="4.30826">
        <ele>458.206</ele>
        <time>2012-12-16T12:49:08Z</time>
      </trkpt>
      <trkpt lat="45.78212" lon="4.30824">
        <ele>453.88</ele>
        <time>2012-12-16T12:49:18Z</time>
      </trkpt>
      <trkpt lat="45.78208" lon="4.30823">
        <ele>452.438</ele>
        <time>2012-12-16T12:49:21Z</time>
      </trkpt>
      <trkpt lat="45.78199" lon="4.30822">
        <ele>448.112</ele>
        <time>2012-12-16T12:49:29Z</time>
      </trkpt>
      <trkpt lat="45.78196" lon="4.30819">
        <ele>446.67</ele>
        <time>2012-12-16T12:49:31Z</time>
      </trkpt>
      <trkpt lat="45.78192" lon="4.30817">
        <ele>445.708</ele>
        <time>2012-12-16T12:49:34Z</time>
      </trkpt>
      <trkpt lat="45.78184" lon="4.30817">
        <ele>444.747</ele>
        <time>2012-12-16T12:49:38Z</time>
      </trkpt>
      <trkpt lat="45.78177" lon="4.3081">
        <ele>442.344</ele>
        <time>2012-12-16T12:49:44Z</time>
      </trkpt>
      <trkpt lat="45.78175" lon="4.30808">
        <ele>441.382</ele>
        <time>2012-12-16T12:49:46Z</time>
      </trkpt>
      <trkpt lat="45.78172" lon="4.30808">
        <ele>440.902</ele>
        <time>2012-12-16T12:49:48Z</time>
      </trkpt>
      <trkpt lat="45.78165" lon="4.30806">
        <ele>439.46</ele>
        <time>2012-12-16T12:49:53Z</time>
      </trkpt>
      <trkpt lat="45.78161" lon="4.308">
        <ele>438.499</ele>
        <time>2012-12-16T12:49:57Z</time>
      </trkpt>
      <trkpt lat="45.7815" lon="4.30797">
        <ele>437.537</ele>
        <time>2012-12-16T12:50:04Z</time>
      </trkpt>
      <trkpt lat="45.78132" lon="4.30788">
        <ele>440.902</ele>
        <time>2012-12-16T12:50:15Z</time>
      </trkpt>
      <trkpt lat="45.7813" lon="4.30789">
        <ele>441.863</ele>
        <time>2012-12-16T12:50:17Z</time>
      </trkpt>
      <trkpt lat="45.78121" lon="4.30783">
        <ele>445.708</ele>
        <time>2012-12-16T12:50:23Z</time>
      </trkpt>
      <trkpt lat="45.78114" lon="4.3078">
        <ele>448.592</ele>
        <time>2012-12-16T12:50:27Z</time>
      </trkpt>
      <trkpt lat="45.78102" lon="4.30768">
        <ele>457.725</ele>
        <time>2012-12-16T12:50:38Z</time>
      </trkpt>
      <trkpt lat="45.78091" lon="4.3076">
        <ele>462.051</ele>
        <time>2012-12-16T12:50:50Z</time>
      </trkpt>
      <trkpt lat="45.78089" lon="4.30759">
        <ele>462.051</ele>
        <time>2012-12-16T12:50:52Z</time>
      </trkpt>
      <trkpt lat="45.78081" lon="4.30749">
        <ele>462.531</ele>
        <time>2012-12-16T12:51:00Z</time>
      </trkpt>
      <trkpt lat="45.78074" lon="4.30741">
        <ele>463.493</ele>
        <time>2012-12-16T12:51:05Z</time>
      </trkpt>
      <trkpt lat="45.78063" lon="4.30724">
        <ele>465.416</ele>
        <time>2012-12-16T12:51:16Z</time>
      </trkpt>
      <trkpt lat="45.78051" lon="4.30712">
        <ele>467.819</ele>
        <time>2012-12-16T12:51:26Z</time>
      </trkpt>
      <trkpt lat="45.78047" lon="4.30708">
        <ele>467.819</ele>
        <time>2012-12-16T12:51:30Z</time>
      </trkpt>
      <trkpt lat="45.78035" lon="4.30691">
        <ele>468.78</ele>
        <time>2012-12-16T12:51:40Z</time>
      </trkpt>
      <trkpt lat="45.78021" lon="4.30676">
        <ele>468.299</ele>
        <time>2012-12-16T12:51:52Z</time>
      </trkpt>
      <trkpt lat="45.78018" lon="4.30675">
        <ele>468.78</ele>
        <time>2012-12-16T12:51:54Z</time>
      </trkpt>
      <trkpt lat="45.78005" lon="4.30661">
        <ele>467.819</ele>
        <time>2012-12-16T12:52:06Z</time>
      </trkpt>
      <trkpt lat="45.78" lon="4.30657">
        <ele>467.338</ele>
        <time>2012-12-16T12:52:10Z</time>
      </trkpt>
      <trkpt lat="45.77998" lon="4.30652">
        <ele>466.857</ele>
        <time>2012-12-16T12:52:14Z</time>
      </trkpt>
      <trkpt lat="45.77996" lon="4.30647">
        <ele>466.377</ele>
        <time>2012-12-16T12:52:17Z</time>
      </trkpt>
      <trkpt lat="45.7799" lon="4.30639">
        <ele>466.377</ele>
        <time>2012-12-16T12:52:30Z</time>
      </trkpt>
      <trkpt lat="45.77987" lon="4.30632">
        <ele>466.857</ele>
        <time>2012-12-16T12:52:36Z</time>
      </trkpt>
      <trkpt lat="45.77982" lon="4.30618">
        <ele>466.377</ele>
        <time>2012-12-16T12:52:50Z</time>
      </trkpt>
      <trkpt lat="45.7798" lon="4.30576">
        <ele>460.609</ele>
        <time>2012-12-16T12:53:22Z</time>
      </trkpt>
      <trkpt lat="45.77985" lon="4.30557">
        <ele>459.167</ele>
        <time>2012-12-16T12:53:33Z</time>
      </trkpt>
      <trkpt lat="45.77987" lon="4.30547">
        <ele>458.686</ele>
        <time>2012-12-16T12:53:38Z</time>
      </trkpt>
      <trkpt lat="45.77987" lon="4.30542">
        <ele>458.686</ele>
        <time>2012-12-16T12:53:40Z</time>
      </trkpt>
      <trkpt lat="45.77991" lon="4.30522">
        <ele>455.322</ele>
        <time>2012-12-16T12:53:51Z</time>
      </trkpt>
      <trkpt lat="45.78002" lon="4.30507">
        <ele>450.996</ele>
        <time>2012-12-16T12:54:02Z</time>
      </trkpt>
      <trkpt lat="45.78014" lon="4.30499">
        <ele>447.631</ele>
        <time>2012-12-16T12:54:12Z</time>
      </trkpt>
      <trkpt lat="45.78024" lon="4.30492">
        <ele>444.266</ele>
        <time>2012-12-16T12:54:22Z</time>
      </trkpt>
      <trkpt lat="45.78032" lon="4.3049">
        <ele>441.382</ele>
        <time>2012-12-16T12:54:28Z</time>
      </trkpt>
      <trkpt lat="45.7804" lon="4.30489">
        <ele>437.537</ele>
        <time>2012-12-16T12:54:34Z</time>
      </trkpt>
      <trkpt lat="45.78051" lon="4.30486">
        <ele>430.327</ele>
        <time>2012-12-16T12:54:44Z</time>
      </trkpt>
      <trkpt lat="45.78064" lon="4.30483">
        <ele>421.195</ele>
        <time>2012-12-16T12:54:55Z</time>
      </trkpt>
      <trkpt lat="45.78069" lon="4.3048">
        <ele>418.792</ele>
        <time>2012-12-16T12:54:58Z</time>
      </trkpt>
      <trkpt lat="45.78082" lon="4.30478">
        <ele>413.985</ele>
        <time>2012-12-16T12:55:05Z</time>
      </trkpt>
      <trkpt lat="45.78089" lon="4.3047">
        <ele>411.582</ele>
        <time>2012-12-16T12:55:11Z</time>
      </trkpt>
      <trkpt lat="45.78095" lon="4.3047">
        <ele>410.14</ele>
        <time>2012-12-16T12:55:14Z</time>
      </trkpt>
      <trkpt lat="45.781" lon="4.30465">
        <ele>408.698</ele>
        <time>2012-12-16T12:55:18Z</time>
      </trkpt>
      <trkpt lat="45.78105" lon="4.30456">
        <ele>409.178</ele>
        <time>2012-12-16T12:55:22Z</time>
      </trkpt>
      <trkpt lat="45.78113" lon="4.30455">
        <ele>407.736</ele>
        <time>2012-12-16T12:55:28Z</time>
      </trkpt>
      <trkpt lat="45.78117" lon="4.30452">
        <ele>406.294</ele>
        <time>2012-12-16T12:55:31Z</time>
      </trkpt>
      <trkpt lat="45.78121" lon="4.30442">
        <ele>406.294</ele>
        <time>2012-12-16T12:55:36Z</time>
      </trkpt>
      <trkpt lat="45.78127" lon="4.30441">
        <ele>404.852</ele>
        <time>2012-12-16T12:55:40Z</time>
      </trkpt>
      <trkpt lat="45.78135" lon="4.30429">
        <ele>405.333</ele>
        <time>2012-12-16T12:55:58Z</time>
      </trkpt>
      <trkpt lat="45.78141" lon="4.30423">
        <ele>410.14</ele>
        <time>2012-12-16T12:56:11Z</time>
      </trkpt>
      <trkpt lat="45.78143" lon="4.30422">
        <ele>413.024</ele>
        <time>2012-12-16T12:56:36Z</time>
      </trkpt>
      <trkpt lat="45.78143" lon="4.30421">
        <ele>413.504</ele>
        <time>2012-12-16T12:57:12Z</time>
      </trkpt>
      <trkpt lat="45.78144" lon="4.30417">
        <ele>415.427</ele>
        <time>2012-12-16T12:57:15Z</time>
      </trkpt>
      <trkpt lat="45.78145" lon="4.30408">
        <ele>417.83</ele>
        <time>2012-12-16T12:57:40Z</time>
      </trkpt>
      <trkpt lat="45.78144" lon="4.30404">
        <ele>420.233</ele>
        <time>2012-12-16T12:58:29Z</time>
      </trkpt>
      <trkpt lat="45.78156" lon="4.30378">
        <ele>426.482</ele>
        <time>2012-12-16T12:59:07Z</time>
      </trkpt>
      <trkpt lat="45.7816" lon="4.30371">
        <ele>427.443</ele>
        <time>2012-12-16T12:59:12Z</time>
      </trkpt>
      <trkpt lat="45.78164" lon="4.30367">
        <ele>427.924</ele>
        <time>2012-12-16T12:59:16Z</time>
      </trkpt>
      <trkpt lat="45.78181" lon="4.30354">
        <ele>428.405</ele>
        <time>2012-12-16T12:59:29Z</time>
      </trkpt>
      <trkpt lat="45.78194" lon="4.30346">
        <ele>428.405</ele>
        <time>2012-12-16T12:59:39Z</time>
      </trkpt>
      <trkpt lat="45.7821" lon="4.3034">
        <ele>426.001</ele>
        <time>2012-12-16T12:59:50Z</time>
      </trkpt>
      <trkpt lat="45.78226" lon="4.30341">
        <ele>421.195</ele>
        <time>2012-12-16T13:00:03Z</time>
      </trkpt>
      <trkpt lat="45.78238" lon="4.30337">
        <ele>421.195</ele>
        <time>2012-12-16T13:00:11Z</time>
      </trkpt>
      <trkpt lat="45.78251" lon="4.30339">
        <ele>419.272</ele>
        <time>2012-12-16T13:00:18Z</time>
      </trkpt>
      <trkpt lat="45.7826" lon="4.30341">
        <ele>419.272</ele>
        <time>2012-12-16T13:00:22Z</time>
      </trkpt>
      <trkpt lat="45.78266" lon="4.30339">
        <ele>419.272</ele>
        <time>2012-12-16T13:00:25Z</time>
      </trkpt>
      <trkpt lat="45.78278" lon="4.30338">
        <ele>419.272</ele>
        <time>2012-12-16T13:00:32Z</time>
      </trkpt>
      <trkpt lat="45.78292" lon="4.30331">
        <ele>418.311</ele>
        <time>2012-12-16T13:00:44Z</time>
      </trkpt>
      <trkpt lat="45.78298" lon="4.30328">
        <ele>419.753</ele>
        <time>2012-12-16T13:00:55Z</time>
      </trkpt>
      <trkpt lat="45.783" lon="4.30324">
        <ele>420.714</ele>
        <time>2012-12-16T13:01:14Z</time>
      </trkpt>
      <trkpt lat="45.783" lon="4.30324">
        <ele>420.714</ele>
        <time>2012-12-16T13:01:17Z</time>
      </trkpt>
      <trkpt lat="45.78304" lon="4.30321">
        <ele>421.195</ele>
        <time>2012-12-16T13:01:20Z</time>
      </trkpt>
      <trkpt lat="45.78308" lon="4.30317">
        <ele>421.675</ele>
        <time>2012-12-16T13:01:24Z</time>
      </trkpt>
      <trkpt lat="45.78313" lon="4.30311">
        <ele>421.675</ele>
        <time>2012-12-16T13:01:32Z</time>
      </trkpt>
      <trkpt lat="45.78314" lon="4.30304">
        <ele>423.598</ele>
        <time>2012-12-16T13:01:35Z</time>
      </trkpt>
      <trkpt lat="45.78317" lon="4.30295">
        <ele>425.04</ele>
        <time>2012-12-16T13:01:42Z</time>
      </trkpt>
      <trkpt lat="45.78321" lon="4.30284">
        <ele>426.482</ele>
        <time>2012-12-16T13:01:49Z</time>
      </trkpt>
      <trkpt lat="45.78324" lon="4.30281">
        <ele>426.963</ele>
        <time>2012-12-16T13:01:52Z</time>
      </trkpt>
      <trkpt lat="45.78329" lon="4.30265">
        <ele>430.808</ele>
        <time>2012-12-16T13:02:01Z</time>
      </trkpt>
      <trkpt lat="45.7833" lon="4.30257">
        <ele>431.769</ele>
        <time>2012-12-16T13:02:05Z</time>
      </trkpt>
      <trkpt lat="45.78333" lon="4.30254">
        <ele>432.25</ele>
        <time>2012-12-16T13:02:09Z</time>
      </trkpt>
      <trkpt lat="45.78334" lon="4.30244">
        <ele>433.211</ele>
        <time>2012-12-16T13:02:14Z</time>
      </trkpt>
      <trkpt lat="45.78335" lon="4.30242">
        <ele>433.692</ele>
        <time>2012-12-16T13:02:16Z</time>
      </trkpt>
      <trkpt lat="45.78337" lon="4.30228">
        <ele>434.653</ele>
        <time>2012-12-16T13:02:28Z</time>
      </trkpt>
      <trkpt lat="45.78338" lon="4.30222">
        <ele>434.653</ele>
        <time>2012-12-16T13:02:32Z</time>
      </trkpt>
      <trkpt lat="45.78339" lon="4.30215">
        <ele>433.692</ele>
        <time>2012-12-16T13:02:36Z</time>
      </trkpt>
      <trkpt lat="45.78344" lon="4.30209">
        <ele>432.25</ele>
        <time>2012-12-16T13:02:43Z</time>
      </trkpt>
      <trkpt lat="45.78346" lon="4.30202">
        <ele>431.289</ele>
        <time>2012-12-16T13:02:47Z</time>
      </trkpt>
      <trkpt lat="45.78348" lon="4.30198">
        <ele>430.808</ele>
        <time>2012-12-16T13:02:49Z</time>
      </trkpt>
      <trkpt lat="45.78352" lon="4.30183">
        <ele>430.327</ele>
        <time>2012-12-16T13:02:58Z</time>
      </trkpt>
      <trkpt lat="45.78355" lon="4.30177">
        <ele>428.405</ele>
        <time>2012-12-16T13:03:03Z</time>
      </trkpt>
      <trkpt lat="45.78362" lon="4.30169">
        <ele>424.559</ele>
        <time>2012-12-16T13:03:11Z</time>
      </trkpt>
      <trkpt lat="45.78372" lon="4.30153">
        <ele>420.714</ele>
        <time>2012-12-16T13:03:24Z</time>
      </trkpt>
      <trkpt lat="45.78382" lon="4.30137">
        <ele>415.427</ele>
        <time>2012-12-16T13:03:36Z</time>
      </trkpt>
      <trkpt lat="45.7839" lon="4.30122">
        <ele>409.178</ele>
        <time>2012-12-16T13:03:46Z</time>
      </trkpt>
      <trkpt lat="45.78396" lon="4.30114">
        <ele>406.775</ele>
        <time>2012-12-16T13:03:51Z</time>
      </trkpt>
      <trkpt lat="45.78405" lon="4.30095">
        <ele>403.891</ele>
        <time>2012-12-16T13:04:02Z</time>
      </trkpt>
      <trkpt lat="45.78409" lon="4.30081">
        <ele>403.891</ele>
        <time>2012-12-16T13:04:09Z</time>
      </trkpt>
      <trkpt lat="45.78417" lon="4.3007">
        <ele>404.372</ele>
        <time>2012-12-16T13:04:21Z</time>
      </trkpt>
      <trkpt lat="45.78417" lon="4.30069">
        <ele>407.256</ele>
        <time>2012-12-16T13:04:24Z</time>
      </trkpt>
      <trkpt lat="45.78413" lon="4.30072">
        <ele>408.698</ele>
        <time>2012-12-16T13:04:29Z</time>
      </trkpt>
      <trkpt lat="45.78403" lon="4.30081">
        <ele>413.985</ele>
        <time>2012-12-16T13:04:39Z</time>
      </trkpt>
      <trkpt lat="45.78402" lon="4.30083">
        <ele>413.504</ele>
        <time>2012-12-16T13:04:40Z</time>
      </trkpt>
      <trkpt lat="45.78398" lon="4.30091">
        <ele>411.582</ele>
        <time>2012-12-16T13:04:46Z</time>
      </trkpt>
      <trkpt lat="45.78387" lon="4.301">
        <ele>409.659</ele>
        <time>2012-12-16T13:04:55Z</time>
      </trkpt>
      <trkpt lat="45.78376" lon="4.3011">
        <ele>407.736</ele>
        <time>2012-12-16T13:05:05Z</time>
      </trkpt>
      <trkpt lat="45.78362" lon="4.30114">
        <ele>410.62</ele>
        <time>2012-12-16T13:05:13Z</time>
      </trkpt>
      <trkpt lat="45.78353" lon="4.30121">
        <ele>411.101</ele>
        <time>2012-12-16T13:05:19Z</time>
      </trkpt>
      <trkpt lat="45.7835" lon="4.30122">
        <ele>411.582</ele>
        <time>2012-12-16T13:05:21Z</time>
      </trkpt>
      <trkpt lat="45.78343" lon="4.30113">
        <ele>415.907</ele>
        <time>2012-12-16T13:05:27Z</time>
      </trkpt>
      <trkpt lat="45.78341" lon="4.30103">
        <ele>416.869</ele>
        <time>2012-12-16T13:05:31Z</time>
      </trkpt>
      <trkpt lat="45.78339" lon="4.30096">
        <ele>417.35</ele>
        <time>2012-12-16T13:05:35Z</time>
      </trkpt>
      <trkpt lat="45.78333" lon="4.30066">
        <ele>419.272</ele>
        <time>2012-12-16T13:05:48Z</time>
      </trkpt>
      <trkpt lat="45.78327" lon="4.30047">
        <ele>421.675</ele>
        <time>2012-12-16T13:05:57Z</time>
      </trkpt>
      <trkpt lat="45.78326" lon="4.30038">
        <ele>424.559</ele>
        <time>2012-12-16T13:06:14Z</time>
      </trkpt>
      <trkpt lat="45.78324" lon="4.30033">
        <ele>429.366</ele>
        <time>2012-12-16T13:14:34Z</time>
      </trkpt>
      <trkpt lat="45.78324" lon="4.30034">
        <ele>433.211</ele>
        <time>2012-12-16T13:21:11Z</time>
      </trkpt>
      <trkpt lat="45.78324" lon="4.30029">
        <ele>433.211</ele>
        <time>2012-12-16T13:21:17Z</time>
      </trkpt>
      <trkpt lat="45.78326" lon="4.30018">
        <ele>432.731</ele>
        <time>2012-12-16T13:21:23Z</time>
      </trkpt>
      <trkpt lat="45.78325" lon="4.30013">
        <ele>432.731</ele>
        <time>2012-12-16T13:21:26Z</time>
      </trkpt>
      <trkpt lat="45.78325" lon="4.30007">
        <ele>432.731</ele>
        <time>2012-12-16T13:21:29Z</time>
      </trkpt>
      <trkpt lat="45.78321" lon="4.29989">
        <ele>431.769</ele>
        <time>2012-12-16T13:21:41Z</time>
      </trkpt>
      <trkpt lat="45.78319" lon="4.29977">
        <ele>431.769</ele>
        <time>2012-12-16T13:21:48Z</time>
      </trkpt>
      <trkpt lat="45.78317" lon="4.29967">
        <ele>431.769</ele>
        <time>2012-12-16T13:21:53Z</time>
      </trkpt>
      <trkpt lat="45.78316" lon="4.29959">
        <ele>431.769</ele>
        <time>2012-12-16T13:21:57Z</time>
      </trkpt>
      <trkpt lat="45.78312" lon="4.29942">
        <ele>431.769</ele>
        <time>2012-12-16T13:22:05Z</time>
      </trkpt>
      <trkpt lat="45.78312" lon="4.29932">
        <ele>431.769</ele>
        <time>2012-12-16T13:22:10Z</time>
      </trkpt>
      <trkpt lat="45.78309" lon="4.29905">
        <ele>432.731</ele>
        <time>2012-12-16T13:22:21Z</time>
      </trkpt>
      <trkpt lat="45.78313" lon="4.29875">
        <ele>434.653</ele>
        <time>2012-12-16T13:22:35Z</time>
      </trkpt>
      <trkpt lat="45.78309" lon="4.29851">
        <ele>436.576</ele>
        <time>2012-12-16T13:22:46Z</time>
      </trkpt>
      <trkpt lat="45.78306" lon="4.2984">
        <ele>437.537</ele>
        <time>2012-12-16T13:22:53Z</time>
      </trkpt>
      <trkpt lat="45.78301" lon="4.29829">
        <ele>438.018</ele>
        <time>2012-12-16T13:23:00Z</time>
      </trkpt>
      <trkpt lat="45.78297" lon="4.29808">
        <ele>439.94</ele>
        <time>2012-12-16T13:23:12Z</time>
      </trkpt>
      <trkpt lat="45.78295" lon="4.29796">
        <ele>439.46</ele>
        <time>2012-12-16T13:23:19Z</time>
      </trkpt>
      <trkpt lat="45.78293" lon="4.29778">
        <ele>438.979</ele>
        <time>2012-12-16T13:23:26Z</time>
      </trkpt>
      <trkpt lat="45.78296" lon="4.29758">
        <ele>437.537</ele>
        <time>2012-12-16T13:23:37Z</time>
      </trkpt>
      <trkpt lat="45.78296" lon="4.29755">
        <ele>437.537</ele>
        <time>2012-12-16T13:23:38Z</time>
      </trkpt>
      <trkpt lat="45.78298" lon="4.29739">
        <ele>436.095</ele>
        <time>2012-12-16T13:23:47Z</time>
      </trkpt>
      <trkpt lat="45.78298" lon="4.29735">
        <ele>435.615</ele>
        <time>2012-12-16T13:23:49Z</time>
      </trkpt>
      <trkpt lat="45.783" lon="4.29724">
        <ele>435.615</ele>
        <time>2012-12-16T13:23:55Z</time>
      </trkpt>
      <trkpt lat="45.78302" lon="4.29708">
        <ele>435.134</ele>
        <time>2012-12-16T13:24:03Z</time>
      </trkpt>
      <trkpt lat="45.78304" lon="4.29696">
        <ele>434.173</ele>
        <time>2012-12-16T13:24:09Z</time>
      </trkpt>
      <trkpt lat="45.78305" lon="4.29692">
        <ele>433.692</ele>
        <time>2012-12-16T13:24:11Z</time>
      </trkpt>
      <trkpt lat="45.78303" lon="4.29679">
        <ele>432.731</ele>
        <time>2012-12-16T13:24:17Z</time>
      </trkpt>
      <trkpt lat="45.78303" lon="4.29665">
        <ele>432.731</ele>
        <time>2012-12-16T13:24:24Z</time>
      </trkpt>
      <trkpt lat="45.78304" lon="4.2966">
        <ele>432.25</ele>
        <time>2012-12-16T13:24:27Z</time>
      </trkpt>
      <trkpt lat="45.783" lon="4.29636">
        <ele>429.847</ele>
        <time>2012-12-16T13:24:38Z</time>
      </trkpt>
      <trkpt lat="45.78302" lon="4.29619">
        <ele>430.327</ele>
        <time>2012-12-16T13:24:47Z</time>
      </trkpt>
      <trkpt lat="45.78301" lon="4.29597">
        <ele>432.731</ele>
        <time>2012-12-16T13:24:57Z</time>
      </trkpt>
      <trkpt lat="45.78306" lon="4.29571">
        <ele>432.731</ele>
        <time>2012-12-16T13:25:08Z</time>
      </trkpt>
      <trkpt lat="45.78316" lon="4.29549">
        <ele>429.366</ele>
        <time>2012-12-16T13:25:20Z</time>
      </trkpt>
      <trkpt lat="45.78317" lon="4.29546">
        <ele>428.885</ele>
        <time>2012-12-16T13:25:22Z</time>
      </trkpt>
      <trkpt lat="45.78321" lon="4.2953">
        <ele>426.963</ele>
        <time>2012-12-16T13:25:30Z</time>
      </trkpt>
      <trkpt lat="45.78319" lon="4.29519">
        <ele>426.001</ele>
        <time>2012-12-16T13:25:35Z</time>
      </trkpt>
      <trkpt lat="45.78318" lon="4.29515">
        <ele>425.521</ele>
        <time>2012-12-16T13:25:37Z</time>
      </trkpt>
      <trkpt lat="45.78312" lon="4.29499">
        <ele>422.156</ele>
        <time>2012-12-16T13:25:47Z</time>
      </trkpt>
      <trkpt lat="45.78308" lon="4.2949">
        <ele>421.195</ele>
        <time>2012-12-16T13:25:52Z</time>
      </trkpt>
      <trkpt lat="45.78304" lon="4.29479">
        <ele>419.753</ele>
        <time>2012-12-16T13:25:59Z</time>
      </trkpt>
      <trkpt lat="45.78293" lon="4.29454">
        <ele>416.388</ele>
        <time>2012-12-16T13:26:11Z</time>
      </trkpt>
      <trkpt lat="45.78291" lon="4.29445">
        <ele>415.907</ele>
        <time>2012-12-16T13:26:15Z</time>
      </trkpt>
      <trkpt lat="45.78287" lon="4.29422">
        <ele>413.504</ele>
        <time>2012-12-16T13:26:26Z</time>
      </trkpt>
      <trkpt lat="45.78277" lon="4.29403">
        <ele>410.62</ele>
        <time>2012-12-16T13:26:35Z</time>
      </trkpt>
      <trkpt lat="45.78271" lon="4.29382">
        <ele>409.659</ele>
        <time>2012-12-16T13:26:45Z</time>
      </trkpt>
      <trkpt lat="45.78271" lon="4.2938">
        <ele>409.659</ele>
        <time>2012-12-16T13:26:46Z</time>
      </trkpt>
      <trkpt lat="45.78269" lon="4.29375">
        <ele>409.659</ele>
        <time>2012-12-16T13:26:49Z</time>
      </trkpt>
      <trkpt lat="45.78261" lon="4.29361">
        <ele>409.659</ele>
        <time>2012-12-16T13:26:58Z</time>
      </trkpt>
      <trkpt lat="45.78259" lon="4.29356">
        <ele>410.14</ele>
        <time>2012-12-16T13:27:01Z</time>
      </trkpt>
      <trkpt lat="45.78257" lon="4.29351">
        <ele>410.62</ele>
        <time>2012-12-16T13:27:04Z</time>
      </trkpt>
      <trkpt lat="45.78246" lon="4.29325">
        <ele>410.62</ele>
        <time>2012-12-16T13:27:15Z</time>
      </trkpt>
      <trkpt lat="45.78244" lon="4.29315">
        <ele>411.101</ele>
        <time>2012-12-16T13:27:20Z</time>
      </trkpt>
      <trkpt lat="45.78242" lon="4.29306">
        <ele>412.543</ele>
        <time>2012-12-16T13:27:27Z</time>
      </trkpt>
      <trkpt lat="45.78236" lon="4.29288">
        <ele>414.465</ele>
        <time>2012-12-16T13:27:37Z</time>
      </trkpt>
      <trkpt lat="45.78235" lon="4.29264">
        <ele>418.311</ele>
        <time>2012-12-16T13:27:46Z</time>
      </trkpt>
      <trkpt lat="45.78237" lon="4.29254">
        <ele>419.272</ele>
        <time>2012-12-16T13:27:51Z</time>
      </trkpt>
      <trkpt lat="45.78246" lon="4.29235">
        <ele>417.83</ele>
        <time>2012-12-16T13:28:02Z</time>
      </trkpt>
      <trkpt lat="45.78249" lon="4.29225">
        <ele>416.388</ele>
        <time>2012-12-16T13:28:08Z</time>
      </trkpt>
      <trkpt lat="45.78251" lon="4.29215">
        <ele>415.427</ele>
        <time>2012-12-16T13:28:14Z</time>
      </trkpt>
      <trkpt lat="45.78258" lon="4.29202">
        <ele>412.543</ele>
        <time>2012-12-16T13:28:22Z</time>
      </trkpt>
      <trkpt lat="45.78262" lon="4.29191">
        <ele>409.659</ele>
        <time>2012-12-16T13:28:28Z</time>
      </trkpt>
      <trkpt lat="45.78268" lon="4.29182">
        <ele>406.294</ele>
        <time>2012-12-16T13:28:34Z</time>
      </trkpt>
      <trkpt lat="45.78274" lon="4.2917">
        <ele>400.046</ele>
        <time>2012-12-16T13:28:44Z</time>
      </trkpt>
      <trkpt lat="45.78274" lon="4.2916">
        <ele>397.642</ele>
        <time>2012-12-16T13:28:50Z</time>
      </trkpt>
      <trkpt lat="45.78277" lon="4.29155">
        <ele>396.681</ele>
        <time>2012-12-16T13:28:53Z</time>
      </trkpt>
      <trkpt lat="45.78278" lon="4.29152">
        <ele>396.201</ele>
        <time>2012-12-16T13:28:55Z</time>
      </trkpt>
      <trkpt lat="45.78281" lon="4.29146">
        <ele>396.201</ele>
        <time>2012-12-16T13:28:59Z</time>
      </trkpt>
      <trkpt lat="45.78287" lon="4.29129">
        <ele>395.239</ele>
        <time>2012-12-16T13:29:10Z</time>
      </trkpt>
      <trkpt lat="45.78293" lon="4.29117">
        <ele>394.278</ele>
        <time>2012-12-16T13:29:16Z</time>
      </trkpt>
      <trkpt lat="45.78297" lon="4.29109">
        <ele>393.797</ele>
        <time>2012-12-16T13:29:20Z</time>
      </trkpt>
      <trkpt lat="45.78299" lon="4.29097">
        <ele>392.355</ele>
        <time>2012-12-16T13:29:30Z</time>
      </trkpt>
      <trkpt lat="45.78294" lon="4.29092">
        <ele>390.913</ele>
        <time>2012-12-16T13:29:36Z</time>
      </trkpt>
      <trkpt lat="45.78289" lon="4.29086">
        <ele>389.471</ele>
        <time>2012-12-16T13:29:41Z</time>
      </trkpt>
      <trkpt lat="45.78277" lon="4.29082">
        <ele>388.991</ele>
        <time>2012-12-16T13:29:49Z</time>
      </trkpt>
      <trkpt lat="45.78272" lon="4.29081">
        <ele>388.991</ele>
        <time>2012-12-16T13:29:52Z</time>
      </trkpt>
      <trkpt lat="45.78264" lon="4.29076">
        <ele>388.991</ele>
        <time>2012-12-16T13:29:58Z</time>
      </trkpt>
      <trkpt lat="45.78258" lon="4.29069">
        <ele>388.991</ele>
        <time>2012-12-16T13:30:03Z</time>
      </trkpt>
      <trkpt lat="45.78249" lon="4.29062">
        <ele>391.394</ele>
        <time>2012-12-16T13:30:14Z</time>
      </trkpt>
      <trkpt lat="45.78234" lon="4.2905">
        <ele>393.797</ele>
        <time>2012-12-16T13:30:24Z</time>
      </trkpt>
      <trkpt lat="45.78231" lon="4.29048">
        <ele>393.797</ele>
        <time>2012-12-16T13:30:26Z</time>
      </trkpt>
      <trkpt lat="45.78219" lon="4.29042">
        <ele>393.797</ele>
        <time>2012-12-16T13:30:36Z</time>
      </trkpt>
      <trkpt lat="45.78213" lon="4.29033">
        <ele>393.797</ele>
        <time>2012-12-16T13:30:41Z</time>
      </trkpt>
      <trkpt lat="45.78211" lon="4.29023">
        <ele>394.278</ele>
        <time>2012-12-16T13:30:45Z</time>
      </trkpt>
      <trkpt lat="45.78211" lon="4.2901">
        <ele>394.759</ele>
        <time>2012-12-16T13:30:55Z</time>
      </trkpt>
      <trkpt lat="45.78212" lon="4.29009">
        <ele>394.759</ele>
        <time>2012-12-16T13:30:56Z</time>
      </trkpt>
      <trkpt lat="45.78214" lon="4.2899">
        <ele>393.317</ele>
        <time>2012-12-16T13:31:08Z</time>
      </trkpt>
      <trkpt lat="45.78219" lon="4.28979">
        <ele>389.952</ele>
        <time>2012-12-16T13:31:17Z</time>
      </trkpt>
      <trkpt lat="45.78217" lon="4.28954">
        <ele>384.184</ele>
        <time>2012-12-16T13:31:29Z</time>
      </trkpt>
      <trkpt lat="45.78215" lon="4.28936">
        <ele>379.377</ele>
        <time>2012-12-16T13:31:39Z</time>
      </trkpt>
      <trkpt lat="45.78218" lon="4.28916">
        <ele>377.935</ele>
        <time>2012-12-16T13:31:48Z</time>
      </trkpt>
      <trkpt lat="45.78217" lon="4.28907">
        <ele>377.935</ele>
        <time>2012-12-16T13:31:51Z</time>
      </trkpt>
      <trkpt lat="45.78215" lon="4.28875">
        <ele>378.416</ele>
        <time>2012-12-16T13:32:01Z</time>
      </trkpt>
      <trkpt lat="45.78217" lon="4.28863">
        <ele>379.858</ele>
        <time>2012-12-16T13:32:05Z</time>
      </trkpt>
      <trkpt lat="45.78219" lon="4.28859">
        <ele>379.858</ele>
        <time>2012-12-16T13:32:07Z</time>
      </trkpt>
      <trkpt lat="45.78215" lon="4.28827">
        <ele>383.703</ele>
        <time>2012-12-16T13:32:17Z</time>
      </trkpt>
      <trkpt lat="45.78219" lon="4.2882">
        <ele>385.145</ele>
        <time>2012-12-16T13:32:22Z</time>
      </trkpt>
      <trkpt lat="45.78223" lon="4.28814">
        <ele>386.587</ele>
        <time>2012-12-16T13:32:26Z</time>
      </trkpt>
      <trkpt lat="45.78226" lon="4.28808">
        <ele>386.587</ele>
        <time>2012-12-16T13:32:29Z</time>
      </trkpt>
      <trkpt lat="45.78227" lon="4.28805">
        <ele>386.587</ele>
        <time>2012-12-16T13:32:32Z</time>
      </trkpt>
      <trkpt lat="45.78233" lon="4.28788">
        <ele>388.029</ele>
        <time>2012-12-16T13:32:41Z</time>
      </trkpt>
      <trkpt lat="45.78232" lon="4.28773">
        <ele>389.952</ele>
        <time>2012-12-16T13:32:46Z</time>
      </trkpt>
      <trkpt lat="45.78235" lon="4.28754">
        <ele>394.278</ele>
        <time>2012-12-16T13:32:56Z</time>
      </trkpt>
      <trkpt lat="45.78235" lon="4.28737">
        <ele>396.201</ele>
        <time>2012-12-16T13:33:06Z</time>
      </trkpt>
      <trkpt lat="45.78231" lon="4.28728">
        <ele>397.162</ele>
        <time>2012-12-16T13:33:13Z</time>
      </trkpt>
      <trkpt lat="45.78222" lon="4.28718">
        <ele>398.604</ele>
        <time>2012-12-16T13:33:21Z</time>
      </trkpt>
      <trkpt lat="45.78209" lon="4.28709">
        <ele>399.565</ele>
        <time>2012-12-16T13:33:32Z</time>
      </trkpt>
      <trkpt lat="45.78196" lon="4.28699">
        <ele>400.046</ele>
        <time>2012-12-16T13:33:42Z</time>
      </trkpt>
      <trkpt lat="45.78191" lon="4.28695">
        <ele>400.046</ele>
        <time>2012-12-16T13:33:46Z</time>
      </trkpt>
      <trkpt lat="45.78185" lon="4.28691">
        <ele>400.046</ele>
        <time>2012-12-16T13:33:51Z</time>
      </trkpt>
      <trkpt lat="45.7818" lon="4.28686">
        <ele>400.046</ele>
        <time>2012-12-16T13:33:55Z</time>
      </trkpt>
      <trkpt lat="45.78166" lon="4.28677">
        <ele>399.565</ele>
        <time>2012-12-16T13:34:03Z</time>
      </trkpt>
      <trkpt lat="45.78152" lon="4.28665">
        <ele>399.084</ele>
        <time>2012-12-16T13:34:12Z</time>
      </trkpt>
      <trkpt lat="45.78143" lon="4.28663">
        <ele>399.565</ele>
        <time>2012-12-16T13:34:17Z</time>
      </trkpt>
      <trkpt lat="45.78124" lon="4.28658">
        <ele>399.084</ele>
        <time>2012-12-16T13:34:30Z</time>
      </trkpt>
      <trkpt lat="45.78121" lon="4.28656">
        <ele>398.604</ele>
        <time>2012-12-16T13:34:33Z</time>
      </trkpt>
      <trkpt lat="45.78107" lon="4.28655">
        <ele>397.162</ele>
        <time>2012-12-16T13:34:43Z</time>
      </trkpt>
      <trkpt lat="45.78093" lon="4.28653">
        <ele>398.123</ele>
        <time>2012-12-16T13:34:52Z</time>
      </trkpt>
      <trkpt lat="45.78077" lon="4.28648">
        <ele>401.007</ele>
        <time>2012-12-16T13:35:02Z</time>
      </trkpt>
      <trkpt lat="45.78064" lon="4.28645">
        <ele>401.969</ele>
        <time>2012-12-16T13:35:11Z</time>
      </trkpt>
      <trkpt lat="45.7806" lon="4.28645">
        <ele>402.449</ele>
        <time>2012-12-16T13:35:14Z</time>
      </trkpt>
      <trkpt lat="45.78046" lon="4.28646">
        <ele>402.93</ele>
        <time>2012-12-16T13:35:23Z</time>
      </trkpt>
      <trkpt lat="45.78043" lon="4.28647">
        <ele>402.93</ele>
        <time>2012-12-16T13:35:25Z</time>
      </trkpt>
      <trkpt lat="45.78035" lon="4.28646">
        <ele>403.41</ele>
        <time>2012-12-16T13:35:30Z</time>
      </trkpt>
      <trkpt lat="45.78018" lon="4.28654">
        <ele>404.852</ele>
        <time>2012-12-16T13:35:41Z</time>
      </trkpt>
      <trkpt lat="45.78007" lon="4.2866">
        <ele>404.852</ele>
        <time>2012-12-16T13:35:48Z</time>
      </trkpt>
      <trkpt lat="45.78" lon="4.28666">
        <ele>403.891</ele>
        <time>2012-12-16T13:35:53Z</time>
      </trkpt>
      <trkpt lat="45.77988" lon="4.2867">
        <ele>402.93</ele>
        <time>2012-12-16T13:36:01Z</time>
      </trkpt>
      <trkpt lat="45.77982" lon="4.28674">
        <ele>402.93</ele>
        <time>2012-12-16T13:36:05Z</time>
      </trkpt>
      <trkpt lat="45.77964" lon="4.28683">
        <ele>402.449</ele>
        <time>2012-12-16T13:36:17Z</time>
      </trkpt>
      <trkpt lat="45.77951" lon="4.28691">
        <ele>404.372</ele>
        <time>2012-12-16T13:36:25Z</time>
      </trkpt>
      <trkpt lat="45.77934" lon="4.28697">
        <ele>406.294</ele>
        <time>2012-12-16T13:36:35Z</time>
      </trkpt>
      <trkpt lat="45.77933" lon="4.28698">
        <ele>406.775</ele>
        <time>2012-12-16T13:36:36Z</time>
      </trkpt>
      <trkpt lat="45.77924" lon="4.28699">
        <ele>407.736</ele>
        <time>2012-12-16T13:36:42Z</time>
      </trkpt>
      <trkpt lat="45.77918" lon="4.28701">
        <ele>408.698</ele>
        <time>2012-12-16T13:36:46Z</time>
      </trkpt>
      <trkpt lat="45.77911" lon="4.28703">
        <ele>409.178</ele>
        <time>2012-12-16T13:36:50Z</time>
      </trkpt>
      <trkpt lat="45.77897" lon="4.28706">
        <ele>410.14</ele>
        <time>2012-12-16T13:37:00Z</time>
      </trkpt>
      <trkpt lat="45.77878" lon="4.28705">
        <ele>409.659</ele>
        <time>2012-12-16T13:37:11Z</time>
      </trkpt>
      <trkpt lat="45.77869" lon="4.28706">
        <ele>409.178</ele>
        <time>2012-12-16T13:37:17Z</time>
      </trkpt>
      <trkpt lat="45.77863" lon="4.28705">
        <ele>408.698</ele>
        <time>2012-12-16T13:37:21Z</time>
      </trkpt>
      <trkpt lat="45.77857" lon="4.28706">
        <ele>408.698</ele>
        <time>2012-12-16T13:37:25Z</time>
      </trkpt>
      <trkpt lat="45.77854" lon="4.28708">
        <ele>408.698</ele>
        <time>2012-12-16T13:37:27Z</time>
      </trkpt>
      <trkpt lat="45.77843" lon="4.2871">
        <ele>409.659</ele>
        <time>2012-12-16T13:37:35Z</time>
      </trkpt>
      <trkpt lat="45.77824" lon="4.28716">
        <ele>411.582</ele>
        <time>2012-12-16T13:37:46Z</time>
      </trkpt>
      <trkpt lat="45.7782" lon="4.28719">
        <ele>412.062</ele>
        <time>2012-12-16T13:37:49Z</time>
      </trkpt>
      <trkpt lat="45.77806" lon="4.2872">
        <ele>413.504</ele>
        <time>2012-12-16T13:37:58Z</time>
      </trkpt>
      <trkpt lat="45.7779" lon="4.28731">
        <ele>413.504</ele>
        <time>2012-12-16T13:38:08Z</time>
      </trkpt>
      <trkpt lat="45.77771" lon="4.2874">
        <ele>410.62</ele>
        <time>2012-12-16T13:38:21Z</time>
      </trkpt>
      <trkpt lat="45.77758" lon="4.28753">
        <ele>411.582</ele>
        <time>2012-12-16T13:38:30Z</time>
      </trkpt>
      <trkpt lat="45.77753" lon="4.28755">
        <ele>411.101</ele>
        <time>2012-12-16T13:38:34Z</time>
      </trkpt>
      <trkpt lat="45.77743" lon="4.28759">
        <ele>409.659</ele>
        <time>2012-12-16T13:38:41Z</time>
      </trkpt>
      <trkpt lat="45.77729" lon="4.28773">
        <ele>407.736</ele>
        <time>2012-12-16T13:38:51Z</time>
      </trkpt>
      <trkpt lat="45.77719" lon="4.28778">
        <ele>406.294</ele>
        <time>2012-12-16T13:38:58Z</time>
      </trkpt>
      <trkpt lat="45.77714" lon="4.28784">
        <ele>405.814</ele>
        <time>2012-12-16T13:39:02Z</time>
      </trkpt>
      <trkpt lat="45.777" lon="4.28798">
        <ele>406.294</ele>
        <time>2012-12-16T13:39:14Z</time>
      </trkpt>
      <trkpt lat="45.77693" lon="4.28806">
        <ele>406.294</ele>
        <time>2012-12-16T13:39:19Z</time>
      </trkpt>
      <trkpt lat="45.77683" lon="4.28814">
        <ele>407.256</ele>
        <time>2012-12-16T13:39:27Z</time>
      </trkpt>
      <trkpt lat="45.77679" lon="4.28816">
        <ele>407.736</ele>
        <time>2012-12-16T13:39:30Z</time>
      </trkpt>
      <trkpt lat="45.77673" lon="4.28821">
        <ele>408.698</ele>
        <time>2012-12-16T13:39:34Z</time>
      </trkpt>
      <trkpt lat="45.77666" lon="4.28828">
        <ele>409.178</ele>
        <time>2012-12-16T13:39:38Z</time>
      </trkpt>
      <trkpt lat="45.77662" lon="4.28833">
        <ele>409.659</ele>
        <time>2012-12-16T13:39:41Z</time>
      </trkpt>
      <trkpt lat="45.77651" lon="4.28837">
        <ele>410.14</ele>
        <time>2012-12-16T13:39:50Z</time>
      </trkpt>
      <trkpt lat="45.77633" lon="4.28851">
        <ele>409.659</ele>
        <time>2012-12-16T13:40:01Z</time>
      </trkpt>
      <trkpt lat="45.77629" lon="4.28852">
        <ele>408.698</ele>
        <time>2012-12-16T13:40:04Z</time>
      </trkpt>
      <trkpt lat="45.77626" lon="4.28854">
        <ele>407.736</ele>
        <time>2012-12-16T13:40:07Z</time>
      </trkpt>
      <trkpt lat="45.77616" lon="4.28856">
        <ele>404.852</ele>
        <time>2012-12-16T13:40:14Z</time>
      </trkpt>
      <trkpt lat="45.7761" lon="4.28856">
        <ele>402.93</ele>
        <time>2012-12-16T13:40:18Z</time>
      </trkpt>
      <trkpt lat="45.77603" lon="4.28859">
        <ele>401.488</ele>
        <time>2012-12-16T13:40:22Z</time>
      </trkpt>
      <trkpt lat="45.7759" lon="4.28862">
        <ele>400.526</ele>
        <time>2012-12-16T13:40:30Z</time>
      </trkpt>
      <trkpt lat="45.7757" lon="4.28871">
        <ele>400.046</ele>
        <time>2012-12-16T13:40:41Z</time>
      </trkpt>
      <trkpt lat="45.77566" lon="4.28872">
        <ele>399.565</ele>
        <time>2012-12-16T13:40:43Z</time>
      </trkpt>
      <trkpt lat="45.77562" lon="4.28875">
        <ele>399.084</ele>
        <time>2012-12-16T13:40:46Z</time>
      </trkpt>
      <trkpt lat="45.7755" lon="4.28872">
        <ele>399.084</ele>
        <time>2012-12-16T13:40:53Z</time>
      </trkpt>
      <trkpt lat="45.77537" lon="4.28873">
        <ele>400.046</ele>
        <time>2012-12-16T13:41:01Z</time>
      </trkpt>
      <trkpt lat="45.77514" lon="4.2886">
        <ele>403.41</ele>
        <time>2012-12-16T13:41:16Z</time>
      </trkpt>
      <trkpt lat="45.77498" lon="4.28848">
        <ele>405.333</ele>
        <time>2012-12-16T13:41:28Z</time>
      </trkpt>
      <trkpt lat="45.77497" lon="4.28847">
        <ele>405.333</ele>
        <time>2012-12-16T13:41:29Z</time>
      </trkpt>
      <trkpt lat="45.7748" lon="4.28841">
        <ele>404.372</ele>
        <time>2012-12-16T13:41:39Z</time>
      </trkpt>
      <trkpt lat="45.77479" lon="4.2884">
        <ele>404.372</ele>
        <time>2012-12-16T13:41:40Z</time>
      </trkpt>
      <trkpt lat="45.77475" lon="4.28836">
        <ele>403.41</ele>
        <time>2012-12-16T13:41:44Z</time>
      </trkpt>
      <trkpt lat="45.77457" lon="4.2883">
        <ele>402.449</ele>
        <time>2012-12-16T13:41:55Z</time>
      </trkpt>
      <trkpt lat="45.77447" lon="4.28824">
        <ele>403.41</ele>
        <time>2012-12-16T13:42:03Z</time>
      </trkpt>
      <trkpt lat="45.77437" lon="4.2882">
        <ele>403.41</ele>
        <time>2012-12-16T13:42:11Z</time>
      </trkpt>
      <trkpt lat="45.77433" lon="4.28814">
        <ele>402.93</ele>
        <time>2012-12-16T13:42:16Z</time>
      </trkpt>
      <trkpt lat="45.77429" lon="4.28813">
        <ele>401.488</ele>
        <time>2012-12-16T13:42:34Z</time>
      </trkpt>
      <trkpt lat="45.77428" lon="4.28812">
        <ele>401.488</ele>
        <time>2012-12-16T13:42:47Z</time>
      </trkpt>
      <trkpt lat="45.77418" lon="4.28809">
        <ele>401.007</ele>
        <time>2012-12-16T13:42:55Z</time>
      </trkpt>
      <trkpt lat="45.77394" lon="4.28809">
        <ele>401.969</ele>
        <time>2012-12-16T13:43:08Z</time>
      </trkpt>
      <trkpt lat="45.77388" lon="4.2881">
        <ele>402.93</ele>
        <time>2012-12-16T13:43:12Z</time>
      </trkpt>
      <trkpt lat="45.77373" lon="4.28811">
        <ele>403.41</ele>
        <time>2012-12-16T13:43:22Z</time>
      </trkpt>
      <trkpt lat="45.77361" lon="4.28816">
        <ele>401.007</ele>
        <time>2012-12-16T13:43:29Z</time>
      </trkpt>
      <trkpt lat="45.77357" lon="4.28819">
        <ele>398.123</ele>
        <time>2012-12-16T13:43:33Z</time>
      </trkpt>
      <trkpt lat="45.77351" lon="4.2882">
        <ele>395.72</ele>
        <time>2012-12-16T13:43:37Z</time>
      </trkpt>
      <trkpt lat="45.77342" lon="4.28836">
        <ele>391.875</ele>
        <time>2012-12-16T13:43:46Z</time>
      </trkpt>
      <trkpt lat="45.7734" lon="4.28837">
        <ele>390.913</ele>
        <time>2012-12-16T13:43:47Z</time>
      </trkpt>
      <trkpt lat="45.77338" lon="4.28841">
        <ele>389.471</ele>
        <time>2012-12-16T13:43:49Z</time>
      </trkpt>
      <trkpt lat="45.77325" lon="4.28847">
        <ele>386.587</ele>
        <time>2012-12-16T13:43:59Z</time>
      </trkpt>
      <trkpt lat="45.77321" lon="4.28854">
        <ele>387.068</ele>
        <time>2012-12-16T13:44:03Z</time>
      </trkpt>
      <trkpt lat="45.77317" lon="4.28858">
        <ele>386.587</ele>
        <time>2012-12-16T13:44:07Z</time>
      </trkpt>
      <trkpt lat="45.77315" lon="4.28861">
        <ele>386.107</ele>
        <time>2012-12-16T13:44:09Z</time>
      </trkpt>
      <trkpt lat="45.77314" lon="4.28861">
        <ele>385.626</ele>
        <time>2012-12-16T13:44:11Z</time>
      </trkpt>
      <trkpt lat="45.7731" lon="4.28865">
        <ele>384.184</ele>
        <time>2012-12-16T13:44:17Z</time>
      </trkpt>
      <trkpt lat="45.77306" lon="4.28874">
        <ele>381.3</ele>
        <time>2012-12-16T13:44:23Z</time>
      </trkpt>
      <trkpt lat="45.77304" lon="4.28876">
        <ele>380.819</ele>
        <time>2012-12-16T13:44:25Z</time>
      </trkpt>
      <trkpt lat="45.77297" lon="4.28891">
        <ele>375.532</ele>
        <time>2012-12-16T13:44:33Z</time>
      </trkpt>
      <trkpt lat="45.77293" lon="4.28896">
        <ele>372.648</ele>
        <time>2012-12-16T13:44:37Z</time>
      </trkpt>
      <trkpt lat="45.77291" lon="4.28898">
        <ele>370.726</ele>
        <time>2012-12-16T13:44:39Z</time>
      </trkpt>
      <trkpt lat="45.77285" lon="4.28901">
        <ele>368.322</ele>
        <time>2012-12-16T13:44:43Z</time>
      </trkpt>
      <trkpt lat="45.77275" lon="4.289">
        <ele>365.919</ele>
        <time>2012-12-16T13:44:49Z</time>
      </trkpt>
      <trkpt lat="45.77252" lon="4.28905">
        <ele>364.477</ele>
        <time>2012-12-16T13:45:01Z</time>
      </trkpt>
      <trkpt lat="45.77246" lon="4.28904">
        <ele>363.996</ele>
        <time>2012-12-16T13:45:04Z</time>
      </trkpt>
      <trkpt lat="45.77228" lon="4.2891">
        <ele>364.958</ele>
        <time>2012-12-16T13:45:14Z</time>
      </trkpt>
      <trkpt lat="45.77225" lon="4.2891">
        <ele>364.958</ele>
        <time>2012-12-16T13:45:16Z</time>
      </trkpt>
      <trkpt lat="45.77208" lon="4.28912">
        <ele>368.322</ele>
        <time>2012-12-16T13:45:27Z</time>
      </trkpt>
      <trkpt lat="45.77202" lon="4.28915">
        <ele>369.764</ele>
        <time>2012-12-16T13:45:30Z</time>
      </trkpt>
      <trkpt lat="45.772" lon="4.28916">
        <ele>370.726</ele>
        <time>2012-12-16T13:45:32Z</time>
      </trkpt>
      <trkpt lat="45.77194" lon="4.28916">
        <ele>372.648</ele>
        <time>2012-12-16T13:45:36Z</time>
      </trkpt>
      <trkpt lat="45.7719" lon="4.28916">
        <ele>373.609</ele>
        <time>2012-12-16T13:45:38Z</time>
      </trkpt>
      <trkpt lat="45.77175" lon="4.28923">
        <ele>376.494</ele>
        <time>2012-12-16T13:45:49Z</time>
      </trkpt>
      <trkpt lat="45.77174" lon="4.28923">
        <ele>376.974</ele>
        <time>2012-12-16T13:45:50Z</time>
      </trkpt>
      <trkpt lat="45.77167" lon="4.28923">
        <ele>376.974</ele>
        <time>2012-12-16T13:45:54Z</time>
      </trkpt>
      <trkpt lat="45.77154" lon="4.28928">
        <ele>378.416</ele>
        <time>2012-12-16T13:46:02Z</time>
      </trkpt>
      <trkpt lat="45.77135" lon="4.28929">
        <ele>381.3</ele>
        <time>2012-12-16T13:46:14Z</time>
      </trkpt>
      <trkpt lat="45.77134" lon="4.2893">
        <ele>381.781</ele>
        <time>2012-12-16T13:46:15Z</time>
      </trkpt>
      <trkpt lat="45.77129" lon="4.28933">
        <ele>382.742</ele>
        <time>2012-12-16T13:46:18Z</time>
      </trkpt>
      <trkpt lat="45.77112" lon="4.28934">
        <ele>387.068</ele>
        <time>2012-12-16T13:46:28Z</time>
      </trkpt>
      <trkpt lat="45.77101" lon="4.28941">
        <ele>388.51</ele>
        <time>2012-12-16T13:46:36Z</time>
      </trkpt>
      <trkpt lat="45.77088" lon="4.28947">
        <ele>389.952</ele>
        <time>2012-12-16T13:46:45Z</time>
      </trkpt>
      <trkpt lat="45.77074" lon="4.28953">
        <ele>392.355</ele>
        <time>2012-12-16T13:46:56Z</time>
      </trkpt>
      <trkpt lat="45.7706" lon="4.2896">
        <ele>392.355</ele>
        <time>2012-12-16T13:47:04Z</time>
      </trkpt>
      <trkpt lat="45.77052" lon="4.28962">
        <ele>393.317</ele>
        <time>2012-12-16T13:47:10Z</time>
      </trkpt>
      <trkpt lat="45.77045" lon="4.28962">
        <ele>393.797</ele>
        <time>2012-12-16T13:47:14Z</time>
      </trkpt>
      <trkpt lat="45.77031" lon="4.28969">
        <ele>393.797</ele>
        <time>2012-12-16T13:47:24Z</time>
      </trkpt>
      <trkpt lat="45.77019" lon="4.28972">
        <ele>394.278</ele>
        <time>2012-12-16T13:47:32Z</time>
      </trkpt>
      <trkpt lat="45.77011" lon="4.28979">
        <ele>394.759</ele>
        <time>2012-12-16T13:47:38Z</time>
      </trkpt>
      <trkpt lat="45.77005" lon="4.28981">
        <ele>394.759</ele>
        <time>2012-12-16T13:47:42Z</time>
      </trkpt>
      <trkpt lat="45.76989" lon="4.28993">
        <ele>395.72</ele>
        <time>2012-12-16T13:47:54Z</time>
      </trkpt>
      <trkpt lat="45.76982" lon="4.28994">
        <ele>395.72</ele>
        <time>2012-12-16T13:47:59Z</time>
      </trkpt>
      <trkpt lat="45.76969" lon="4.29004">
        <ele>396.201</ele>
        <time>2012-12-16T13:48:08Z</time>
      </trkpt>
      <trkpt lat="45.7695" lon="4.29015">
        <ele>396.201</ele>
        <time>2012-12-16T13:48:20Z</time>
      </trkpt>
      <trkpt lat="45.76947" lon="4.29018">
        <ele>396.201</ele>
        <time>2012-12-16T13:48:22Z</time>
      </trkpt>
      <trkpt lat="45.7693" lon="4.29027">
        <ele>396.201</ele>
        <time>2012-12-16T13:48:35Z</time>
      </trkpt>
      <trkpt lat="45.76913" lon="4.29038">
        <ele>395.72</ele>
        <time>2012-12-16T13:48:45Z</time>
      </trkpt>
      <trkpt lat="45.76907" lon="4.29044">
        <ele>395.72</ele>
        <time>2012-12-16T13:48:50Z</time>
      </trkpt>
      <trkpt lat="45.76893" lon="4.29051">
        <ele>396.681</ele>
        <time>2012-12-16T13:49:00Z</time>
      </trkpt>
      <trkpt lat="45.76888" lon="4.29056">
        <ele>398.123</ele>
        <time>2012-12-16T13:49:11Z</time>
      </trkpt>
      <trkpt lat="45.76871" lon="4.29062">
        <ele>397.162</ele>
        <time>2012-12-16T13:49:22Z</time>
      </trkpt>
      <trkpt lat="45.76855" lon="4.29078">
        <ele>398.123</ele>
        <time>2012-12-16T13:49:33Z</time>
      </trkpt>
      <trkpt lat="45.76846" lon="4.29085">
        <ele>398.604</ele>
        <time>2012-12-16T13:49:40Z</time>
      </trkpt>
      <trkpt lat="45.76837" lon="4.29089">
        <ele>398.604</ele>
        <time>2012-12-16T13:49:46Z</time>
      </trkpt>
      <trkpt lat="45.76831" lon="4.29095">
        <ele>399.084</ele>
        <time>2012-12-16T13:49:50Z</time>
      </trkpt>
      <trkpt lat="45.7682" lon="4.29104">
        <ele>400.526</ele>
        <time>2012-12-16T13:49:56Z</time>
      </trkpt>
      <trkpt lat="45.76809" lon="4.29112">
        <ele>398.604</ele>
        <time>2012-12-16T13:50:05Z</time>
      </trkpt>
      <trkpt lat="45.76803" lon="4.29113">
        <ele>397.642</ele>
        <time>2012-12-16T13:50:09Z</time>
      </trkpt>
      <trkpt lat="45.7678" lon="4.29116">
        <ele>400.046</ele>
        <time>2012-12-16T13:50:22Z</time>
      </trkpt>
      <trkpt lat="45.76758" lon="4.29123">
        <ele>401.007</ele>
        <time>2012-12-16T13:50:34Z</time>
      </trkpt>
      <trkpt lat="45.76743" lon="4.29124">
        <ele>399.084</ele>
        <time>2012-12-16T13:50:44Z</time>
      </trkpt>
      <trkpt lat="45.76729" lon="4.29123">
        <ele>398.604</ele>
        <time>2012-12-16T13:50:52Z</time>
      </trkpt>
      <trkpt lat="45.76716" lon="4.29127">
        <ele>398.123</ele>
        <time>2012-12-16T13:50:59Z</time>
      </trkpt>
      <trkpt lat="45.76711" lon="4.29128">
        <ele>397.642</ele>
        <time>2012-12-16T13:51:02Z</time>
      </trkpt>
      <trkpt lat="45.76706" lon="4.29129">
        <ele>396.681</ele>
        <time>2012-12-16T13:51:06Z</time>
      </trkpt>
      <trkpt lat="45.76689" lon="4.29127">
        <ele>395.72</ele>
        <time>2012-12-16T13:51:16Z</time>
      </trkpt>
      <trkpt lat="45.76672" lon="4.29133">
        <ele>395.72</ele>
        <time>2012-12-16T13:51:25Z</time>
      </trkpt>
      <trkpt lat="45.76662" lon="4.29134">
        <ele>396.681</ele>
        <time>2012-12-16T13:51:31Z</time>
      </trkpt>
      <trkpt lat="45.76648" lon="4.2913">
        <ele>398.604</ele>
        <time>2012-12-16T13:51:39Z</time>
      </trkpt>
      <trkpt lat="45.76637" lon="4.29134">
        <ele>401.007</ele>
        <time>2012-12-16T13:51:46Z</time>
      </trkpt>
      <trkpt lat="45.76626" lon="4.2913">
        <ele>402.449</ele>
        <time>2012-12-16T13:51:54Z</time>
      </trkpt>
      <trkpt lat="45.76623" lon="4.2913">
        <ele>402.449</ele>
        <time>2012-12-16T13:51:56Z</time>
      </trkpt>
      <trkpt lat="45.76608" lon="4.29139">
        <ele>404.852</ele>
        <time>2012-12-16T13:52:05Z</time>
      </trkpt>
      <trkpt lat="45.76604" lon="4.29139">
        <ele>405.333</ele>
        <time>2012-12-16T13:52:08Z</time>
      </trkpt>
      <trkpt lat="45.76586" lon="4.29138">
        <ele>408.698</ele>
        <time>2012-12-16T13:52:20Z</time>
      </trkpt>
      <trkpt lat="45.76576" lon="4.29141">
        <ele>409.178</ele>
        <time>2012-12-16T13:52:26Z</time>
      </trkpt>
      <trkpt lat="45.76561" lon="4.29141">
        <ele>410.14</ele>
        <time>2012-12-16T13:52:36Z</time>
      </trkpt>
      <trkpt lat="45.76547" lon="4.2915">
        <ele>407.256</ele>
        <time>2012-12-16T13:52:46Z</time>
      </trkpt>
      <trkpt lat="45.76538" lon="4.2915">
        <ele>405.333</ele>
        <time>2012-12-16T13:52:54Z</time>
      </trkpt>
      <trkpt lat="45.7653" lon="4.29159">
        <ele>403.41</ele>
        <time>2012-12-16T13:53:01Z</time>
      </trkpt>
      <trkpt lat="45.7653" lon="4.2917">
        <ele>401.488</ele>
        <time>2012-12-16T13:53:06Z</time>
      </trkpt>
      <trkpt lat="45.7653" lon="4.29175">
        <ele>401.007</ele>
        <time>2012-12-16T13:53:09Z</time>
      </trkpt>
      <trkpt lat="45.76532" lon="4.29187">
        <ele>400.046</ele>
        <time>2012-12-16T13:53:19Z</time>
      </trkpt>
      <trkpt lat="45.76532" lon="4.29187">
        <ele>400.046</ele>
        <time>2012-12-16T13:53:34Z</time>
      </trkpt>
      <trkpt lat="45.76535" lon="4.2919">
        <ele>400.526</ele>
        <time>2012-12-16T13:53:38Z</time>
      </trkpt>
      <trkpt lat="45.76538" lon="4.29191">
        <ele>399.565</ele>
        <time>2012-12-16T13:53:50Z</time>
      </trkpt>
      <trkpt lat="45.76532" lon="4.29187">
        <ele>399.084</ele>
        <time>2012-12-16T13:54:03Z</time>
      </trkpt>
      <trkpt lat="45.76531" lon="4.29186">
        <ele>399.084</ele>
        <time>2012-12-16T13:54:13Z</time>
      </trkpt>
      <trkpt lat="45.76524" lon="4.29185">
        <ele>399.084</ele>
        <time>2012-12-16T13:54:18Z</time>
      </trkpt>
      <trkpt lat="45.76517" lon="4.29184">
        <ele>400.526</ele>
        <time>2012-12-16T13:54:23Z</time>
      </trkpt>
      <trkpt lat="45.76506" lon="4.29183">
        <ele>401.007</ele>
        <time>2012-12-16T13:54:31Z</time>
      </trkpt>
      <trkpt lat="45.76492" lon="4.29186">
        <ele>398.123</ele>
        <time>2012-12-16T13:54:43Z</time>
      </trkpt>
      <trkpt lat="45.76489" lon="4.29186">
        <ele>397.642</ele>
        <time>2012-12-16T13:54:45Z</time>
      </trkpt>
      <trkpt lat="45.76484" lon="4.29184">
        <ele>397.642</ele>
        <time>2012-12-16T13:54:49Z</time>
      </trkpt>
      <trkpt lat="45.76468" lon="4.29187">
        <ele>396.681</ele>
        <time>2012-12-16T13:54:59Z</time>
      </trkpt>
      <trkpt lat="45.76458" lon="4.29189">
        <ele>397.642</ele>
        <time>2012-12-16T13:55:05Z</time>
      </trkpt>
      <trkpt lat="45.76453" lon="4.29191">
        <ele>397.642</ele>
        <time>2012-12-16T13:55:08Z</time>
      </trkpt>
      <trkpt lat="45.76442" lon="4.29189">
        <ele>398.604</ele>
        <time>2012-12-16T13:55:15Z</time>
      </trkpt>
      <trkpt lat="45.76429" lon="4.29188">
        <ele>399.565</ele>
        <time>2012-12-16T13:55:24Z</time>
      </trkpt>
      <trkpt lat="45.76419" lon="4.29186">
        <ele>399.084</ele>
        <time>2012-12-16T13:55:32Z</time>
      </trkpt>
      <trkpt lat="45.76415" lon="4.29187">
        <ele>398.604</ele>
        <time>2012-12-16T13:55:35Z</time>
      </trkpt>
      <trkpt lat="45.76413" lon="4.29186">
        <ele>398.604</ele>
        <time>2012-12-16T13:55:37Z</time>
      </trkpt>
      <trkpt lat="45.76394" lon="4.29181">
        <ele>397.642</ele>
        <time>2012-12-16T13:55:49Z</time>
      </trkpt>
      <trkpt lat="45.76385" lon="4.29178">
        <ele>395.72</ele>
        <time>2012-12-16T13:55:56Z</time>
      </trkpt>
      <trkpt lat="45.76376" lon="4.29175">
        <ele>392.355</ele>
        <time>2012-12-16T13:56:03Z</time>
      </trkpt>
      <trkpt lat="45.7636" lon="4.29174">
        <ele>389.471</ele>
        <time>2012-12-16T13:56:14Z</time>
      </trkpt>
      <trkpt lat="45.76354" lon="4.29174">
        <ele>389.471</ele>
        <time>2012-12-16T13:56:19Z</time>
      </trkpt>
      <trkpt lat="45.76343" lon="4.29168">
        <ele>389.952</ele>
        <time>2012-12-16T13:56:28Z</time>
      </trkpt>
      <trkpt lat="45.76332" lon="4.2916">
        <ele>390.433</ele>
        <time>2012-12-16T13:56:35Z</time>
      </trkpt>
      <trkpt lat="45.76326" lon="4.2915">
        <ele>390.433</ele>
        <time>2012-12-16T13:56:44Z</time>
      </trkpt>
      <trkpt lat="45.76316" lon="4.29136">
        <ele>391.394</ele>
        <time>2012-12-16T13:56:54Z</time>
      </trkpt>
      <trkpt lat="45.76317" lon="4.29136">
        <ele>391.394</ele>
        <time>2012-12-16T13:57:17Z</time>
      </trkpt>
      <trkpt lat="45.76315" lon="4.29122">
        <ele>389.471</ele>
        <time>2012-12-16T13:57:24Z</time>
      </trkpt>
      <trkpt lat="45.7631" lon="4.29103">
        <ele>388.51</ele>
        <time>2012-12-16T13:57:32Z</time>
      </trkpt>
      <trkpt lat="45.76307" lon="4.29092">
        <ele>388.029</ele>
        <time>2012-12-16T13:57:38Z</time>
      </trkpt>
      <trkpt lat="45.76304" lon="4.29089">
        <ele>388.51</ele>
        <time>2012-12-16T13:57:40Z</time>
      </trkpt>
      <trkpt lat="45.76296" lon="4.29073">
        <ele>387.549</ele>
        <time>2012-12-16T13:57:49Z</time>
      </trkpt>
      <trkpt lat="45.7629" lon="4.29059">
        <ele>387.549</ele>
        <time>2012-12-16T13:57:57Z</time>
      </trkpt>
      <trkpt lat="45.76282" lon="4.29047">
        <ele>388.029</ele>
        <time>2012-12-16T13:58:04Z</time>
      </trkpt>
      <trkpt lat="45.76276" lon="4.29026">
        <ele>391.394</ele>
        <time>2012-12-16T13:58:15Z</time>
      </trkpt>
      <trkpt lat="45.76274" lon="4.29013">
        <ele>392.836</ele>
        <time>2012-12-16T13:58:23Z</time>
      </trkpt>
      <trkpt lat="45.76265" lon="4.29001">
        <ele>390.433</ele>
        <time>2012-12-16T13:58:29Z</time>
      </trkpt>
      <trkpt lat="45.76249" lon="4.28987">
        <ele>388.029</ele>
        <time>2012-12-16T13:58:39Z</time>
      </trkpt>
      <trkpt lat="45.76248" lon="4.28985">
        <ele>388.51</ele>
        <time>2012-12-16T13:58:40Z</time>
      </trkpt>
      <trkpt lat="45.76242" lon="4.2898">
        <ele>388.029</ele>
        <time>2012-12-16T13:58:44Z</time>
      </trkpt>
      <trkpt lat="45.76223" lon="4.28965">
        <ele>388.991</ele>
        <time>2012-12-16T13:58:57Z</time>
      </trkpt>
      <trkpt lat="45.76212" lon="4.28961">
        <ele>389.952</ele>
        <time>2012-12-16T13:59:03Z</time>
      </trkpt>
      <trkpt lat="45.76194" lon="4.28951">
        <ele>390.433</ele>
        <time>2012-12-16T13:59:16Z</time>
      </trkpt>
      <trkpt lat="45.76177" lon="4.28947">
        <ele>390.433</ele>
        <time>2012-12-16T13:59:28Z</time>
      </trkpt>
      <trkpt lat="45.76163" lon="4.28943">
        <ele>390.433</ele>
        <time>2012-12-16T13:59:36Z</time>
      </trkpt>
      <trkpt lat="45.76145" lon="4.28941">
        <ele>391.394</ele>
        <time>2012-12-16T13:59:48Z</time>
      </trkpt>
      <trkpt lat="45.76138" lon="4.28941">
        <ele>390.913</ele>
        <time>2012-12-16T13:59:52Z</time>
      </trkpt>
      <trkpt lat="45.76134" lon="4.2894">
        <ele>390.433</ele>
        <time>2012-12-16T13:59:55Z</time>
      </trkpt>
      <trkpt lat="45.76132" lon="4.28941">
        <ele>389.471</ele>
        <time>2012-12-16T13:59:57Z</time>
      </trkpt>
      <trkpt lat="45.76109" lon="4.28944">
        <ele>386.587</ele>
        <time>2012-12-16T14:00:11Z</time>
      </trkpt>
      <trkpt lat="45.76091" lon="4.28949">
        <ele>384.665</ele>
        <time>2012-12-16T14:00:24Z</time>
      </trkpt>
      <trkpt lat="45.76086" lon="4.28949">
        <ele>384.665</ele>
        <time>2012-12-16T14:00:28Z</time>
      </trkpt>
      <trkpt lat="45.76081" lon="4.28947">
        <ele>384.665</ele>
        <time>2012-12-16T14:00:32Z</time>
      </trkpt>
      <trkpt lat="45.76067" lon="4.28949">
        <ele>382.742</ele>
        <time>2012-12-16T14:00:41Z</time>
      </trkpt>
      <trkpt lat="45.76053" lon="4.28947">
        <ele>381.781</ele>
        <time>2012-12-16T14:00:52Z</time>
      </trkpt>
      <trkpt lat="45.76042" lon="4.28949">
        <ele>381.3</ele>
        <time>2012-12-16T14:00:58Z</time>
      </trkpt>
      <trkpt lat="45.7604" lon="4.28948">
        <ele>381.3</ele>
        <time>2012-12-16T14:01:00Z</time>
      </trkpt>
      <trkpt lat="45.7603" lon="4.28948">
        <ele>380.819</ele>
        <time>2012-12-16T14:01:07Z</time>
      </trkpt>
      <trkpt lat="45.76025" lon="4.28949">
        <ele>380.339</ele>
        <time>2012-12-16T14:01:10Z</time>
      </trkpt>
      <trkpt lat="45.76016" lon="4.2895">
        <ele>378.897</ele>
        <time>2012-12-16T14:01:17Z</time>
      </trkpt>
      <trkpt lat="45.76008" lon="4.28948">
        <ele>378.416</ele>
        <time>2012-12-16T14:01:23Z</time>
      </trkpt>
      <trkpt lat="45.75993" lon="4.2895">
        <ele>381.3</ele>
        <time>2012-12-16T14:01:33Z</time>
      </trkpt>
      <trkpt lat="45.75986" lon="4.2895">
        <ele>382.742</ele>
        <time>2012-12-16T14:01:38Z</time>
      </trkpt>
      <trkpt lat="45.75973" lon="4.28951">
        <ele>384.665</ele>
        <time>2012-12-16T14:01:46Z</time>
      </trkpt>
      <trkpt lat="45.75966" lon="4.28949">
        <ele>384.665</ele>
        <time>2012-12-16T14:01:53Z</time>
      </trkpt>
      <trkpt lat="45.75959" lon="4.28947">
        <ele>385.145</ele>
        <time>2012-12-16T14:01:58Z</time>
      </trkpt>
      <trkpt lat="45.75948" lon="4.2894">
        <ele>386.587</ele>
        <time>2012-12-16T14:02:06Z</time>
      </trkpt>
      <trkpt lat="45.75942" lon="4.28933">
        <ele>386.587</ele>
        <time>2012-12-16T14:02:13Z</time>
      </trkpt>
      <trkpt lat="45.75938" lon="4.2893">
        <ele>385.626</ele>
        <time>2012-12-16T14:02:16Z</time>
      </trkpt>
      <trkpt lat="45.75935" lon="4.28927">
        <ele>385.145</ele>
        <time>2012-12-16T14:02:18Z</time>
      </trkpt>
      <trkpt lat="45.75926" lon="4.28912">
        <ele>382.742</ele>
        <time>2012-12-16T14:02:25Z</time>
      </trkpt>
      <trkpt lat="45.75918" lon="4.28898">
        <ele>376.013</ele>
        <time>2012-12-16T14:02:36Z</time>
      </trkpt>
      <trkpt lat="45.759" lon="4.28881">
        <ele>372.167</ele>
        <time>2012-12-16T14:02:48Z</time>
      </trkpt>
      <trkpt lat="45.75899" lon="4.28879">
        <ele>372.167</ele>
        <time>2012-12-16T14:02:50Z</time>
      </trkpt>
      <trkpt lat="45.75897" lon="4.28874">
        <ele>371.687</ele>
        <time>2012-12-16T14:02:54Z</time>
      </trkpt>
      <trkpt lat="45.75879" lon="4.28861">
        <ele>367.842</ele>
        <time>2012-12-16T14:03:05Z</time>
      </trkpt>
      <trkpt lat="45.75877" lon="4.28858">
        <ele>367.361</ele>
        <time>2012-12-16T14:03:07Z</time>
      </trkpt>
      <trkpt lat="45.75871" lon="4.28852">
        <ele>365.438</ele>
        <time>2012-12-16T14:03:13Z</time>
      </trkpt>
      <trkpt lat="45.75854" lon="4.28837">
        <ele>364.958</ele>
        <time>2012-12-16T14:03:23Z</time>
      </trkpt>
      <trkpt lat="45.75852" lon="4.28833">
        <ele>365.438</ele>
        <time>2012-12-16T14:03:27Z</time>
      </trkpt>
      <trkpt lat="45.75847" lon="4.28827">
        <ele>364.477</ele>
        <time>2012-12-16T14:03:32Z</time>
      </trkpt>
      <trkpt lat="45.75845" lon="4.28823">
        <ele>363.516</ele>
        <time>2012-12-16T14:03:34Z</time>
      </trkpt>
      <trkpt lat="45.7584" lon="4.28817">
        <ele>363.035</ele>
        <time>2012-12-16T14:03:38Z</time>
      </trkpt>
      <trkpt lat="45.75835" lon="4.28807">
        <ele>363.516</ele>
        <time>2012-12-16T14:03:48Z</time>
      </trkpt>
      <trkpt lat="45.75822" lon="4.28792">
        <ele>365.919</ele>
        <time>2012-12-16T14:03:59Z</time>
      </trkpt>
      <trkpt lat="45.75818" lon="4.28779">
        <ele>368.803</ele>
        <time>2012-12-16T14:04:10Z</time>
      </trkpt>
      <trkpt lat="45.75812" lon="4.28757">
        <ele>371.687</ele>
        <time>2012-12-16T14:04:21Z</time>
      </trkpt>
      <trkpt lat="45.75811" lon="4.2875">
        <ele>373.129</ele>
        <time>2012-12-16T14:04:26Z</time>
      </trkpt>
      <trkpt lat="45.7581" lon="4.28731">
        <ele>375.052</ele>
        <time>2012-12-16T14:04:36Z</time>
      </trkpt>
      <trkpt lat="45.7581" lon="4.28722">
        <ele>375.532</ele>
        <time>2012-12-16T14:04:40Z</time>
      </trkpt>
      <trkpt lat="45.75813" lon="4.28708">
        <ele>377.455</ele>
        <time>2012-12-16T14:04:49Z</time>
      </trkpt>
      <trkpt lat="45.75813" lon="4.287">
        <ele>378.416</ele>
        <time>2012-12-16T14:04:52Z</time>
      </trkpt>
      <trkpt lat="45.75816" lon="4.28684">
        <ele>379.858</ele>
        <time>2012-12-16T14:05:01Z</time>
      </trkpt>
      <trkpt lat="45.75817" lon="4.28682">
        <ele>379.858</ele>
        <time>2012-12-16T14:05:02Z</time>
      </trkpt>
      <trkpt lat="45.75812" lon="4.2866">
        <ele>377.935</ele>
        <time>2012-12-16T14:05:13Z</time>
      </trkpt>
      <trkpt lat="45.75809" lon="4.28652">
        <ele>377.455</ele>
        <time>2012-12-16T14:05:16Z</time>
      </trkpt>
      <trkpt lat="45.758" lon="4.28637">
        <ele>374.571</ele>
        <time>2012-12-16T14:05:26Z</time>
      </trkpt>
      <trkpt lat="45.75788" lon="4.28627">
        <ele>370.245</ele>
        <time>2012-12-16T14:05:32Z</time>
      </trkpt>
      <trkpt lat="45.75763" lon="4.28616">
        <ele>369.284</ele>
        <time>2012-12-16T14:05:44Z</time>
      </trkpt>
      <trkpt lat="45.75748" lon="4.28607">
        <ele>366.88</ele>
        <time>2012-12-16T14:05:54Z</time>
      </trkpt>
      <trkpt lat="45.75745" lon="4.28605">
        <ele>366.88</ele>
        <time>2012-12-16T14:05:57Z</time>
      </trkpt>
      <trkpt lat="45.75734" lon="4.286">
        <ele>367.842</ele>
        <time>2012-12-16T14:06:05Z</time>
      </trkpt>
      <trkpt lat="45.7573" lon="4.28599">
        <ele>368.322</ele>
        <time>2012-12-16T14:06:08Z</time>
      </trkpt>
      <trkpt lat="45.75727" lon="4.28597">
        <ele>369.284</ele>
        <time>2012-12-16T14:06:11Z</time>
      </trkpt>
      <trkpt lat="45.75719" lon="4.28595">
        <ele>372.167</ele>
        <time>2012-12-16T14:06:16Z</time>
      </trkpt>
      <trkpt lat="45.75714" lon="4.28594">
        <ele>374.09</ele>
        <time>2012-12-16T14:06:19Z</time>
      </trkpt>
      <trkpt lat="45.75708" lon="4.28589">
        <ele>374.571</ele>
        <time>2012-12-16T14:06:24Z</time>
      </trkpt>
      <trkpt lat="45.75692" lon="4.28583">
        <ele>376.013</ele>
        <time>2012-12-16T14:06:35Z</time>
      </trkpt>
      <trkpt lat="45.75691" lon="4.28582">
        <ele>376.494</ele>
        <time>2012-12-16T14:06:36Z</time>
      </trkpt>
      <trkpt lat="45.75683" lon="4.2858">
        <ele>377.455</ele>
        <time>2012-12-16T14:06:42Z</time>
      </trkpt>
      <trkpt lat="45.75677" lon="4.28578">
        <ele>377.455</ele>
        <time>2012-12-16T14:06:47Z</time>
      </trkpt>
      <trkpt lat="45.75661" lon="4.28571">
        <ele>377.935</ele>
        <time>2012-12-16T14:06:57Z</time>
      </trkpt>
      <trkpt lat="45.75651" lon="4.2857">
        <ele>378.897</ele>
        <time>2012-12-16T14:07:02Z</time>
      </trkpt>
      <trkpt lat="45.75643" lon="4.28569">
        <ele>378.897</ele>
        <time>2012-12-16T14:07:07Z</time>
      </trkpt>
      <trkpt lat="45.75626" lon="4.28568">
        <ele>377.935</ele>
        <time>2012-12-16T14:07:18Z</time>
      </trkpt>
      <trkpt lat="45.75611" lon="4.28566">
        <ele>377.455</ele>
        <time>2012-12-16T14:07:26Z</time>
      </trkpt>
      <trkpt lat="45.75592" lon="4.28561">
        <ele>375.532</ele>
        <time>2012-12-16T14:07:39Z</time>
      </trkpt>
      <trkpt lat="45.75585" lon="4.28561">
        <ele>374.571</ele>
        <time>2012-12-16T14:07:46Z</time>
      </trkpt>
      <trkpt lat="45.75574" lon="4.28559">
        <ele>374.09</ele>
        <time>2012-12-16T14:07:54Z</time>
      </trkpt>
      <trkpt lat="45.7556" lon="4.28551">
        <ele>371.206</ele>
        <time>2012-12-16T14:08:04Z</time>
      </trkpt>
      <trkpt lat="45.75558" lon="4.28549">
        <ele>370.726</ele>
        <time>2012-12-16T14:08:06Z</time>
      </trkpt>
      <trkpt lat="45.75553" lon="4.28549">
        <ele>369.764</ele>
        <time>2012-12-16T14:08:09Z</time>
      </trkpt>
      <trkpt lat="45.75551" lon="4.28547">
        <ele>369.764</ele>
        <time>2012-12-16T14:08:11Z</time>
      </trkpt>
      <trkpt lat="45.75539" lon="4.28544">
        <ele>367.842</ele>
        <time>2012-12-16T14:08:18Z</time>
      </trkpt>
      <trkpt lat="45.75532" lon="4.28542">
        <ele>366.88</ele>
        <time>2012-12-16T14:08:24Z</time>
      </trkpt>
      <trkpt lat="45.75527" lon="4.2854">
        <ele>366.4</ele>
        <time>2012-12-16T14:08:28Z</time>
      </trkpt>
      <trkpt lat="45.75523" lon="4.28537">
        <ele>365.919</ele>
        <time>2012-12-16T14:08:31Z</time>
      </trkpt>
      <trkpt lat="45.7552" lon="4.28537">
        <ele>365.919</ele>
        <time>2012-12-16T14:08:33Z</time>
      </trkpt>
      <trkpt lat="45.75509" lon="4.28534">
        <ele>366.88</ele>
        <time>2012-12-16T14:08:42Z</time>
      </trkpt>
      <trkpt lat="45.75506" lon="4.28535">
        <ele>367.361</ele>
        <time>2012-12-16T14:08:44Z</time>
      </trkpt>
      <trkpt lat="45.7549" lon="4.28533">
        <ele>371.687</ele>
        <time>2012-12-16T14:08:54Z</time>
      </trkpt>
      <trkpt lat="45.75483" lon="4.28531">
        <ele>372.648</ele>
        <time>2012-12-16T14:08:58Z</time>
      </trkpt>
      <trkpt lat="45.75461" lon="4.28523">
        <ele>367.361</ele>
        <time>2012-12-16T14:09:10Z</time>
      </trkpt>
      <trkpt lat="45.75455" lon="4.28522">
        <ele>365.438</ele>
        <time>2012-12-16T14:09:14Z</time>
      </trkpt>
      <trkpt lat="45.75449" lon="4.28517">
        <ele>361.593</ele>
        <time>2012-12-16T14:09:29Z</time>
      </trkpt>
      <trkpt lat="45.75448" lon="4.28518">
        <ele>359.67</ele>
        <time>2012-12-16T14:10:24Z</time>
      </trkpt>
      <trkpt lat="45.75445" lon="4.28515">
        <ele>359.67</ele>
        <time>2012-12-16T14:10:28Z</time>
      </trkpt>
      <trkpt lat="45.75432" lon="4.28509">
        <ele>357.267</ele>
        <time>2012-12-16T14:10:38Z</time>
      </trkpt>
      <trkpt lat="45.75423" lon="4.28502">
        <ele>354.864</ele>
        <time>2012-12-16T14:10:49Z</time>
      </trkpt>
      <trkpt lat="45.75422" lon="4.28501">
        <ele>354.864</ele>
        <time>2012-12-16T14:10:50Z</time>
      </trkpt>
      <trkpt lat="45.7542" lon="4.285">
        <ele>354.864</ele>
        <time>2012-12-16T14:10:52Z</time>
      </trkpt>
      <trkpt lat="45.7541" lon="4.28497">
        <ele>354.864</ele>
        <time>2012-12-16T14:11:00Z</time>
      </trkpt>
      <trkpt lat="45.75402" lon="4.28496">
        <ele>354.864</ele>
        <time>2012-12-16T14:11:07Z</time>
      </trkpt>
      <trkpt lat="45.75391" lon="4.28495">
        <ele>355.825</ele>
        <time>2012-12-16T14:11:16Z</time>
      </trkpt>
      <trkpt lat="45.75377" lon="4.28492">
        <ele>356.306</ele>
        <time>2012-12-16T14:11:27Z</time>
      </trkpt>
      <trkpt lat="45.75375" lon="4.28492">
        <ele>356.306</ele>
        <time>2012-12-16T14:11:28Z</time>
      </trkpt>
      <trkpt lat="45.75358" lon="4.28489">
        <ele>356.786</ele>
        <time>2012-12-16T14:11:40Z</time>
      </trkpt>
      <trkpt lat="45.75346" lon="4.28489">
        <ele>357.748</ele>
        <time>2012-12-16T14:11:49Z</time>
      </trkpt>
      <trkpt lat="45.75343" lon="4.28488">
        <ele>357.748</ele>
        <time>2012-12-16T14:11:51Z</time>
      </trkpt>
      <trkpt lat="45.75329" lon="4.28485">
        <ele>357.748</ele>
        <time>2012-12-16T14:12:00Z</time>
      </trkpt>
      <trkpt lat="45.75322" lon="4.28484">
        <ele>355.825</ele>
        <time>2012-12-16T14:12:05Z</time>
      </trkpt>
      <trkpt lat="45.75308" lon="4.2848">
        <ele>353.903</ele>
        <time>2012-12-16T14:12:14Z</time>
      </trkpt>
      <trkpt lat="45.75307" lon="4.2848">
        <ele>353.422</ele>
        <time>2012-12-16T14:12:15Z</time>
      </trkpt>
      <trkpt lat="45.75303" lon="4.2848">
        <ele>352.941</ele>
        <time>2012-12-16T14:12:18Z</time>
      </trkpt>
      <trkpt lat="45.75299" lon="4.2848">
        <ele>351.98</ele>
        <time>2012-12-16T14:12:21Z</time>
      </trkpt>
      <trkpt lat="45.75287" lon="4.28474">
        <ele>351.499</ele>
        <time>2012-12-16T14:12:32Z</time>
      </trkpt>
      <trkpt lat="45.75285" lon="4.28474">
        <ele>351.499</ele>
        <time>2012-12-16T14:12:33Z</time>
      </trkpt>
      <trkpt lat="45.75273" lon="4.2847">
        <ele>352.461</ele>
        <time>2012-12-16T14:12:42Z</time>
      </trkpt>
      <trkpt lat="45.75265" lon="4.28469">
        <ele>352.941</ele>
        <time>2012-12-16T14:12:47Z</time>
      </trkpt>
      <trkpt lat="45.75259" lon="4.2847">
        <ele>352.941</ele>
        <time>2012-12-16T14:12:50Z</time>
      </trkpt>
      <trkpt lat="45.75253" lon="4.28467">
        <ele>352.941</ele>
        <time>2012-12-16T14:12:55Z</time>
      </trkpt>
      <trkpt lat="45.7524" lon="4.28466">
        <ele>353.903</ele>
        <time>2012-12-16T14:13:03Z</time>
      </trkpt>
      <trkpt lat="45.75226" lon="4.28465">
        <ele>358.709</ele>
        <time>2012-12-16T14:13:12Z</time>
      </trkpt>
      <trkpt lat="45.75222" lon="4.28465">
        <ele>359.19</ele>
        <time>2012-12-16T14:13:15Z</time>
      </trkpt>
      <trkpt lat="45.7521" lon="4.28471">
        <ele>359.19</ele>
        <time>2012-12-16T14:13:22Z</time>
      </trkpt>
      <trkpt lat="45.75193" lon="4.28478">
        <ele>359.67</ele>
        <time>2012-12-16T14:13:33Z</time>
      </trkpt>
      <trkpt lat="45.75179" lon="4.28483">
        <ele>361.593</ele>
        <time>2012-12-16T14:13:44Z</time>
      </trkpt>
      <trkpt lat="45.75165" lon="4.2849">
        <ele>361.593</ele>
        <time>2012-12-16T14:13:54Z</time>
      </trkpt>
      <trkpt lat="45.75149" lon="4.28498">
        <ele>359.67</ele>
        <time>2012-12-16T14:14:05Z</time>
      </trkpt>
      <trkpt lat="45.75139" lon="4.28502">
        <ele>359.19</ele>
        <time>2012-12-16T14:14:12Z</time>
      </trkpt>
      <trkpt lat="45.75124" lon="4.28509">
        <ele>355.825</ele>
        <time>2012-12-16T14:14:22Z</time>
      </trkpt>
      <trkpt lat="45.75109" lon="4.28519">
        <ele>356.786</ele>
        <time>2012-12-16T14:14:31Z</time>
      </trkpt>
      <trkpt lat="45.75101" lon="4.28524">
        <ele>360.151</ele>
        <time>2012-12-16T14:14:37Z</time>
      </trkpt>
      <trkpt lat="45.75085" lon="4.28535">
        <ele>360.632</ele>
        <time>2012-12-16T14:14:49Z</time>
      </trkpt>
      <trkpt lat="45.75074" lon="4.28541">
        <ele>360.151</ele>
        <time>2012-12-16T14:14:57Z</time>
      </trkpt>
      <trkpt lat="45.75069" lon="4.28544">
        <ele>360.632</ele>
        <time>2012-12-16T14:15:00Z</time>
      </trkpt>
      <trkpt lat="45.75061" lon="4.28545">
        <ele>363.996</ele>
        <time>2012-12-16T14:15:16Z</time>
      </trkpt>
      <trkpt lat="45.7505" lon="4.28545">
        <ele>365.919</ele>
        <time>2012-12-16T14:16:08Z</time>
      </trkpt>
      <trkpt lat="45.75045" lon="4.28543">
        <ele>366.4</ele>
        <time>2012-12-16T14:16:13Z</time>
      </trkpt>
      <trkpt lat="45.75037" lon="4.28539">
        <ele>363.516</ele>
        <time>2012-12-16T14:16:19Z</time>
      </trkpt>
      <trkpt lat="45.75028" lon="4.28528">
        <ele>360.632</ele>
        <time>2012-12-16T14:16:27Z</time>
      </trkpt>
      <trkpt lat="45.75015" lon="4.28516">
        <ele>354.864</ele>
        <time>2012-12-16T14:16:40Z</time>
      </trkpt>
      <trkpt lat="45.74999" lon="4.28508">
        <ele>351.499</ele>
        <time>2012-12-16T14:16:50Z</time>
      </trkpt>
      <trkpt lat="45.74986" lon="4.28497">
        <ele>349.577</ele>
        <time>2012-12-16T14:17:00Z</time>
      </trkpt>
      <trkpt lat="45.74978" lon="4.28491">
        <ele>347.654</ele>
        <time>2012-12-16T14:17:06Z</time>
      </trkpt>
      <trkpt lat="45.74967" lon="4.28485">
        <ele>345.731</ele>
        <time>2012-12-16T14:17:14Z</time>
      </trkpt>
      <trkpt lat="45.74966" lon="4.28485">
        <ele>345.731</ele>
        <time>2012-12-16T14:17:15Z</time>
      </trkpt>
      <trkpt lat="45.74958" lon="4.28477">
        <ele>343.809</ele>
        <time>2012-12-16T14:17:22Z</time>
      </trkpt>
      <trkpt lat="45.74942" lon="4.28467">
        <ele>342.367</ele>
        <time>2012-12-16T14:17:32Z</time>
      </trkpt>
      <trkpt lat="45.74931" lon="4.28457">
        <ele>341.405</ele>
        <time>2012-12-16T14:17:41Z</time>
      </trkpt>
      <trkpt lat="45.74922" lon="4.28453">
        <ele>338.041</ele>
        <time>2012-12-16T14:17:48Z</time>
      </trkpt>
      <trkpt lat="45.74914" lon="4.28451">
        <ele>335.637</ele>
        <time>2012-12-16T14:17:54Z</time>
      </trkpt>
      <trkpt lat="45.74898" lon="4.28445">
        <ele>333.234</ele>
        <time>2012-12-16T14:18:05Z</time>
      </trkpt>
      <trkpt lat="45.74882" lon="4.28439">
        <ele>331.792</ele>
        <time>2012-12-16T14:18:15Z</time>
      </trkpt>
      <trkpt lat="45.74874" lon="4.28435">
        <ele>332.273</ele>
        <time>2012-12-16T14:18:21Z</time>
      </trkpt>
      <trkpt lat="45.74861" lon="4.28428">
        <ele>331.312</ele>
        <time>2012-12-16T14:18:28Z</time>
      </trkpt>
      <trkpt lat="45.74849" lon="4.2842">
        <ele>329.389</ele>
        <time>2012-12-16T14:18:38Z</time>
      </trkpt>
      <trkpt lat="45.74843" lon="4.28408">
        <ele>324.102</ele>
        <time>2012-12-16T14:18:55Z</time>
      </trkpt>
      <trkpt lat="45.74834" lon="4.28405">
        <ele>325.544</ele>
        <time>2012-12-16T14:19:01Z</time>
      </trkpt>
      <trkpt lat="45.74828" lon="4.28401">
        <ele>326.986</ele>
        <time>2012-12-16T14:19:08Z</time>
      </trkpt>
      <trkpt lat="45.74819" lon="4.28392">
        <ele>327.947</ele>
        <time>2012-12-16T14:19:18Z</time>
      </trkpt>
      <trkpt lat="45.74811" lon="4.28387">
        <ele>331.312</ele>
        <time>2012-12-16T14:19:25Z</time>
      </trkpt>
      <trkpt lat="45.74803" lon="4.28378">
        <ele>336.118</ele>
        <time>2012-12-16T14:19:35Z</time>
      </trkpt>
      <trkpt lat="45.74802" lon="4.28361">
        <ele>339.963</ele>
        <time>2012-12-16T14:19:46Z</time>
      </trkpt>
      <trkpt lat="45.74803" lon="4.28357">
        <ele>339.963</ele>
        <time>2012-12-16T14:20:00Z</time>
      </trkpt>
      <trkpt lat="45.74804" lon="4.28348">
        <ele>341.405</ele>
        <time>2012-12-16T14:20:12Z</time>
      </trkpt>
      <trkpt lat="45.74805" lon="4.28338">
        <ele>340.444</ele>
        <time>2012-12-16T14:20:22Z</time>
      </trkpt>
      <trkpt lat="45.74805" lon="4.28332">
        <ele>339.483</ele>
        <time>2012-12-16T14:20:32Z</time>
      </trkpt>
      <trkpt lat="45.74806" lon="4.28314">
        <ele>339.483</ele>
        <time>2012-12-16T14:20:43Z</time>
      </trkpt>
      <trkpt lat="45.74807" lon="4.28306">
        <ele>339.002</ele>
        <time>2012-12-16T14:20:49Z</time>
      </trkpt>
      <trkpt lat="45.74808" lon="4.283">
        <ele>338.041</ele>
        <time>2012-12-16T14:20:53Z</time>
      </trkpt>
      <trkpt lat="45.74815" lon="4.28292">
        <ele>334.195</ele>
        <time>2012-12-16T14:21:03Z</time>
      </trkpt>
      <trkpt lat="45.74818" lon="4.28275">
        <ele>334.195</ele>
        <time>2012-12-16T14:21:13Z</time>
      </trkpt>
      <trkpt lat="45.74817" lon="4.28267">
        <ele>334.676</ele>
        <time>2012-12-16T14:21:17Z</time>
      </trkpt>
      <trkpt lat="45.74819" lon="4.28263">
        <ele>334.195</ele>
        <time>2012-12-16T14:21:20Z</time>
      </trkpt>
      <trkpt lat="45.74821" lon="4.28266">
        <ele>333.234</ele>
        <time>2012-12-16T14:21:24Z</time>
      </trkpt>
      <trkpt lat="45.74824" lon="4.28271">
        <ele>331.312</ele>
        <time>2012-12-16T14:21:35Z</time>
      </trkpt>
      <trkpt lat="45.74824" lon="4.28271">
        <ele>331.312</ele>
        <time>2012-12-16T14:21:36Z</time>
      </trkpt>
      <trkpt lat="45.74814" lon="4.2826">
        <ele>327.466</ele>
        <time>2012-12-16T14:21:46Z</time>
      </trkpt>
      <trkpt lat="45.74807" lon="4.28249">
        <ele>326.505</ele>
        <time>2012-12-16T14:21:55Z</time>
      </trkpt>
      <trkpt lat="45.74806" lon="4.28248">
        <ele>326.024</ele>
        <time>2012-12-16T14:21:56Z</time>
      </trkpt>
      <trkpt lat="45.74805" lon="4.28244">
        <ele>325.063</ele>
        <time>2012-12-16T14:21:59Z</time>
      </trkpt>
      <trkpt lat="45.74803" lon="4.28241">
        <ele>325.063</ele>
        <time>2012-12-16T14:22:01Z</time>
      </trkpt>
      <trkpt lat="45.74799" lon="4.28235">
        <ele>324.582</ele>
        <time>2012-12-16T14:22:05Z</time>
      </trkpt>
      <trkpt lat="45.74787" lon="4.28228">
        <ele>325.063</ele>
        <time>2012-12-16T14:22:14Z</time>
      </trkpt>
      <trkpt lat="45.74782" lon="4.28224">
        <ele>326.986</ele>
        <time>2012-12-16T14:22:28Z</time>
      </trkpt>
      <trkpt lat="45.74775" lon="4.28221">
        <ele>330.35</ele>
        <time>2012-12-16T14:22:41Z</time>
      </trkpt>
      <trkpt lat="45.74771" lon="4.28213">
        <ele>332.273</ele>
        <time>2012-12-16T14:22:52Z</time>
      </trkpt>
      <trkpt lat="45.74766" lon="4.28205">
        <ele>331.792</ele>
        <time>2012-12-16T14:23:07Z</time>
      </trkpt>
      <trkpt lat="45.74764" lon="4.28201">
        <ele>332.273</ele>
        <time>2012-12-16T14:23:10Z</time>
      </trkpt>
      <trkpt lat="45.74758" lon="4.28196">
        <ele>332.273</ele>
        <time>2012-12-16T14:23:15Z</time>
      </trkpt>
      <trkpt lat="45.74753" lon="4.28184">
        <ele>329.389</ele>
        <time>2012-12-16T14:23:26Z</time>
      </trkpt>
      <trkpt lat="45.74746" lon="4.28162">
        <ele>330.831</ele>
        <time>2012-12-16T14:23:38Z</time>
      </trkpt>
      <trkpt lat="45.74746" lon="4.28155">
        <ele>331.312</ele>
        <time>2012-12-16T14:23:54Z</time>
      </trkpt>
      <trkpt lat="45.74746" lon="4.28155">
        <ele>331.312</ele>
        <time>2012-12-16T14:24:14Z</time>
      </trkpt>
      <trkpt lat="45.7474" lon="4.28141">
        <ele>333.234</ele>
        <time>2012-12-16T14:24:24Z</time>
      </trkpt>
      <trkpt lat="45.74733" lon="4.28129">
        <ele>334.195</ele>
        <time>2012-12-16T14:24:34Z</time>
      </trkpt>
      <trkpt lat="45.74721" lon="4.28112">
        <ele>334.195</ele>
        <time>2012-12-16T14:24:45Z</time>
      </trkpt>
      <trkpt lat="45.74718" lon="4.28108">
        <ele>334.195</ele>
        <time>2012-12-16T14:24:49Z</time>
      </trkpt>
      <trkpt lat="45.74715" lon="4.28105">
        <ele>333.234</ele>
        <time>2012-12-16T14:24:52Z</time>
      </trkpt>
      <trkpt lat="45.74706" lon="4.28092">
        <ele>332.754</ele>
        <time>2012-12-16T14:25:03Z</time>
      </trkpt>
      <trkpt lat="45.74698" lon="4.28073">
        <ele>332.754</ele>
        <time>2012-12-16T14:25:14Z</time>
      </trkpt>
      <trkpt lat="45.74692" lon="4.28056">
        <ele>332.273</ele>
        <time>2012-12-16T14:25:26Z</time>
      </trkpt>
      <trkpt lat="45.74691" lon="4.28054">
        <ele>332.273</ele>
        <time>2012-12-16T14:25:28Z</time>
      </trkpt>
      <trkpt lat="45.74685" lon="4.28038">
        <ele>332.273</ele>
        <time>2012-12-16T14:25:39Z</time>
      </trkpt>
      <trkpt lat="45.74684" lon="4.28036">
        <ele>332.273</ele>
        <time>2012-12-16T14:25:40Z</time>
      </trkpt>
      <trkpt lat="45.74681" lon="4.28023">
        <ele>332.273</ele>
        <time>2012-12-16T14:25:47Z</time>
      </trkpt>
      <trkpt lat="45.74677" lon="4.28013">
        <ele>332.273</ele>
        <time>2012-12-16T14:25:53Z</time>
      </trkpt>
      <trkpt lat="45.74672" lon="4.27995">
        <ele>332.754</ele>
        <time>2012-12-16T14:26:02Z</time>
      </trkpt>
      <trkpt lat="45.74669" lon="4.27993">
        <ele>332.273</ele>
        <time>2012-12-16T14:26:04Z</time>
      </trkpt>
      <trkpt lat="45.74649" lon="4.27989">
        <ele>335.157</ele>
        <time>2012-12-16T14:26:17Z</time>
      </trkpt>
      <trkpt lat="45.74641" lon="4.27991">
        <ele>336.599</ele>
        <time>2012-12-16T14:26:23Z</time>
      </trkpt>
      <trkpt lat="45.74627" lon="4.27994">
        <ele>336.599</ele>
        <time>2012-12-16T14:26:33Z</time>
      </trkpt>
      <trkpt lat="45.74618" lon="4.27996">
        <ele>338.521</ele>
        <time>2012-12-16T14:26:39Z</time>
      </trkpt>
      <trkpt lat="45.74604" lon="4.27995">
        <ele>341.886</ele>
        <time>2012-12-16T14:26:49Z</time>
      </trkpt>
      <trkpt lat="45.74587" lon="4.27986">
        <ele>344.289</ele>
        <time>2012-12-16T14:27:03Z</time>
      </trkpt>
      <trkpt lat="45.74586" lon="4.27985">
        <ele>344.77</ele>
        <time>2012-12-16T14:27:05Z</time>
      </trkpt>
      <trkpt lat="45.74578" lon="4.27982">
        <ele>344.77</ele>
        <time>2012-12-16T14:27:11Z</time>
      </trkpt>
      <trkpt lat="45.74573" lon="4.27981">
        <ele>344.289</ele>
        <time>2012-12-16T14:27:17Z</time>
      </trkpt>
      <trkpt lat="45.74557" lon="4.27987">
        <ele>343.809</ele>
        <time>2012-12-16T14:27:29Z</time>
      </trkpt>
      <trkpt lat="45.74545" lon="4.27992">
        <ele>343.809</ele>
        <time>2012-12-16T14:27:38Z</time>
      </trkpt>
      <trkpt lat="45.74543" lon="4.27994">
        <ele>343.809</ele>
        <time>2012-12-16T14:27:40Z</time>
      </trkpt>
      <trkpt lat="45.74538" lon="4.27996">
        <ele>344.289</ele>
        <time>2012-12-16T14:27:44Z</time>
      </trkpt>
      <trkpt lat="45.74522" lon="4.28014">
        <ele>346.693</ele>
        <time>2012-12-16T14:27:59Z</time>
      </trkpt>
      <trkpt lat="45.74514" lon="4.28036">
        <ele>347.654</ele>
        <time>2012-12-16T14:28:12Z</time>
      </trkpt>
      <trkpt lat="45.74502" lon="4.28053">
        <ele>350.057</ele>
        <time>2012-12-16T14:28:24Z</time>
      </trkpt>
      <trkpt lat="45.74485" lon="4.28068">
        <ele>351.499</ele>
        <time>2012-12-16T14:28:38Z</time>
      </trkpt>
      <trkpt lat="45.74467" lon="4.28079">
        <ele>352.461</ele>
        <time>2012-12-16T14:28:52Z</time>
      </trkpt>
      <trkpt lat="45.74453" lon="4.28091">
        <ele>352.461</ele>
        <time>2012-12-16T14:29:04Z</time>
      </trkpt>
      <trkpt lat="45.74441" lon="4.28104">
        <ele>352.941</ele>
        <time>2012-12-16T14:29:15Z</time>
      </trkpt>
      <trkpt lat="45.74428" lon="4.28124">
        <ele>351.98</ele>
        <time>2012-12-16T14:29:29Z</time>
      </trkpt>
      <trkpt lat="45.74418" lon="4.28149">
        <ele>351.018</ele>
        <time>2012-12-16T14:29:44Z</time>
      </trkpt>
      <trkpt lat="45.74407" lon="4.28173">
        <ele>354.383</ele>
        <time>2012-12-16T14:29:58Z</time>
      </trkpt>
      <trkpt lat="45.74392" lon="4.28193">
        <ele>357.267</ele>
        <time>2012-12-16T14:30:12Z</time>
      </trkpt>
      <trkpt lat="45.74374" lon="4.28203">
        <ele>358.228</ele>
        <time>2012-12-16T14:30:25Z</time>
      </trkpt>
      <trkpt lat="45.74355" lon="4.28213">
        <ele>360.151</ele>
        <time>2012-12-16T14:30:39Z</time>
      </trkpt>
      <trkpt lat="45.74337" lon="4.28219">
        <ele>359.19</ele>
        <time>2012-12-16T14:30:51Z</time>
      </trkpt>
      <trkpt lat="45.74325" lon="4.28222">
        <ele>359.19</ele>
        <time>2012-12-16T14:31:04Z</time>
      </trkpt>
      <trkpt lat="45.74325" lon="4.28222">
        <ele>359.19</ele>
        <time>2012-12-16T14:31:50Z</time>
      </trkpt>
      <trkpt lat="45.74313" lon="4.28223">
        <ele>360.632</ele>
        <time>2012-12-16T14:32:00Z</time>
      </trkpt>
      <trkpt lat="45.74299" lon="4.28224">
        <ele>361.593</ele>
        <time>2012-12-16T14:32:11Z</time>
      </trkpt>
      <trkpt lat="45.7428" lon="4.28224">
        <ele>363.035</ele>
        <time>2012-12-16T14:32:24Z</time>
      </trkpt>
      <trkpt lat="45.74257" lon="4.28223">
        <ele>363.035</ele>
        <time>2012-12-16T14:32:39Z</time>
      </trkpt>
      <trkpt lat="45.7424" lon="4.2822">
        <ele>362.554</ele>
        <time>2012-12-16T14:32:51Z</time>
      </trkpt>
      <trkpt lat="45.74221" lon="4.28213">
        <ele>362.554</ele>
        <time>2012-12-16T14:33:04Z</time>
      </trkpt>
      <trkpt lat="45.74209" lon="4.2821">
        <ele>361.593</ele>
        <time>2012-12-16T14:33:12Z</time>
      </trkpt>
      <trkpt lat="45.74197" lon="4.28206">
        <ele>361.593</ele>
        <time>2012-12-16T14:33:20Z</time>
      </trkpt>
      <trkpt lat="45.74192" lon="4.28206">
        <ele>360.632</ele>
        <time>2012-12-16T14:33:24Z</time>
      </trkpt>
      <trkpt lat="45.74175" lon="4.28202">
        <ele>359.67</ele>
        <time>2012-12-16T14:33:36Z</time>
      </trkpt>
      <trkpt lat="45.74158" lon="4.28201">
        <ele>360.151</ele>
        <time>2012-12-16T14:33:48Z</time>
      </trkpt>
      <trkpt lat="45.74145" lon="4.28203">
        <ele>360.151</ele>
        <time>2012-12-16T14:33:58Z</time>
      </trkpt>
      <trkpt lat="45.74141" lon="4.28202">
        <ele>360.151</ele>
        <time>2012-12-16T14:34:01Z</time>
      </trkpt>
      <trkpt lat="45.74125" lon="4.28209">
        <ele>359.67</ele>
        <time>2012-12-16T14:34:12Z</time>
      </trkpt>
      <trkpt lat="45.74115" lon="4.28215">
        <ele>359.19</ele>
        <time>2012-12-16T14:34:19Z</time>
      </trkpt>
      <trkpt lat="45.74099" lon="4.28223">
        <ele>359.67</ele>
        <time>2012-12-16T14:34:30Z</time>
      </trkpt>
      <trkpt lat="45.74093" lon="4.28225">
        <ele>358.709</ele>
        <time>2012-12-16T14:34:35Z</time>
      </trkpt>
      <trkpt lat="45.74086" lon="4.28232">
        <ele>359.19</ele>
        <time>2012-12-16T14:34:41Z</time>
      </trkpt>
      <trkpt lat="45.74081" lon="4.28233">
        <ele>359.19</ele>
        <time>2012-12-16T14:34:45Z</time>
      </trkpt>
      <trkpt lat="45.74075" lon="4.28237">
        <ele>360.632</ele>
        <time>2012-12-16T14:34:49Z</time>
      </trkpt>
      <trkpt lat="45.74073" lon="4.28239">
        <ele>360.151</ele>
        <time>2012-12-16T14:34:51Z</time>
      </trkpt>
      <trkpt lat="45.74056" lon="4.28247">
        <ele>359.67</ele>
        <time>2012-12-16T14:35:04Z</time>
      </trkpt>
      <trkpt lat="45.74048" lon="4.28252">
        <ele>359.19</ele>
        <time>2012-12-16T14:35:10Z</time>
      </trkpt>
      <trkpt lat="45.74029" lon="4.2826">
        <ele>360.151</ele>
        <time>2012-12-16T14:35:23Z</time>
      </trkpt>
      <trkpt lat="45.74013" lon="4.28268">
        <ele>359.67</ele>
        <time>2012-12-16T14:35:35Z</time>
      </trkpt>
      <trkpt lat="45.74011" lon="4.28268">
        <ele>359.67</ele>
        <time>2012-12-16T14:35:36Z</time>
      </trkpt>
      <trkpt lat="45.74004" lon="4.28274">
        <ele>359.67</ele>
        <time>2012-12-16T14:35:41Z</time>
      </trkpt>
      <trkpt lat="45.74001" lon="4.28276">
        <ele>358.709</ele>
        <time>2012-12-16T14:35:44Z</time>
      </trkpt>
      <trkpt lat="45.73992" lon="4.28281">
        <ele>358.228</ele>
        <time>2012-12-16T14:35:50Z</time>
      </trkpt>
      <trkpt lat="45.74001" lon="4.28307">
        <ele>355.344</ele>
        <time>2012-12-16T14:36:03Z</time>
      </trkpt>
      <trkpt lat="45.74004" lon="4.28313">
        <ele>355.825</ele>
        <time>2012-12-16T14:36:07Z</time>
      </trkpt>
      <trkpt lat="45.74011" lon="4.28334">
        <ele>355.825</ele>
        <time>2012-12-16T14:36:19Z</time>
      </trkpt>
      <trkpt lat="45.74017" lon="4.28347">
        <ele>353.903</ele>
        <time>2012-12-16T14:36:28Z</time>
      </trkpt>
      <trkpt lat="45.7402" lon="4.28354">
        <ele>353.903</ele>
        <time>2012-12-16T14:36:32Z</time>
      </trkpt>
      <trkpt lat="45.74024" lon="4.2836">
        <ele>354.383</ele>
        <time>2012-12-16T14:36:37Z</time>
      </trkpt>
      <trkpt lat="45.74026" lon="4.28369">
        <ele>353.422</ele>
        <time>2012-12-16T14:36:43Z</time>
      </trkpt>
      <trkpt lat="45.74028" lon="4.28375">
        <ele>354.864</ele>
        <time>2012-12-16T14:36:46Z</time>
      </trkpt>
      <trkpt lat="45.74037" lon="4.28389">
        <ele>356.306</ele>
        <time>2012-12-16T14:36:57Z</time>
      </trkpt>
      <trkpt lat="45.7404" lon="4.28395">
        <ele>357.267</ele>
        <time>2012-12-16T14:37:01Z</time>
      </trkpt>
      <trkpt lat="45.74041" lon="4.28399">
        <ele>357.748</ele>
        <time>2012-12-16T14:37:03Z</time>
      </trkpt>
      <trkpt lat="45.74044" lon="4.28404">
        <ele>357.748</ele>
        <time>2012-12-16T14:37:07Z</time>
      </trkpt>
      <trkpt lat="45.74049" lon="4.28412">
        <ele>356.306</ele>
        <time>2012-12-16T14:37:14Z</time>
      </trkpt>
      <trkpt lat="45.74054" lon="4.28421">
        <ele>355.344</ele>
        <time>2012-12-16T14:37:21Z</time>
      </trkpt>
      <trkpt lat="45.74057" lon="4.28434">
        <ele>355.825</ele>
        <time>2012-12-16T14:37:28Z</time>
      </trkpt>
      <trkpt lat="45.74058" lon="4.28445">
        <ele>356.786</ele>
        <time>2012-12-16T14:37:33Z</time>
      </trkpt>
      <trkpt lat="45.74055" lon="4.28462">
        <ele>356.306</ele>
        <time>2012-12-16T14:37:43Z</time>
      </trkpt>
      <trkpt lat="45.74053" lon="4.28478">
        <ele>357.267</ele>
        <time>2012-12-16T14:37:51Z</time>
      </trkpt>
      <trkpt lat="45.74051" lon="4.28501">
        <ele>358.228</ele>
        <time>2012-12-16T14:38:02Z</time>
      </trkpt>
      <trkpt lat="45.74048" lon="4.28522">
        <ele>359.67</ele>
        <time>2012-12-16T14:38:13Z</time>
      </trkpt>
      <trkpt lat="45.74045" lon="4.28542">
        <ele>359.67</ele>
        <time>2012-12-16T14:38:24Z</time>
      </trkpt>
      <trkpt lat="45.74045" lon="4.28567">
        <ele>362.554</ele>
        <time>2012-12-16T14:38:36Z</time>
      </trkpt>
      <trkpt lat="45.7405" lon="4.28582">
        <ele>362.554</ele>
        <time>2012-12-16T14:38:45Z</time>
      </trkpt>
      <trkpt lat="45.74055" lon="4.28589">
        <ele>362.554</ele>
        <time>2012-12-16T14:38:50Z</time>
      </trkpt>
      <trkpt lat="45.74058" lon="4.28598">
        <ele>363.516</ele>
        <time>2012-12-16T14:38:56Z</time>
      </trkpt>
      <trkpt lat="45.7405" lon="4.28611">
        <ele>363.996</ele>
        <time>2012-12-16T14:39:05Z</time>
      </trkpt>
      <trkpt lat="45.74045" lon="4.28613">
        <ele>364.477</ele>
        <time>2012-12-16T14:39:09Z</time>
      </trkpt>
      <trkpt lat="45.74038" lon="4.28619">
        <ele>364.477</ele>
        <time>2012-12-16T14:39:15Z</time>
      </trkpt>
      <trkpt lat="45.74025" lon="4.28628">
        <ele>362.074</ele>
        <time>2012-12-16T14:39:27Z</time>
      </trkpt>
      <trkpt lat="45.74024" lon="4.28629">
        <ele>362.074</ele>
        <time>2012-12-16T14:39:28Z</time>
      </trkpt>
      <trkpt lat="45.74017" lon="4.28649">
        <ele>360.632</ele>
        <time>2012-12-16T14:39:38Z</time>
      </trkpt>
      <trkpt lat="45.74009" lon="4.28653">
        <ele>361.112</ele>
        <time>2012-12-16T14:39:44Z</time>
      </trkpt>
      <trkpt lat="45.73999" lon="4.28659">
        <ele>362.074</ele>
        <time>2012-12-16T14:39:51Z</time>
      </trkpt>
      <trkpt lat="45.73977" lon="4.28673">
        <ele>362.074</ele>
        <time>2012-12-16T14:40:07Z</time>
      </trkpt>
      <trkpt lat="45.73965" lon="4.28684">
        <ele>361.593</ele>
        <time>2012-12-16T14:40:17Z</time>
      </trkpt>
      <trkpt lat="45.73949" lon="4.28704">
        <ele>360.632</ele>
        <time>2012-12-16T14:40:31Z</time>
      </trkpt>
      <trkpt lat="45.73944" lon="4.28717">
        <ele>360.151</ele>
        <time>2012-12-16T14:40:39Z</time>
      </trkpt>
      <trkpt lat="45.73942" lon="4.28725">
        <ele>360.151</ele>
        <time>2012-12-16T14:40:43Z</time>
      </trkpt>
      <trkpt lat="45.73937" lon="4.28751">
        <ele>357.748</ele>
        <time>2012-12-16T14:40:56Z</time>
      </trkpt>
      <trkpt lat="45.73933" lon="4.28764">
        <ele>356.306</ele>
        <time>2012-12-16T14:41:03Z</time>
      </trkpt>
      <trkpt lat="45.73929" lon="4.28777">
        <ele>355.825</ele>
        <time>2012-12-16T14:41:10Z</time>
      </trkpt>
      <trkpt lat="45.73921" lon="4.28795">
        <ele>354.864</ele>
        <time>2012-12-16T14:41:21Z</time>
      </trkpt>
      <trkpt lat="45.73909" lon="4.28809">
        <ele>353.903</ele>
        <time>2012-12-16T14:41:32Z</time>
      </trkpt>
      <trkpt lat="45.73893" lon="4.28812">
        <ele>355.825</ele>
        <time>2012-12-16T14:41:43Z</time>
      </trkpt>
      <trkpt lat="45.73884" lon="4.28817">
        <ele>354.864</ele>
        <time>2012-12-16T14:41:51Z</time>
      </trkpt>
      <trkpt lat="45.73879" lon="4.28821">
        <ele>354.383</ele>
        <time>2012-12-16T14:41:55Z</time>
      </trkpt>
      <trkpt lat="45.7387" lon="4.28824">
        <ele>354.864</ele>
        <time>2012-12-16T14:42:01Z</time>
      </trkpt>
      <trkpt lat="45.73863" lon="4.2883">
        <ele>354.383</ele>
        <time>2012-12-16T14:42:08Z</time>
      </trkpt>
      <trkpt lat="45.73859" lon="4.28831">
        <ele>353.903</ele>
        <time>2012-12-16T14:42:12Z</time>
      </trkpt>
      <trkpt lat="45.73859" lon="4.28838">
        <ele>354.383</ele>
        <time>2012-12-16T14:42:16Z</time>
      </trkpt>
      <trkpt lat="45.7386" lon="4.28843">
        <ele>355.344</ele>
        <time>2012-12-16T14:42:23Z</time>
      </trkpt>
    </trkseg>
  </trk>
</gpx>